<?xml version="1.0" encoding="UTF-8" standalone="no" ?>
<gpx xmlns="http://www.topografix.com/GPX/1/1" xmlns:xsi="http://www.w3.org/2001/XMLSchema-instance" xsi:schemaLocation="http://www.topografix.com/GPX/1/1 http://www.topografix.com/GPX/1/1/gpx.xsd" version="1.1" creator="VisuGPX - https://www.visugpx.com">
  <metadata>
    <name>Tour du Baou</name>
    <desc><![CDATA[Ride after Taf au Baou de Saint Jeannet]]></desc>
  </metadata>
  <trk>
    <name><![CDATA[RaT]]></name>
    <cmt><![CDATA[Balade au Baou avec Stef, Laurent et Jérémie.
Découverte des coupes depuis le Jas Jausserand. Très sympa...]]></cmt>
    <trkseg>
      <trkpt lat="43.74908" lon="7.1447">
        <ele>424.75494384766</ele>
        <time>2012-07-12T16:27:34Z</time>
      </trkpt>
      <trkpt lat="43.74914" lon="7.14473">
        <ele>424.59979248047</ele>
        <time>2012-07-12T16:27:40Z</time>
      </trkpt>
      <trkpt lat="43.7492" lon="7.14473">
        <ele>424.72988891602</ele>
        <time>2012-07-12T16:27:43Z</time>
      </trkpt>
      <trkpt lat="43.74923" lon="7.14469">
        <ele>425.43887329102</ele>
        <time>2012-07-12T16:27:45Z</time>
      </trkpt>
      <trkpt lat="43.74929" lon="7.14461">
        <ele>426.82968139648</ele>
        <time>2012-07-12T16:27:49Z</time>
      </trkpt>
      <trkpt lat="43.74931" lon="7.14461">
        <ele>426.83486938477</ele>
        <time>2012-07-12T16:27:50Z</time>
      </trkpt>
      <trkpt lat="43.74939" lon="7.14466">
        <ele>426.06762695312</ele>
        <time>2012-07-12T16:27:55Z</time>
      </trkpt>
      <trkpt lat="43.74941" lon="7.14466">
        <ele>426.00762939453</ele>
        <time>2012-07-12T16:27:56Z</time>
      </trkpt>
      <trkpt lat="43.74956" lon="7.14472">
        <ele>427.10748291016</ele>
        <time>2012-07-12T16:28:05Z</time>
      </trkpt>
      <trkpt lat="43.74967" lon="7.14477">
        <ele>427.88330078125</ele>
        <time>2012-07-12T16:28:13Z</time>
      </trkpt>
      <trkpt lat="43.74969" lon="7.14476">
        <ele>428.52941894531</ele>
        <time>2012-07-12T16:28:14Z</time>
      </trkpt>
      <trkpt lat="43.74974" lon="7.1447">
        <ele>430.84106445312</ele>
        <time>2012-07-12T16:28:17Z</time>
      </trkpt>
      <trkpt lat="43.74975" lon="7.14468">
        <ele>431.78176879883</ele>
        <time>2012-07-12T16:28:18Z</time>
      </trkpt>
      <trkpt lat="43.74982" lon="7.14453">
        <ele>436.69128417969</ele>
        <time>2012-07-12T16:28:25Z</time>
      </trkpt>
      <trkpt lat="43.74989" lon="7.14445">
        <ele>440.34423828125</ele>
        <time>2012-07-12T16:28:30Z</time>
      </trkpt>
      <trkpt lat="43.75" lon="7.14438">
        <ele>446.41058349609</ele>
        <time>2012-07-12T16:28:37Z</time>
      </trkpt>
      <trkpt lat="43.75011" lon="7.14441">
        <ele>450.35925292969</ele>
        <time>2012-07-12T16:28:44Z</time>
      </trkpt>
      <trkpt lat="43.75023" lon="7.14446">
        <ele>454.75115966797</ele>
        <time>2012-07-12T16:28:51Z</time>
      </trkpt>
      <trkpt lat="43.75028" lon="7.1444">
        <ele>457.61700439453</ele>
        <time>2012-07-12T16:28:55Z</time>
      </trkpt>
      <trkpt lat="43.75028" lon="7.14432">
        <ele>458.97631835938</ele>
        <time>2012-07-12T16:28:59Z</time>
      </trkpt>
      <trkpt lat="43.75024" lon="7.14425">
        <ele>458.42343139648</ele>
        <time>2012-07-12T16:29:02Z</time>
      </trkpt>
      <trkpt lat="43.75018" lon="7.14415">
        <ele>457.63684082031</ele>
        <time>2012-07-12T16:29:06Z</time>
      </trkpt>
      <trkpt lat="43.75007" lon="7.14412">
        <ele>454.11090087891</ele>
        <time>2012-07-12T16:29:11Z</time>
      </trkpt>
      <trkpt lat="43.74987" lon="7.14412">
        <ele>446.95486450195</ele>
        <time>2012-07-12T16:29:20Z</time>
      </trkpt>
      <trkpt lat="43.74969" lon="7.14404">
        <ele>442.85949707031</ele>
        <time>2012-07-12T16:29:28Z</time>
      </trkpt>
      <trkpt lat="43.74947" lon="7.14392">
        <ele>441.83123779297</ele>
        <time>2012-07-12T16:29:38Z</time>
      </trkpt>
      <trkpt lat="43.74926" lon="7.14377">
        <ele>443.59002685547</ele>
        <time>2012-07-12T16:29:48Z</time>
      </trkpt>
      <trkpt lat="43.74912" lon="7.14371">
        <ele>444.18399047852</ele>
        <time>2012-07-12T16:29:54Z</time>
      </trkpt>
      <trkpt lat="43.74895" lon="7.14361">
        <ele>445.32727050781</ele>
        <time>2012-07-12T16:30:01Z</time>
      </trkpt>
      <trkpt lat="43.74885" lon="7.1436">
        <ele>444.78796386719</ele>
        <time>2012-07-12T16:30:06Z</time>
      </trkpt>
      <trkpt lat="43.74865" lon="7.14359">
        <ele>442.96490478516</ele>
        <time>2012-07-12T16:30:13Z</time>
      </trkpt>
      <trkpt lat="43.74846" lon="7.14358">
        <ele>440.46331787109</ele>
        <time>2012-07-12T16:30:20Z</time>
      </trkpt>
      <trkpt lat="43.74833" lon="7.14352">
        <ele>439.88223266602</ele>
        <time>2012-07-12T16:30:28Z</time>
      </trkpt>
      <trkpt lat="43.7483" lon="7.14338">
        <ele>442.76614379883</ele>
        <time>2012-07-12T16:30:34Z</time>
      </trkpt>
      <trkpt lat="43.74837" lon="7.14337">
        <ele>443.59100341797</ele>
        <time>2012-07-12T16:30:37Z</time>
      </trkpt>
      <trkpt lat="43.74839" lon="7.14337">
        <ele>443.97207641602</ele>
        <time>2012-07-12T16:30:38Z</time>
      </trkpt>
      <trkpt lat="43.7484" lon="7.14336">
        <ele>444.40466308594</ele>
        <time>2012-07-12T16:30:39Z</time>
      </trkpt>
      <trkpt lat="43.74841" lon="7.14329">
        <ele>445.62075805664</ele>
        <time>2012-07-12T16:30:42Z</time>
      </trkpt>
      <trkpt lat="43.7484" lon="7.14327">
        <ele>445.84735107422</ele>
        <time>2012-07-12T16:30:43Z</time>
      </trkpt>
      <trkpt lat="43.74839" lon="7.14325">
        <ele>446.00527954102</ele>
        <time>2012-07-12T16:30:44Z</time>
      </trkpt>
      <trkpt lat="43.74835" lon="7.14319">
        <ele>446.27307128906</ele>
        <time>2012-07-12T16:30:47Z</time>
      </trkpt>
      <trkpt lat="43.74821" lon="7.14309">
        <ele>445.82260131836</ele>
        <time>2012-07-12T16:30:54Z</time>
      </trkpt>
      <trkpt lat="43.74817" lon="7.14305">
        <ele>445.78555297852</ele>
        <time>2012-07-12T16:30:57Z</time>
      </trkpt>
      <trkpt lat="43.74818" lon="7.14303">
        <ele>446.23187255859</ele>
        <time>2012-07-12T16:30:58Z</time>
      </trkpt>
      <trkpt lat="43.74827" lon="7.14293">
        <ele>448.89605712891</ele>
        <time>2012-07-12T16:31:04Z</time>
      </trkpt>
      <trkpt lat="43.74827" lon="7.14291">
        <ele>449.10891723633</ele>
        <time>2012-07-12T16:31:05Z</time>
      </trkpt>
      <trkpt lat="43.74824" lon="7.14286">
        <ele>449.45223999023</ele>
        <time>2012-07-12T16:31:08Z</time>
      </trkpt>
      <trkpt lat="43.74823" lon="7.14285">
        <ele>449.4934387207</ele>
        <time>2012-07-12T16:31:09Z</time>
      </trkpt>
      <trkpt lat="43.74824" lon="7.14286">
        <ele>449.431640625</ele>
        <time>2012-07-12T16:31:12Z</time>
      </trkpt>
      <trkpt lat="43.74826" lon="7.14288">
        <ele>449.4934387207</ele>
        <time>2012-07-12T16:31:14Z</time>
      </trkpt>
      <trkpt lat="43.7483" lon="7.14285">
        <ele>450.45474243164</ele>
        <time>2012-07-12T16:31:16Z</time>
      </trkpt>
      <trkpt lat="43.74835" lon="7.14276">
        <ele>452.71810913086</ele>
        <time>2012-07-12T16:31:21Z</time>
      </trkpt>
      <trkpt lat="43.74839" lon="7.14267">
        <ele>454.92910766602</ele>
        <time>2012-07-12T16:31:26Z</time>
      </trkpt>
      <trkpt lat="43.7484" lon="7.14262">
        <ele>455.69815063477</ele>
        <time>2012-07-12T16:31:28Z</time>
      </trkpt>
      <trkpt lat="43.74841" lon="7.14253">
        <ele>457.14010620117</ele>
        <time>2012-07-12T16:31:33Z</time>
      </trkpt>
      <trkpt lat="43.7484" lon="7.14251">
        <ele>457.20190429688</ele>
        <time>2012-07-12T16:31:34Z</time>
      </trkpt>
      <trkpt lat="43.74836" lon="7.1424">
        <ele>457.37646484375</ele>
        <time>2012-07-12T16:31:41Z</time>
      </trkpt>
      <trkpt lat="43.74835" lon="7.14233">
        <ele>457.64422607422</ele>
        <time>2012-07-12T16:31:45Z</time>
      </trkpt>
      <trkpt lat="43.74836" lon="7.14229">
        <ele>458.06994628906</ele>
        <time>2012-07-12T16:31:47Z</time>
      </trkpt>
      <trkpt lat="43.7484" lon="7.14226">
        <ele>459.1994934082</ele>
        <time>2012-07-12T16:31:51Z</time>
      </trkpt>
      <trkpt lat="43.74843" lon="7.14225">
        <ele>459.82434082031</ele>
        <time>2012-07-12T16:31:53Z</time>
      </trkpt>
      <trkpt lat="43.74855" lon="7.14225">
        <ele>462.50912475586</ele>
        <time>2012-07-12T16:32:01Z</time>
      </trkpt>
      <trkpt lat="43.74865" lon="7.14226">
        <ele>464.32971191406</ele>
        <time>2012-07-12T16:32:09Z</time>
      </trkpt>
      <trkpt lat="43.74873" lon="7.14224">
        <ele>465.66180419922</ele>
        <time>2012-07-12T16:32:16Z</time>
      </trkpt>
      <trkpt lat="43.74881" lon="7.14222">
        <ele>466.90148925781</ele>
        <time>2012-07-12T16:32:22Z</time>
      </trkpt>
      <trkpt lat="43.74889" lon="7.14224">
        <ele>467.82476806641</ele>
        <time>2012-07-12T16:32:28Z</time>
      </trkpt>
      <trkpt lat="43.74896" lon="7.14223">
        <ele>468.68621826172</ele>
        <time>2012-07-12T16:32:34Z</time>
      </trkpt>
      <trkpt lat="43.749" lon="7.1422">
        <ele>469.39965820312</ele>
        <time>2012-07-12T16:32:40Z</time>
      </trkpt>
      <trkpt lat="43.74894" lon="7.14212">
        <ele>469.65716552734</ele>
        <time>2012-07-12T16:32:46Z</time>
      </trkpt>
      <trkpt lat="43.74893" lon="7.1421">
        <ele>469.69836425781</ele>
        <time>2012-07-12T16:32:47Z</time>
      </trkpt>
      <trkpt lat="43.74894" lon="7.14204">
        <ele>470.46051025391</ele>
        <time>2012-07-12T16:32:51Z</time>
      </trkpt>
      <trkpt lat="43.74894" lon="7.14204">
        <ele>470.51202392578</ele>
        <time>2012-07-12T16:32:52Z</time>
      </trkpt>
      <trkpt lat="43.74898" lon="7.14204">
        <ele>470.97036743164</ele>
        <time>2012-07-12T16:32:55Z</time>
      </trkpt>
      <trkpt lat="43.74903" lon="7.14202">
        <ele>471.75830078125</ele>
        <time>2012-07-12T16:32:59Z</time>
      </trkpt>
      <trkpt lat="43.74913" lon="7.14205">
        <ele>472.53076171875</ele>
        <time>2012-07-12T16:33:07Z</time>
      </trkpt>
      <trkpt lat="43.74921" lon="7.14204">
        <ele>473.79327392578</ele>
        <time>2012-07-12T16:33:14Z</time>
      </trkpt>
      <trkpt lat="43.74922" lon="7.14204">
        <ele>474.02645874023</ele>
        <time>2012-07-12T16:33:15Z</time>
      </trkpt>
      <trkpt lat="43.74926" lon="7.14203">
        <ele>474.87222290039</ele>
        <time>2012-07-12T16:33:20Z</time>
      </trkpt>
      <trkpt lat="43.74924" lon="7.142">
        <ele>474.9817199707</ele>
        <time>2012-07-12T16:33:23Z</time>
      </trkpt>
      <trkpt lat="43.7492" lon="7.14198">
        <ele>474.37637329102</ele>
        <time>2012-07-12T16:33:26Z</time>
      </trkpt>
      <trkpt lat="43.74918" lon="7.14195">
        <ele>474.10360717773</ele>
        <time>2012-07-12T16:33:29Z</time>
      </trkpt>
      <trkpt lat="43.74914" lon="7.14191">
        <ele>474.02935791016</ele>
        <time>2012-07-12T16:33:34Z</time>
      </trkpt>
      <trkpt lat="43.74914" lon="7.1419">
        <ele>474.1787109375</ele>
        <time>2012-07-12T16:33:35Z</time>
      </trkpt>
      <trkpt lat="43.74916" lon="7.14188">
        <ele>474.61129760742</ele>
        <time>2012-07-12T16:33:38Z</time>
      </trkpt>
      <trkpt lat="43.74916" lon="7.14189">
        <ele>474.55981445312</ele>
        <time>2012-07-12T16:33:40Z</time>
      </trkpt>
      <trkpt lat="43.74922" lon="7.14188">
        <ele>475.8415222168</ele>
        <time>2012-07-12T16:33:46Z</time>
      </trkpt>
      <trkpt lat="43.74923" lon="7.14189">
        <ele>476.04281616211</ele>
        <time>2012-07-12T16:33:47Z</time>
      </trkpt>
      <trkpt lat="43.74927" lon="7.1419">
        <ele>476.85961914062</ele>
        <time>2012-07-12T16:33:50Z</time>
      </trkpt>
      <trkpt lat="43.74928" lon="7.14188">
        <ele>477.35467529297</ele>
        <time>2012-07-12T16:33:52Z</time>
      </trkpt>
      <trkpt lat="43.74928" lon="7.14181">
        <ele>478.11749267578</ele>
        <time>2012-07-12T16:33:58Z</time>
      </trkpt>
      <trkpt lat="43.74931" lon="7.14178">
        <ele>479.25228881836</ele>
        <time>2012-07-12T16:34:03Z</time>
      </trkpt>
      <trkpt lat="43.74933" lon="7.14178">
        <ele>479.56512451172</ele>
        <time>2012-07-12T16:34:04Z</time>
      </trkpt>
      <trkpt lat="43.74935" lon="7.14179">
        <ele>480.06930541992</ele>
        <time>2012-07-12T16:34:08Z</time>
      </trkpt>
      <trkpt lat="43.74936" lon="7.14175">
        <ele>480.62683105469</ele>
        <time>2012-07-12T16:34:13Z</time>
      </trkpt>
      <trkpt lat="43.74939" lon="7.14169">
        <ele>482.30276489258</ele>
        <time>2012-07-12T16:34:21Z</time>
      </trkpt>
      <trkpt lat="43.74942" lon="7.14162">
        <ele>483.71960449219</ele>
        <time>2012-07-12T16:34:28Z</time>
      </trkpt>
      <trkpt lat="43.74945" lon="7.14159">
        <ele>484.66616821289</ele>
        <time>2012-07-12T16:34:34Z</time>
      </trkpt>
      <trkpt lat="43.74947" lon="7.14155">
        <ele>485.41506958008</ele>
        <time>2012-07-12T16:34:39Z</time>
      </trkpt>
      <trkpt lat="43.74949" lon="7.14154">
        <ele>485.87701416016</ele>
        <time>2012-07-12T16:34:46Z</time>
      </trkpt>
      <trkpt lat="43.74955" lon="7.14154">
        <ele>486.8869934082</ele>
        <time>2012-07-12T16:34:51Z</time>
      </trkpt>
      <trkpt lat="43.74963" lon="7.14153">
        <ele>488.71801757812</ele>
        <time>2012-07-12T16:34:59Z</time>
      </trkpt>
      <trkpt lat="43.74966" lon="7.14153">
        <ele>489.28851318359</ele>
        <time>2012-07-12T16:35:01Z</time>
      </trkpt>
      <trkpt lat="43.74974" lon="7.14149">
        <ele>491.26989746094</ele>
        <time>2012-07-12T16:35:06Z</time>
      </trkpt>
      <trkpt lat="43.74986" lon="7.14149">
        <ele>493.48776245117</ele>
        <time>2012-07-12T16:35:16Z</time>
      </trkpt>
      <trkpt lat="43.74998" lon="7.1415">
        <ele>495.50305175781</ele>
        <time>2012-07-12T16:35:25Z</time>
      </trkpt>
      <trkpt lat="43.75006" lon="7.14151">
        <ele>497.3505859375</ele>
        <time>2012-07-12T16:35:31Z</time>
      </trkpt>
      <trkpt lat="43.75013" lon="7.14151">
        <ele>499.18524169922</ele>
        <time>2012-07-12T16:35:36Z</time>
      </trkpt>
      <trkpt lat="43.75014" lon="7.14152">
        <ele>499.36383056641</ele>
        <time>2012-07-12T16:35:37Z</time>
      </trkpt>
      <trkpt lat="43.75023" lon="7.14153">
        <ele>501.79473876953</ele>
        <time>2012-07-12T16:35:44Z</time>
      </trkpt>
      <trkpt lat="43.75032" lon="7.14159">
        <ele>503.19018554688</ele>
        <time>2012-07-12T16:35:52Z</time>
      </trkpt>
      <trkpt lat="43.75039" lon="7.14165">
        <ele>504.42807006836</ele>
        <time>2012-07-12T16:35:58Z</time>
      </trkpt>
      <trkpt lat="43.75042" lon="7.14165">
        <ele>505.3844909668</ele>
        <time>2012-07-12T16:36:01Z</time>
      </trkpt>
      <trkpt lat="43.75044" lon="7.14164">
        <ele>506.48275756836</ele>
        <time>2012-07-12T16:36:03Z</time>
      </trkpt>
      <trkpt lat="43.75051" lon="7.14166">
        <ele>508.42047119141</ele>
        <time>2012-07-12T16:36:08Z</time>
      </trkpt>
      <trkpt lat="43.75053" lon="7.14167">
        <ele>509.07794189453</ele>
        <time>2012-07-12T16:36:10Z</time>
      </trkpt>
      <trkpt lat="43.75063" lon="7.14169">
        <ele>510.52069091797</ele>
        <time>2012-07-12T16:36:18Z</time>
      </trkpt>
      <trkpt lat="43.75071" lon="7.14172">
        <ele>511.34533691406</ele>
        <time>2012-07-12T16:36:25Z</time>
      </trkpt>
      <trkpt lat="43.75081" lon="7.14174">
        <ele>512.20288085938</ele>
        <time>2012-07-12T16:36:33Z</time>
      </trkpt>
      <trkpt lat="43.75093" lon="7.14177">
        <ele>515.45501708984</ele>
        <time>2012-07-12T16:36:42Z</time>
      </trkpt>
      <trkpt lat="43.75103" lon="7.14181">
        <ele>518.04302978516</ele>
        <time>2012-07-12T16:36:50Z</time>
      </trkpt>
      <trkpt lat="43.75112" lon="7.14182">
        <ele>521.30072021484</ele>
        <time>2012-07-12T16:36:58Z</time>
      </trkpt>
      <trkpt lat="43.75116" lon="7.14182">
        <ele>522.19476318359</ele>
        <time>2012-07-12T16:37:01Z</time>
      </trkpt>
      <trkpt lat="43.75117" lon="7.14182">
        <ele>522.75402832031</ele>
        <time>2012-07-12T16:37:03Z</time>
      </trkpt>
      <trkpt lat="43.75117" lon="7.14182">
        <ele>523.02490234375</ele>
        <time>2012-07-12T16:37:04Z</time>
      </trkpt>
      <trkpt lat="43.75119" lon="7.14183">
        <ele>523.06353759766</ele>
        <time>2012-07-12T16:37:08Z</time>
      </trkpt>
      <trkpt lat="43.75127" lon="7.14188">
        <ele>523.34118652344</ele>
        <time>2012-07-12T16:37:14Z</time>
      </trkpt>
      <trkpt lat="43.75132" lon="7.14189">
        <ele>524.26489257812</ele>
        <time>2012-07-12T16:37:18Z</time>
      </trkpt>
      <trkpt lat="43.75134" lon="7.1419">
        <ele>524.52093505859</ele>
        <time>2012-07-12T16:37:19Z</time>
      </trkpt>
      <trkpt lat="43.75143" lon="7.14194">
        <ele>524.69018554688</ele>
        <time>2012-07-12T16:37:26Z</time>
      </trkpt>
      <trkpt lat="43.75144" lon="7.14195">
        <ele>524.38122558594</ele>
        <time>2012-07-12T16:37:27Z</time>
      </trkpt>
      <trkpt lat="43.75156" lon="7.14203">
        <ele>522.56158447266</ele>
        <time>2012-07-12T16:37:36Z</time>
      </trkpt>
      <trkpt lat="43.75168" lon="7.14211">
        <ele>521.40991210938</ele>
        <time>2012-07-12T16:37:45Z</time>
      </trkpt>
      <trkpt lat="43.75176" lon="7.14215">
        <ele>521.08532714844</ele>
        <time>2012-07-12T16:37:51Z</time>
      </trkpt>
      <trkpt lat="43.75179" lon="7.14215">
        <ele>521.697265625</ele>
        <time>2012-07-12T16:37:53Z</time>
      </trkpt>
      <trkpt lat="43.7519" lon="7.14219">
        <ele>521.26861572266</ele>
        <time>2012-07-12T16:38:01Z</time>
      </trkpt>
      <trkpt lat="43.752" lon="7.14227">
        <ele>520.53118896484</ele>
        <time>2012-07-12T16:38:09Z</time>
      </trkpt>
      <trkpt lat="43.75211" lon="7.14238">
        <ele>520.63415527344</ele>
        <time>2012-07-12T16:38:18Z</time>
      </trkpt>
      <trkpt lat="43.75219" lon="7.14242">
        <ele>521.19836425781</ele>
        <time>2012-07-12T16:38:24Z</time>
      </trkpt>
      <trkpt lat="43.75228" lon="7.14245">
        <ele>524.25140380859</ele>
        <time>2012-07-12T16:38:32Z</time>
      </trkpt>
      <trkpt lat="43.75237" lon="7.14248">
        <ele>528.31005859375</ele>
        <time>2012-07-12T16:38:39Z</time>
      </trkpt>
      <trkpt lat="43.75246" lon="7.1425">
        <ele>532.79705810547</ele>
        <time>2012-07-12T16:38:46Z</time>
      </trkpt>
      <trkpt lat="43.75253" lon="7.1425">
        <ele>535.16809082031</ele>
        <time>2012-07-12T16:38:52Z</time>
      </trkpt>
      <trkpt lat="43.75254" lon="7.14251">
        <ele>534.92559814453</ele>
        <time>2012-07-12T16:38:53Z</time>
      </trkpt>
      <trkpt lat="43.75256" lon="7.14252">
        <ele>535.08135986328</ele>
        <time>2012-07-12T16:38:55Z</time>
      </trkpt>
      <trkpt lat="43.75261" lon="7.14251">
        <ele>536.17608642578</ele>
        <time>2012-07-12T16:38:59Z</time>
      </trkpt>
      <trkpt lat="43.75269" lon="7.14252">
        <ele>536.62469482422</ele>
        <time>2012-07-12T16:39:05Z</time>
      </trkpt>
      <trkpt lat="43.75277" lon="7.14254">
        <ele>536.87658691406</ele>
        <time>2012-07-12T16:39:11Z</time>
      </trkpt>
      <trkpt lat="43.75284" lon="7.14254">
        <ele>537.92108154297</ele>
        <time>2012-07-12T16:39:17Z</time>
      </trkpt>
      <trkpt lat="43.75291" lon="7.14258">
        <ele>537.76171875</ele>
        <time>2012-07-12T16:39:23Z</time>
      </trkpt>
      <trkpt lat="43.75301" lon="7.14264">
        <ele>537.32476806641</ele>
        <time>2012-07-12T16:39:31Z</time>
      </trkpt>
      <trkpt lat="43.7531" lon="7.14274">
        <ele>537.15643310547</ele>
        <time>2012-07-12T16:39:39Z</time>
      </trkpt>
      <trkpt lat="43.7532" lon="7.1428">
        <ele>540.49877929688</ele>
        <time>2012-07-12T16:39:47Z</time>
      </trkpt>
      <trkpt lat="43.7533" lon="7.14285">
        <ele>544.14489746094</ele>
        <time>2012-07-12T16:39:55Z</time>
      </trkpt>
      <trkpt lat="43.75339" lon="7.14285">
        <ele>547.53863525391</ele>
        <time>2012-07-12T16:40:02Z</time>
      </trkpt>
      <trkpt lat="43.75347" lon="7.1429">
        <ele>549.01293945312</ele>
        <time>2012-07-12T16:40:08Z</time>
      </trkpt>
      <trkpt lat="43.75356" lon="7.14293">
        <ele>550.46459960938</ele>
        <time>2012-07-12T16:40:15Z</time>
      </trkpt>
      <trkpt lat="43.75363" lon="7.14296">
        <ele>551.27526855469</ele>
        <time>2012-07-12T16:40:21Z</time>
      </trkpt>
      <trkpt lat="43.7537" lon="7.14298">
        <ele>551.25421142578</ele>
        <time>2012-07-12T16:40:27Z</time>
      </trkpt>
      <trkpt lat="43.75375" lon="7.14302">
        <ele>550.07965087891</ele>
        <time>2012-07-12T16:40:33Z</time>
      </trkpt>
      <trkpt lat="43.75378" lon="7.14302">
        <ele>550.56750488281</ele>
        <time>2012-07-12T16:40:39Z</time>
      </trkpt>
      <trkpt lat="43.75381" lon="7.14303">
        <ele>550.64593505859</ele>
        <time>2012-07-12T16:40:45Z</time>
      </trkpt>
      <trkpt lat="43.75384" lon="7.14304">
        <ele>550.3447265625</ele>
        <time>2012-07-12T16:40:51Z</time>
      </trkpt>
      <trkpt lat="43.75385" lon="7.14302">
        <ele>551.42639160156</ele>
        <time>2012-07-12T16:40:56Z</time>
      </trkpt>
      <trkpt lat="43.75385" lon="7.14303">
        <ele>550.97619628906</ele>
        <time>2012-07-12T16:41:02Z</time>
      </trkpt>
      <trkpt lat="43.75378" lon="7.14297">
        <ele>552.94610595703</ele>
        <time>2012-07-12T16:43:37Z</time>
      </trkpt>
      <trkpt lat="43.75368" lon="7.14289">
        <ele>555.42663574219</ele>
        <time>2012-07-12T16:43:44Z</time>
      </trkpt>
      <trkpt lat="43.7536" lon="7.14281">
        <ele>557.14709472656</ele>
        <time>2012-07-12T16:43:51Z</time>
      </trkpt>
      <trkpt lat="43.75351" lon="7.14272">
        <ele>557.39044189453</ele>
        <time>2012-07-12T16:43:59Z</time>
      </trkpt>
      <trkpt lat="43.75349" lon="7.14264">
        <ele>559.1767578125</ele>
        <time>2012-07-12T16:44:04Z</time>
      </trkpt>
      <trkpt lat="43.7535" lon="7.14263">
        <ele>559.94158935547</ele>
        <time>2012-07-12T16:44:05Z</time>
      </trkpt>
      <trkpt lat="43.75354" lon="7.14261">
        <ele>562.53863525391</ele>
        <time>2012-07-12T16:44:08Z</time>
      </trkpt>
      <trkpt lat="43.75357" lon="7.14261">
        <ele>564.19604492188</ele>
        <time>2012-07-12T16:44:11Z</time>
      </trkpt>
      <trkpt lat="43.75367" lon="7.14264">
        <ele>566.35375976562</ele>
        <time>2012-07-12T16:44:18Z</time>
      </trkpt>
      <trkpt lat="43.75377" lon="7.14267">
        <ele>567.95361328125</ele>
        <time>2012-07-12T16:44:26Z</time>
      </trkpt>
      <trkpt lat="43.75386" lon="7.14268">
        <ele>569.4736328125</ele>
        <time>2012-07-12T16:44:34Z</time>
      </trkpt>
      <trkpt lat="43.75394" lon="7.14272">
        <ele>570.29901123047</ele>
        <time>2012-07-12T16:44:41Z</time>
      </trkpt>
      <trkpt lat="43.75402" lon="7.14279">
        <ele>569.38836669922</ele>
        <time>2012-07-12T16:44:48Z</time>
      </trkpt>
      <trkpt lat="43.7541" lon="7.14283">
        <ele>570.47589111328</ele>
        <time>2012-07-12T16:44:55Z</time>
      </trkpt>
      <trkpt lat="43.7542" lon="7.14287">
        <ele>572.30944824219</ele>
        <time>2012-07-12T16:45:03Z</time>
      </trkpt>
      <trkpt lat="43.75421" lon="7.14288">
        <ele>572.21099853516</ele>
        <time>2012-07-12T16:45:04Z</time>
      </trkpt>
      <trkpt lat="43.75426" lon="7.14291">
        <ele>573.06195068359</ele>
        <time>2012-07-12T16:45:09Z</time>
      </trkpt>
      <trkpt lat="43.75428" lon="7.14292">
        <ele>573.51458740234</ele>
        <time>2012-07-12T16:45:10Z</time>
      </trkpt>
      <trkpt lat="43.75434" lon="7.14296">
        <ele>574.02923583984</ele>
        <time>2012-07-12T16:45:16Z</time>
      </trkpt>
      <trkpt lat="43.75442" lon="7.14302">
        <ele>574.05310058594</ele>
        <time>2012-07-12T16:45:23Z</time>
      </trkpt>
      <trkpt lat="43.75451" lon="7.14308">
        <ele>574.51306152344</ele>
        <time>2012-07-12T16:45:30Z</time>
      </trkpt>
      <trkpt lat="43.75461" lon="7.14317">
        <ele>575.26257324219</ele>
        <time>2012-07-12T16:45:38Z</time>
      </trkpt>
      <trkpt lat="43.75466" lon="7.14318">
        <ele>576.43658447266</ele>
        <time>2012-07-12T16:45:42Z</time>
      </trkpt>
      <trkpt lat="43.75466" lon="7.14317">
        <ele>576.71783447266</ele>
        <time>2012-07-12T16:45:43Z</time>
      </trkpt>
      <trkpt lat="43.7547" lon="7.14319">
        <ele>577.21630859375</ele>
        <time>2012-07-12T16:45:49Z</time>
      </trkpt>
      <trkpt lat="43.75473" lon="7.1432">
        <ele>578.12731933594</ele>
        <time>2012-07-12T16:45:57Z</time>
      </trkpt>
      <trkpt lat="43.75481" lon="7.14322">
        <ele>582.04370117188</ele>
        <time>2012-07-12T16:46:03Z</time>
      </trkpt>
      <trkpt lat="43.7549" lon="7.14326">
        <ele>586.12243652344</ele>
        <time>2012-07-12T16:46:10Z</time>
      </trkpt>
      <trkpt lat="43.755" lon="7.1433">
        <ele>590.74517822266</ele>
        <time>2012-07-12T16:46:18Z</time>
      </trkpt>
      <trkpt lat="43.75502" lon="7.14331">
        <ele>591.26727294922</ele>
        <time>2012-07-12T16:46:22Z</time>
      </trkpt>
      <trkpt lat="43.75507" lon="7.14333">
        <ele>592.01739501953</ele>
        <time>2012-07-12T16:46:29Z</time>
      </trkpt>
      <trkpt lat="43.75513" lon="7.14335">
        <ele>593.26171875</ele>
        <time>2012-07-12T16:46:40Z</time>
      </trkpt>
      <trkpt lat="43.75525" lon="7.14337">
        <ele>595.85668945312</ele>
        <time>2012-07-12T16:46:48Z</time>
      </trkpt>
      <trkpt lat="43.75531" lon="7.14334">
        <ele>598.12902832031</ele>
        <time>2012-07-12T16:46:53Z</time>
      </trkpt>
      <trkpt lat="43.75534" lon="7.14331">
        <ele>598.94067382812</ele>
        <time>2012-07-12T16:46:56Z</time>
      </trkpt>
      <trkpt lat="43.75537" lon="7.14332">
        <ele>598.96722412109</ele>
        <time>2012-07-12T16:46:59Z</time>
      </trkpt>
      <trkpt lat="43.75547" lon="7.14333">
        <ele>599.52001953125</ele>
        <time>2012-07-12T16:47:07Z</time>
      </trkpt>
      <trkpt lat="43.75555" lon="7.14332">
        <ele>600.34259033203</ele>
        <time>2012-07-12T16:47:14Z</time>
      </trkpt>
      <trkpt lat="43.75564" lon="7.14332">
        <ele>604.73388671875</ele>
        <time>2012-07-12T16:47:21Z</time>
      </trkpt>
      <trkpt lat="43.75572" lon="7.14333">
        <ele>608.36907958984</ele>
        <time>2012-07-12T16:47:27Z</time>
      </trkpt>
      <trkpt lat="43.75579" lon="7.14333">
        <ele>612.06585693359</ele>
        <time>2012-07-12T16:47:33Z</time>
      </trkpt>
      <trkpt lat="43.75586" lon="7.14334">
        <ele>614.09167480469</ele>
        <time>2012-07-12T16:47:38Z</time>
      </trkpt>
      <trkpt lat="43.75592" lon="7.14334">
        <ele>614.72875976562</ele>
        <time>2012-07-12T16:47:43Z</time>
      </trkpt>
      <trkpt lat="43.75594" lon="7.14334">
        <ele>614.95239257812</ele>
        <time>2012-07-12T16:47:44Z</time>
      </trkpt>
      <trkpt lat="43.75598" lon="7.14331">
        <ele>615.82000732422</ele>
        <time>2012-07-12T16:47:50Z</time>
      </trkpt>
      <trkpt lat="43.75603" lon="7.14331">
        <ele>616.3818359375</ele>
        <time>2012-07-12T16:47:58Z</time>
      </trkpt>
      <trkpt lat="43.75603" lon="7.14331">
        <ele>616.46704101562</ele>
        <time>2012-07-12T16:47:59Z</time>
      </trkpt>
      <trkpt lat="43.75605" lon="7.1433">
        <ele>616.69372558594</ele>
        <time>2012-07-12T16:48:01Z</time>
      </trkpt>
      <trkpt lat="43.75607" lon="7.1433">
        <ele>616.97875976562</ele>
        <time>2012-07-12T16:48:03Z</time>
      </trkpt>
      <trkpt lat="43.75611" lon="7.14327">
        <ele>617.68560791016</ele>
        <time>2012-07-12T16:48:10Z</time>
      </trkpt>
      <trkpt lat="43.7562" lon="7.14326">
        <ele>619.02966308594</ele>
        <time>2012-07-12T16:48:19Z</time>
      </trkpt>
      <trkpt lat="43.75626" lon="7.14324">
        <ele>620.39520263672</ele>
        <time>2012-07-12T16:48:25Z</time>
      </trkpt>
      <trkpt lat="43.75628" lon="7.14323">
        <ele>620.70306396484</ele>
        <time>2012-07-12T16:48:26Z</time>
      </trkpt>
      <trkpt lat="43.75633" lon="7.14321">
        <ele>622.12518310547</ele>
        <time>2012-07-12T16:48:33Z</time>
      </trkpt>
      <trkpt lat="43.75634" lon="7.14321">
        <ele>622.33422851562</ele>
        <time>2012-07-12T16:48:34Z</time>
      </trkpt>
      <trkpt lat="43.75641" lon="7.14321">
        <ele>623.31555175781</ele>
        <time>2012-07-12T16:48:42Z</time>
      </trkpt>
      <trkpt lat="43.75647" lon="7.14321">
        <ele>624.22772216797</ele>
        <time>2012-07-12T16:48:49Z</time>
      </trkpt>
      <trkpt lat="43.75652" lon="7.14321">
        <ele>624.81689453125</ele>
        <time>2012-07-12T16:48:56Z</time>
      </trkpt>
      <trkpt lat="43.75653" lon="7.1432">
        <ele>625.04437255859</ele>
        <time>2012-07-12T16:48:57Z</time>
      </trkpt>
      <trkpt lat="43.75657" lon="7.1432">
        <ele>625.80017089844</ele>
        <time>2012-07-12T16:49:01Z</time>
      </trkpt>
      <trkpt lat="43.75663" lon="7.14317">
        <ele>627.11590576172</ele>
        <time>2012-07-12T16:49:08Z</time>
      </trkpt>
      <trkpt lat="43.75671" lon="7.14316">
        <ele>628.38696289062</ele>
        <time>2012-07-12T16:49:17Z</time>
      </trkpt>
      <trkpt lat="43.75678" lon="7.14314">
        <ele>629.74755859375</ele>
        <time>2012-07-12T16:49:26Z</time>
      </trkpt>
      <trkpt lat="43.75684" lon="7.14312">
        <ele>630.88073730469</ele>
        <time>2012-07-12T16:49:34Z</time>
      </trkpt>
      <trkpt lat="43.75687" lon="7.14314">
        <ele>631.05554199219</ele>
        <time>2012-07-12T16:49:41Z</time>
      </trkpt>
      <trkpt lat="43.75693" lon="7.14315">
        <ele>631.40283203125</ele>
        <time>2012-07-12T16:49:46Z</time>
      </trkpt>
      <trkpt lat="43.75702" lon="7.14318">
        <ele>632.01843261719</ele>
        <time>2012-07-12T16:49:52Z</time>
      </trkpt>
      <trkpt lat="43.75704" lon="7.14318">
        <ele>632.34362792969</ele>
        <time>2012-07-12T16:49:53Z</time>
      </trkpt>
      <trkpt lat="43.7571" lon="7.14318">
        <ele>633.19403076172</ele>
        <time>2012-07-12T16:49:57Z</time>
      </trkpt>
      <trkpt lat="43.75718" lon="7.14321">
        <ele>633.98120117188</ele>
        <time>2012-07-12T16:50:03Z</time>
      </trkpt>
      <trkpt lat="43.75727" lon="7.14326">
        <ele>634.03503417969</ele>
        <time>2012-07-12T16:50:09Z</time>
      </trkpt>
      <trkpt lat="43.75733" lon="7.14328">
        <ele>634.29809570312</ele>
        <time>2012-07-12T16:50:14Z</time>
      </trkpt>
      <trkpt lat="43.75734" lon="7.14329">
        <ele>634.09826660156</ele>
        <time>2012-07-12T16:50:16Z</time>
      </trkpt>
      <trkpt lat="43.75735" lon="7.1433">
        <ele>634.09942626953</ele>
        <time>2012-07-12T16:50:17Z</time>
      </trkpt>
      <trkpt lat="43.75735" lon="7.14329">
        <ele>634.21600341797</ele>
        <time>2012-07-12T16:50:22Z</time>
      </trkpt>
      <trkpt lat="43.75735" lon="7.14329">
        <ele>634.26232910156</ele>
        <time>2012-07-12T16:50:28Z</time>
      </trkpt>
      <trkpt lat="43.75737" lon="7.1433">
        <ele>634.2509765625</ele>
        <time>2012-07-12T16:52:29Z</time>
      </trkpt>
      <trkpt lat="43.75743" lon="7.14328">
        <ele>635.17852783203</ele>
        <time>2012-07-12T16:53:15Z</time>
      </trkpt>
      <trkpt lat="43.75753" lon="7.14332">
        <ele>635.38403320312</ele>
        <time>2012-07-12T16:53:20Z</time>
      </trkpt>
      <trkpt lat="43.75765" lon="7.14332">
        <ele>635.80883789062</ele>
        <time>2012-07-12T16:53:26Z</time>
      </trkpt>
      <trkpt lat="43.75778" lon="7.1433">
        <ele>636.59741210938</ele>
        <time>2012-07-12T16:53:33Z</time>
      </trkpt>
      <trkpt lat="43.75793" lon="7.14325">
        <ele>639.11596679688</ele>
        <time>2012-07-12T16:53:40Z</time>
      </trkpt>
      <trkpt lat="43.75804" lon="7.14317">
        <ele>642.35797119141</ele>
        <time>2012-07-12T16:53:46Z</time>
      </trkpt>
      <trkpt lat="43.75821" lon="7.14309">
        <ele>644.30279541016</ele>
        <time>2012-07-12T16:53:53Z</time>
      </trkpt>
      <trkpt lat="43.75837" lon="7.14303">
        <ele>646.73779296875</ele>
        <time>2012-07-12T16:54:00Z</time>
      </trkpt>
      <trkpt lat="43.75857" lon="7.14301">
        <ele>649.56256103516</ele>
        <time>2012-07-12T16:54:08Z</time>
      </trkpt>
      <trkpt lat="43.75876" lon="7.14296">
        <ele>654.1240234375</ele>
        <time>2012-07-12T16:54:16Z</time>
      </trkpt>
      <trkpt lat="43.75886" lon="7.14295">
        <ele>655.83319091797</ele>
        <time>2012-07-12T16:54:20Z</time>
      </trkpt>
      <trkpt lat="43.75889" lon="7.14297">
        <ele>655.76428222656</ele>
        <time>2012-07-12T16:54:21Z</time>
      </trkpt>
      <trkpt lat="43.75901" lon="7.14305">
        <ele>655.81365966797</ele>
        <time>2012-07-12T16:54:25Z</time>
      </trkpt>
      <trkpt lat="43.75909" lon="7.14302">
        <ele>657.28094482422</ele>
        <time>2012-07-12T16:54:29Z</time>
      </trkpt>
      <trkpt lat="43.75918" lon="7.14305">
        <ele>658.07916259766</ele>
        <time>2012-07-12T16:54:34Z</time>
      </trkpt>
      <trkpt lat="43.75929" lon="7.1431">
        <ele>658.28558349609</ele>
        <time>2012-07-12T16:54:41Z</time>
      </trkpt>
      <trkpt lat="43.7594" lon="7.14312">
        <ele>658.60656738281</ele>
        <time>2012-07-12T16:54:49Z</time>
      </trkpt>
      <trkpt lat="43.75951" lon="7.1431">
        <ele>659.07177734375</ele>
        <time>2012-07-12T16:54:56Z</time>
      </trkpt>
      <trkpt lat="43.75965" lon="7.14309">
        <ele>659.60565185547</ele>
        <time>2012-07-12T16:55:04Z</time>
      </trkpt>
      <trkpt lat="43.75972" lon="7.14312">
        <ele>659.78350830078</ele>
        <time>2012-07-12T16:55:09Z</time>
      </trkpt>
      <trkpt lat="43.75987" lon="7.14312">
        <ele>659.88653564453</ele>
        <time>2012-07-12T16:55:17Z</time>
      </trkpt>
      <trkpt lat="43.75998" lon="7.14315">
        <ele>659.98034667969</ele>
        <time>2012-07-12T16:55:23Z</time>
      </trkpt>
      <trkpt lat="43.76011" lon="7.14315">
        <ele>660</ele>
        <time>2012-07-12T16:55:30Z</time>
      </trkpt>
      <trkpt lat="43.76027" lon="7.1432">
        <ele>660</ele>
        <time>2012-07-12T16:55:38Z</time>
      </trkpt>
      <trkpt lat="43.76043" lon="7.14331">
        <ele>660</ele>
        <time>2012-07-12T16:55:47Z</time>
      </trkpt>
      <trkpt lat="43.76055" lon="7.1434">
        <ele>659.99340820312</ele>
        <time>2012-07-12T16:55:54Z</time>
      </trkpt>
      <trkpt lat="43.76071" lon="7.14351">
        <ele>660</ele>
        <time>2012-07-12T16:56:03Z</time>
      </trkpt>
      <trkpt lat="43.76082" lon="7.14359">
        <ele>660</ele>
        <time>2012-07-12T16:56:09Z</time>
      </trkpt>
      <trkpt lat="43.76094" lon="7.14369">
        <ele>660</ele>
        <time>2012-07-12T16:56:16Z</time>
      </trkpt>
      <trkpt lat="43.76109" lon="7.14382">
        <ele>660</ele>
        <time>2012-07-12T16:56:25Z</time>
      </trkpt>
      <trkpt lat="43.76126" lon="7.1439">
        <ele>663.51281738281</ele>
        <time>2012-07-12T16:56:34Z</time>
      </trkpt>
      <trkpt lat="43.76139" lon="7.14397">
        <ele>667.19323730469</ele>
        <time>2012-07-12T16:56:40Z</time>
      </trkpt>
      <trkpt lat="43.76151" lon="7.14407">
        <ele>669.537109375</ele>
        <time>2012-07-12T16:56:47Z</time>
      </trkpt>
      <trkpt lat="43.76163" lon="7.14412">
        <ele>671.19647216797</ele>
        <time>2012-07-12T16:56:54Z</time>
      </trkpt>
      <trkpt lat="43.76178" lon="7.14416">
        <ele>673.16363525391</ele>
        <time>2012-07-12T16:57:01Z</time>
      </trkpt>
      <trkpt lat="43.76193" lon="7.14418">
        <ele>674.93981933594</ele>
        <time>2012-07-12T16:57:08Z</time>
      </trkpt>
      <trkpt lat="43.7621" lon="7.1442">
        <ele>676.28857421875</ele>
        <time>2012-07-12T16:57:16Z</time>
      </trkpt>
      <trkpt lat="43.76223" lon="7.14427">
        <ele>677.41668701172</ele>
        <time>2012-07-12T16:57:23Z</time>
      </trkpt>
      <trkpt lat="43.76241" lon="7.14436">
        <ele>678.34020996094</ele>
        <time>2012-07-12T16:57:32Z</time>
      </trkpt>
      <trkpt lat="43.76257" lon="7.14437">
        <ele>678.96508789062</ele>
        <time>2012-07-12T16:57:39Z</time>
      </trkpt>
      <trkpt lat="43.76277" lon="7.1444">
        <ele>679.81475830078</ele>
        <time>2012-07-12T16:57:48Z</time>
      </trkpt>
      <trkpt lat="43.76291" lon="7.14445">
        <ele>680</ele>
        <time>2012-07-12T16:57:54Z</time>
      </trkpt>
      <trkpt lat="43.76307" lon="7.14453">
        <ele>680</ele>
        <time>2012-07-12T16:58:02Z</time>
      </trkpt>
      <trkpt lat="43.7631" lon="7.14454">
        <ele>680</ele>
        <time>2012-07-12T16:58:04Z</time>
      </trkpt>
      <trkpt lat="43.76317" lon="7.14455">
        <ele>680</ele>
        <time>2012-07-12T16:58:07Z</time>
      </trkpt>
      <trkpt lat="43.76335" lon="7.14455">
        <ele>680</ele>
        <time>2012-07-12T16:58:15Z</time>
      </trkpt>
      <trkpt lat="43.76351" lon="7.14452">
        <ele>680</ele>
        <time>2012-07-12T16:58:23Z</time>
      </trkpt>
      <trkpt lat="43.76368" lon="7.14447">
        <ele>680</ele>
        <time>2012-07-12T16:58:32Z</time>
      </trkpt>
      <trkpt lat="43.76382" lon="7.14451">
        <ele>680</ele>
        <time>2012-07-12T16:58:40Z</time>
      </trkpt>
      <trkpt lat="43.76398" lon="7.14452">
        <ele>680</ele>
        <time>2012-07-12T16:58:48Z</time>
      </trkpt>
      <trkpt lat="43.7641" lon="7.1445">
        <ele>680</ele>
        <time>2012-07-12T16:58:54Z</time>
      </trkpt>
      <trkpt lat="43.76423" lon="7.14451">
        <ele>680</ele>
        <time>2012-07-12T16:59:01Z</time>
      </trkpt>
      <trkpt lat="43.76438" lon="7.14459">
        <ele>680</ele>
        <time>2012-07-12T16:59:09Z</time>
      </trkpt>
      <trkpt lat="43.76453" lon="7.14462">
        <ele>681.31170654297</ele>
        <time>2012-07-12T16:59:17Z</time>
      </trkpt>
      <trkpt lat="43.76461" lon="7.14464">
        <ele>682.55108642578</ele>
        <time>2012-07-12T16:59:22Z</time>
      </trkpt>
      <trkpt lat="43.76464" lon="7.14463">
        <ele>683.13433837891</ele>
        <time>2012-07-12T16:59:24Z</time>
      </trkpt>
      <trkpt lat="43.7648" lon="7.14461">
        <ele>685.74108886719</ele>
        <time>2012-07-12T16:59:33Z</time>
      </trkpt>
      <trkpt lat="43.7649" lon="7.14459">
        <ele>687.50616455078</ele>
        <time>2012-07-12T16:59:39Z</time>
      </trkpt>
      <trkpt lat="43.76499" lon="7.14457">
        <ele>689.24389648438</ele>
        <time>2012-07-12T16:59:45Z</time>
      </trkpt>
      <trkpt lat="43.76511" lon="7.14451">
        <ele>690.15856933594</ele>
        <time>2012-07-12T16:59:53Z</time>
      </trkpt>
      <trkpt lat="43.76519" lon="7.14448">
        <ele>691.05200195312</ele>
        <time>2012-07-12T17:00:00Z</time>
      </trkpt>
      <trkpt lat="43.76525" lon="7.14444">
        <ele>691.59783935547</ele>
        <time>2012-07-12T17:00:06Z</time>
      </trkpt>
      <trkpt lat="43.76527" lon="7.14445">
        <ele>691.96026611328</ele>
        <time>2012-07-12T17:00:11Z</time>
      </trkpt>
      <trkpt lat="43.76528" lon="7.14444">
        <ele>692.03167724609</ele>
        <time>2012-07-12T17:00:25Z</time>
      </trkpt>
      <trkpt lat="43.76535" lon="7.14441">
        <ele>693.00146484375</ele>
        <time>2012-07-12T17:01:07Z</time>
      </trkpt>
      <trkpt lat="43.76544" lon="7.14439">
        <ele>694.06506347656</ele>
        <time>2012-07-12T17:01:14Z</time>
      </trkpt>
      <trkpt lat="43.76554" lon="7.1444">
        <ele>695.04693603516</ele>
        <time>2012-07-12T17:01:22Z</time>
      </trkpt>
      <trkpt lat="43.76564" lon="7.1444">
        <ele>696.05889892578</ele>
        <time>2012-07-12T17:01:29Z</time>
      </trkpt>
      <trkpt lat="43.76578" lon="7.1444">
        <ele>697.58154296875</ele>
        <time>2012-07-12T17:01:37Z</time>
      </trkpt>
      <trkpt lat="43.76593" lon="7.14436">
        <ele>700.32983398438</ele>
        <time>2012-07-12T17:01:45Z</time>
      </trkpt>
      <trkpt lat="43.76608" lon="7.14434">
        <ele>703.58380126953</ele>
        <time>2012-07-12T17:01:53Z</time>
      </trkpt>
      <trkpt lat="43.76619" lon="7.14435">
        <ele>705.42150878906</ele>
        <time>2012-07-12T17:01:59Z</time>
      </trkpt>
      <trkpt lat="43.76627" lon="7.14437">
        <ele>706.75701904297</ele>
        <time>2012-07-12T17:02:05Z</time>
      </trkpt>
      <trkpt lat="43.76637" lon="7.14435">
        <ele>708.62127685547</ele>
        <time>2012-07-12T17:02:11Z</time>
      </trkpt>
      <trkpt lat="43.76648" lon="7.14437">
        <ele>710.31896972656</ele>
        <time>2012-07-12T17:02:18Z</time>
      </trkpt>
      <trkpt lat="43.76653" lon="7.14439">
        <ele>711.04681396484</ele>
        <time>2012-07-12T17:02:21Z</time>
      </trkpt>
      <trkpt lat="43.76656" lon="7.14438">
        <ele>711.82104492188</ele>
        <time>2012-07-12T17:02:24Z</time>
      </trkpt>
      <trkpt lat="43.76661" lon="7.14439">
        <ele>712.48876953125</ele>
        <time>2012-07-12T17:02:27Z</time>
      </trkpt>
      <trkpt lat="43.76664" lon="7.14439">
        <ele>713.14794921875</ele>
        <time>2012-07-12T17:02:30Z</time>
      </trkpt>
      <trkpt lat="43.76675" lon="7.14441">
        <ele>714.93402099609</ele>
        <time>2012-07-12T17:02:38Z</time>
      </trkpt>
      <trkpt lat="43.76685" lon="7.14444">
        <ele>716.36383056641</ele>
        <time>2012-07-12T17:02:45Z</time>
      </trkpt>
      <trkpt lat="43.76692" lon="7.14446">
        <ele>717.60064697266</ele>
        <time>2012-07-12T17:02:51Z</time>
      </trkpt>
      <trkpt lat="43.76693" lon="7.14447">
        <ele>717.89660644531</ele>
        <time>2012-07-12T17:02:52Z</time>
      </trkpt>
      <trkpt lat="43.76698" lon="7.14449">
        <ele>718.56018066406</ele>
        <time>2012-07-12T17:02:56Z</time>
      </trkpt>
      <trkpt lat="43.76702" lon="7.1445">
        <ele>718.97418212891</ele>
        <time>2012-07-12T17:02:59Z</time>
      </trkpt>
      <trkpt lat="43.76706" lon="7.1445">
        <ele>719.36761474609</ele>
        <time>2012-07-12T17:03:02Z</time>
      </trkpt>
      <trkpt lat="43.76712" lon="7.14453">
        <ele>720.01574707031</ele>
        <time>2012-07-12T17:03:07Z</time>
      </trkpt>
      <trkpt lat="43.7672" lon="7.14457">
        <ele>720.80139160156</ele>
        <time>2012-07-12T17:03:14Z</time>
      </trkpt>
      <trkpt lat="43.76729" lon="7.14462">
        <ele>722.12677001953</ele>
        <time>2012-07-12T17:03:21Z</time>
      </trkpt>
      <trkpt lat="43.76737" lon="7.14466">
        <ele>723.35205078125</ele>
        <time>2012-07-12T17:03:27Z</time>
      </trkpt>
      <trkpt lat="43.76743" lon="7.1447">
        <ele>724.109375</ele>
        <time>2012-07-12T17:03:33Z</time>
      </trkpt>
      <trkpt lat="43.76747" lon="7.14468">
        <ele>724.84399414062</ele>
        <time>2012-07-12T17:03:37Z</time>
      </trkpt>
      <trkpt lat="43.7675" lon="7.14466">
        <ele>725.50628662109</ele>
        <time>2012-07-12T17:03:39Z</time>
      </trkpt>
      <trkpt lat="43.76757" lon="7.1446">
        <ele>727.41510009766</ele>
        <time>2012-07-12T17:03:45Z</time>
      </trkpt>
      <trkpt lat="43.76762" lon="7.14463">
        <ele>728.36419677734</ele>
        <time>2012-07-12T17:03:50Z</time>
      </trkpt>
      <trkpt lat="43.76763" lon="7.14464">
        <ele>728.49548339844</ele>
        <time>2012-07-12T17:03:51Z</time>
      </trkpt>
      <trkpt lat="43.76772" lon="7.14469">
        <ele>729.99926757812</ele>
        <time>2012-07-12T17:03:58Z</time>
      </trkpt>
      <trkpt lat="43.76779" lon="7.14472">
        <ele>731.15087890625</ele>
        <time>2012-07-12T17:04:04Z</time>
      </trkpt>
      <trkpt lat="43.76791" lon="7.14476">
        <ele>732.46923828125</ele>
        <time>2012-07-12T17:04:13Z</time>
      </trkpt>
      <trkpt lat="43.76803" lon="7.14478">
        <ele>733.74639892578</ele>
        <time>2012-07-12T17:04:22Z</time>
      </trkpt>
      <trkpt lat="43.76811" lon="7.14478">
        <ele>734.42315673828</ele>
        <time>2012-07-12T17:04:29Z</time>
      </trkpt>
      <trkpt lat="43.7682" lon="7.14479">
        <ele>735.13659667969</ele>
        <time>2012-07-12T17:04:36Z</time>
      </trkpt>
      <trkpt lat="43.7683" lon="7.14481">
        <ele>736.02520751953</ele>
        <time>2012-07-12T17:04:44Z</time>
      </trkpt>
      <trkpt lat="43.76837" lon="7.14483">
        <ele>736.77795410156</ele>
        <time>2012-07-12T17:04:49Z</time>
      </trkpt>
      <trkpt lat="43.76849" lon="7.14482">
        <ele>738.16198730469</ele>
        <time>2012-07-12T17:04:57Z</time>
      </trkpt>
      <trkpt lat="43.76856" lon="7.14486">
        <ele>738.97723388672</ele>
        <time>2012-07-12T17:05:04Z</time>
      </trkpt>
      <trkpt lat="43.76867" lon="7.14488">
        <ele>740.50793457031</ele>
        <time>2012-07-12T17:05:11Z</time>
      </trkpt>
      <trkpt lat="43.76874" lon="7.14487">
        <ele>741.61431884766</ele>
        <time>2012-07-12T17:05:16Z</time>
      </trkpt>
      <trkpt lat="43.76884" lon="7.14487">
        <ele>743.23913574219</ele>
        <time>2012-07-12T17:05:22Z</time>
      </trkpt>
      <trkpt lat="43.76899" lon="7.14487">
        <ele>747.62432861328</ele>
        <time>2012-07-12T17:05:30Z</time>
      </trkpt>
      <trkpt lat="43.76909" lon="7.14485">
        <ele>751.11669921875</ele>
        <time>2012-07-12T17:05:36Z</time>
      </trkpt>
      <trkpt lat="43.76925" lon="7.14482">
        <ele>754.34613037109</ele>
        <time>2012-07-12T17:05:44Z</time>
      </trkpt>
      <trkpt lat="43.76939" lon="7.14479">
        <ele>755.10485839844</ele>
        <time>2012-07-12T17:05:52Z</time>
      </trkpt>
      <trkpt lat="43.76951" lon="7.14476">
        <ele>755.4755859375</ele>
        <time>2012-07-12T17:05:59Z</time>
      </trkpt>
      <trkpt lat="43.76956" lon="7.14474">
        <ele>755.55456542969</ele>
        <time>2012-07-12T17:06:04Z</time>
      </trkpt>
      <trkpt lat="43.76956" lon="7.14474">
        <ele>755.51678466797</ele>
        <time>2012-07-12T17:06:05Z</time>
      </trkpt>
      <trkpt lat="43.76956" lon="7.14479">
        <ele>755.87725830078</ele>
        <time>2012-07-12T17:06:16Z</time>
      </trkpt>
      <trkpt lat="43.76957" lon="7.14479">
        <ele>755.91845703125</ele>
        <time>2012-07-12T17:06:17Z</time>
      </trkpt>
      <trkpt lat="43.76961" lon="7.14479">
        <ele>756.09356689453</ele>
        <time>2012-07-12T17:06:20Z</time>
      </trkpt>
      <trkpt lat="43.76968" lon="7.14484">
        <ele>756.6806640625</ele>
        <time>2012-07-12T17:06:25Z</time>
      </trkpt>
      <trkpt lat="43.76968" lon="7.14486">
        <ele>756.84204101562</ele>
        <time>2012-07-12T17:06:26Z</time>
      </trkpt>
      <trkpt lat="43.76962" lon="7.14494">
        <ele>757.20935058594</ele>
        <time>2012-07-12T17:06:31Z</time>
      </trkpt>
      <trkpt lat="43.76957" lon="7.14502">
        <ele>757.50128173828</ele>
        <time>2012-07-12T17:06:36Z</time>
      </trkpt>
      <trkpt lat="43.76954" lon="7.14503">
        <ele>757.44976806641</ele>
        <time>2012-07-12T17:06:38Z</time>
      </trkpt>
      <trkpt lat="43.76944" lon="7.14508">
        <ele>757.24084472656</ele>
        <time>2012-07-12T17:06:46Z</time>
      </trkpt>
      <trkpt lat="43.76937" lon="7.14513">
        <ele>757.06256103516</ele>
        <time>2012-07-12T17:06:52Z</time>
      </trkpt>
      <trkpt lat="43.76935" lon="7.14516">
        <ele>757.0625</ele>
        <time>2012-07-12T17:06:54Z</time>
      </trkpt>
      <trkpt lat="43.76931" lon="7.14522">
        <ele>757.22283935547</ele>
        <time>2012-07-12T17:06:57Z</time>
      </trkpt>
      <trkpt lat="43.76929" lon="7.14523">
        <ele>757.20593261719</ele>
        <time>2012-07-12T17:06:59Z</time>
      </trkpt>
      <trkpt lat="43.76929" lon="7.14523">
        <ele>757.20855712891</ele>
        <time>2012-07-12T17:07:01Z</time>
      </trkpt>
      <trkpt lat="43.76924" lon="7.14527">
        <ele>757.18981933594</ele>
        <time>2012-07-12T17:07:28Z</time>
      </trkpt>
      <trkpt lat="43.76925" lon="7.14528">
        <ele>757.28326416016</ele>
        <time>2012-07-12T17:07:29Z</time>
      </trkpt>
      <trkpt lat="43.76925" lon="7.14532">
        <ele>757.43090820312</ele>
        <time>2012-07-12T17:07:33Z</time>
      </trkpt>
      <trkpt lat="43.76925" lon="7.14536">
        <ele>757.59393310547</ele>
        <time>2012-07-12T17:07:40Z</time>
      </trkpt>
      <trkpt lat="43.76928" lon="7.14536">
        <ele>757.69696044922</ele>
        <time>2012-07-12T17:07:48Z</time>
      </trkpt>
      <trkpt lat="43.76931" lon="7.14539">
        <ele>757.91326904297</ele>
        <time>2012-07-12T17:07:54Z</time>
      </trkpt>
      <trkpt lat="43.76933" lon="7.14543">
        <ele>758.10552978516</ele>
        <time>2012-07-12T17:08:01Z</time>
      </trkpt>
      <trkpt lat="43.76935" lon="7.14546">
        <ele>758.33728027344</ele>
        <time>2012-07-12T17:08:09Z</time>
      </trkpt>
      <trkpt lat="43.7694" lon="7.14547">
        <ele>758.51062011719</ele>
        <time>2012-07-12T17:08:14Z</time>
      </trkpt>
      <trkpt lat="43.76944" lon="7.14551">
        <ele>758.81616210938</ele>
        <time>2012-07-12T17:08:20Z</time>
      </trkpt>
      <trkpt lat="43.76944" lon="7.14551">
        <ele>758.85052490234</ele>
        <time>2012-07-12T17:08:21Z</time>
      </trkpt>
      <trkpt lat="43.76945" lon="7.14557">
        <ele>759.17047119141</ele>
        <time>2012-07-12T17:08:29Z</time>
      </trkpt>
      <trkpt lat="43.76943" lon="7.14562">
        <ele>759.61303710938</ele>
        <time>2012-07-12T17:08:34Z</time>
      </trkpt>
      <trkpt lat="43.76942" lon="7.14563">
        <ele>759.71832275391</ele>
        <time>2012-07-12T17:08:36Z</time>
      </trkpt>
      <trkpt lat="43.76943" lon="7.14565">
        <ele>760.00152587891</ele>
        <time>2012-07-12T17:08:42Z</time>
      </trkpt>
      <trkpt lat="43.76942" lon="7.14568">
        <ele>760.33111572266</ele>
        <time>2012-07-12T17:08:48Z</time>
      </trkpt>
      <trkpt lat="43.76937" lon="7.14571">
        <ele>760.53991699219</ele>
        <time>2012-07-12T17:08:56Z</time>
      </trkpt>
      <trkpt lat="43.76931" lon="7.14573">
        <ele>760.67425537109</ele>
        <time>2012-07-12T17:09:23Z</time>
      </trkpt>
      <trkpt lat="43.76919" lon="7.1458">
        <ele>761.49035644531</ele>
        <time>2012-07-12T17:09:31Z</time>
      </trkpt>
      <trkpt lat="43.76908" lon="7.14589">
        <ele>762.81085205078</ele>
        <time>2012-07-12T17:09:39Z</time>
      </trkpt>
      <trkpt lat="43.76899" lon="7.14599">
        <ele>764.92755126953</ele>
        <time>2012-07-12T17:09:47Z</time>
      </trkpt>
      <trkpt lat="43.76895" lon="7.14603">
        <ele>765.55181884766</ele>
        <time>2012-07-12T17:09:50Z</time>
      </trkpt>
      <trkpt lat="43.76894" lon="7.14605">
        <ele>765.98297119141</ele>
        <time>2012-07-12T17:09:52Z</time>
      </trkpt>
      <trkpt lat="43.76888" lon="7.14612">
        <ele>766.96496582031</ele>
        <time>2012-07-12T17:09:58Z</time>
      </trkpt>
      <trkpt lat="43.76879" lon="7.14619">
        <ele>766.74182128906</ele>
        <time>2012-07-12T17:10:06Z</time>
      </trkpt>
      <trkpt lat="43.76871" lon="7.14628">
        <ele>766.70751953125</ele>
        <time>2012-07-12T17:10:13Z</time>
      </trkpt>
      <trkpt lat="43.76866" lon="7.14634">
        <ele>766.88775634766</ele>
        <time>2012-07-12T17:10:18Z</time>
      </trkpt>
      <trkpt lat="43.76862" lon="7.14641">
        <ele>767.82800292969</ele>
        <time>2012-07-12T17:10:24Z</time>
      </trkpt>
      <trkpt lat="43.7686" lon="7.14642">
        <ele>767.82208251953</ele>
        <time>2012-07-12T17:10:25Z</time>
      </trkpt>
      <trkpt lat="43.76855" lon="7.14648">
        <ele>769.25866699219</ele>
        <time>2012-07-12T17:10:30Z</time>
      </trkpt>
      <trkpt lat="43.76847" lon="7.14656">
        <ele>771.27410888672</ele>
        <time>2012-07-12T17:10:38Z</time>
      </trkpt>
      <trkpt lat="43.76839" lon="7.14664">
        <ele>773.34149169922</ele>
        <time>2012-07-12T17:10:45Z</time>
      </trkpt>
      <trkpt lat="43.76833" lon="7.14675">
        <ele>776.90093994141</ele>
        <time>2012-07-12T17:10:53Z</time>
      </trkpt>
      <trkpt lat="43.76822" lon="7.14688">
        <ele>782.02972412109</ele>
        <time>2012-07-12T17:11:03Z</time>
      </trkpt>
      <trkpt lat="43.76812" lon="7.14689">
        <ele>783.33489990234</ele>
        <time>2012-07-12T17:11:10Z</time>
      </trkpt>
      <trkpt lat="43.76801" lon="7.14684">
        <ele>782.54846191406</ele>
        <time>2012-07-12T17:11:18Z</time>
      </trkpt>
      <trkpt lat="43.768" lon="7.14684">
        <ele>782.82775878906</ele>
        <time>2012-07-12T17:11:19Z</time>
      </trkpt>
      <trkpt lat="43.76795" lon="7.14683">
        <ele>783.08551025391</ele>
        <time>2012-07-12T17:11:23Z</time>
      </trkpt>
      <trkpt lat="43.76786" lon="7.1468">
        <ele>782.88037109375</ele>
        <time>2012-07-12T17:11:29Z</time>
      </trkpt>
      <trkpt lat="43.76777" lon="7.14679">
        <ele>783.5966796875</ele>
        <time>2012-07-12T17:11:36Z</time>
      </trkpt>
      <trkpt lat="43.76769" lon="7.14677">
        <ele>783.09582519531</ele>
        <time>2012-07-12T17:11:42Z</time>
      </trkpt>
      <trkpt lat="43.76756" lon="7.14676">
        <ele>783.07635498047</ele>
        <time>2012-07-12T17:11:50Z</time>
      </trkpt>
      <trkpt lat="43.7674" lon="7.14675">
        <ele>783.13635253906</ele>
        <time>2012-07-12T17:12:00Z</time>
      </trkpt>
      <trkpt lat="43.76729" lon="7.14677">
        <ele>783.66851806641</ele>
        <time>2012-07-12T17:12:08Z</time>
      </trkpt>
      <trkpt lat="43.76715" lon="7.14683">
        <ele>785.88293457031</ele>
        <time>2012-07-12T17:12:18Z</time>
      </trkpt>
      <trkpt lat="43.76713" lon="7.14684">
        <ele>786.294921875</ele>
        <time>2012-07-12T17:12:20Z</time>
      </trkpt>
      <trkpt lat="43.76708" lon="7.14685">
        <ele>786.70690917969</ele>
        <time>2012-07-12T17:12:24Z</time>
      </trkpt>
      <trkpt lat="43.76697" lon="7.14687">
        <ele>787.32489013672</ele>
        <time>2012-07-12T17:12:31Z</time>
      </trkpt>
      <trkpt lat="43.76682" lon="7.14691">
        <ele>788.73254394531</ele>
        <time>2012-07-12T17:12:41Z</time>
      </trkpt>
      <trkpt lat="43.76674" lon="7.14696">
        <ele>790.40338134766</ele>
        <time>2012-07-12T17:12:47Z</time>
      </trkpt>
      <trkpt lat="43.76668" lon="7.14701">
        <ele>791.34063720703</ele>
        <time>2012-07-12T17:12:52Z</time>
      </trkpt>
      <trkpt lat="43.76668" lon="7.14701">
        <ele>791.30975341797</ele>
        <time>2012-07-12T17:12:53Z</time>
      </trkpt>
      <trkpt lat="43.76667" lon="7.14701">
        <ele>791.39215087891</ele>
        <time>2012-07-12T17:12:54Z</time>
      </trkpt>
      <trkpt lat="43.76662" lon="7.14703">
        <ele>791.47961425781</ele>
        <time>2012-07-12T17:12:58Z</time>
      </trkpt>
      <trkpt lat="43.76659" lon="7.14703">
        <ele>791.28045654297</ele>
        <time>2012-07-12T17:13:02Z</time>
      </trkpt>
      <trkpt lat="43.76662" lon="7.14704">
        <ele>791.68902587891</ele>
        <time>2012-07-12T17:13:15Z</time>
      </trkpt>
      <trkpt lat="43.76661" lon="7.14705">
        <ele>791.92932128906</ele>
        <time>2012-07-12T17:13:22Z</time>
      </trkpt>
      <trkpt lat="43.76654" lon="7.14709">
        <ele>792.17993164062</ele>
        <time>2012-07-12T17:13:28Z</time>
      </trkpt>
      <trkpt lat="43.76647" lon="7.14716">
        <ele>793.19616699219</ele>
        <time>2012-07-12T17:13:34Z</time>
      </trkpt>
      <trkpt lat="43.76637" lon="7.14725">
        <ele>794.57025146484</ele>
        <time>2012-07-12T17:13:42Z</time>
      </trkpt>
      <trkpt lat="43.76633" lon="7.14728">
        <ele>795.18249511719</ele>
        <time>2012-07-12T17:13:45Z</time>
      </trkpt>
      <trkpt lat="43.7663" lon="7.1473">
        <ele>795.05706787109</ele>
        <time>2012-07-12T17:13:47Z</time>
      </trkpt>
      <trkpt lat="43.76616" lon="7.14739">
        <ele>795.26391601562</ele>
        <time>2012-07-12T17:13:55Z</time>
      </trkpt>
      <trkpt lat="43.76614" lon="7.14744">
        <ele>796.17218017578</ele>
        <time>2012-07-12T17:13:57Z</time>
      </trkpt>
      <trkpt lat="43.76611" lon="7.14748">
        <ele>796.40014648438</ele>
        <time>2012-07-12T17:13:59Z</time>
      </trkpt>
      <trkpt lat="43.76606" lon="7.14753">
        <ele>798.24035644531</ele>
        <time>2012-07-12T17:14:02Z</time>
      </trkpt>
      <trkpt lat="43.76603" lon="7.14756">
        <ele>799.60095214844</ele>
        <time>2012-07-12T17:14:04Z</time>
      </trkpt>
      <trkpt lat="43.76587" lon="7.14765">
        <ele>803.14263916016</ele>
        <time>2012-07-12T17:14:12Z</time>
      </trkpt>
      <trkpt lat="43.76572" lon="7.14765">
        <ele>801.44274902344</ele>
        <time>2012-07-12T17:14:16Z</time>
      </trkpt>
      <trkpt lat="43.76561" lon="7.14765">
        <ele>799.99853515625</ele>
        <time>2012-07-12T17:14:21Z</time>
      </trkpt>
      <trkpt lat="43.76546" lon="7.14772">
        <ele>800.26916503906</ele>
        <time>2012-07-12T17:14:28Z</time>
      </trkpt>
      <trkpt lat="43.76546" lon="7.14772">
        <ele>800.23944091797</ele>
        <time>2012-07-12T17:14:31Z</time>
      </trkpt>
      <trkpt lat="43.76542" lon="7.14775">
        <ele>800.58563232422</ele>
        <time>2012-07-12T17:14:37Z</time>
      </trkpt>
      <trkpt lat="43.76534" lon="7.14783">
        <ele>801.71130371094</ele>
        <time>2012-07-12T17:14:43Z</time>
      </trkpt>
      <trkpt lat="43.76523" lon="7.14792">
        <ele>801.99243164062</ele>
        <time>2012-07-12T17:14:49Z</time>
      </trkpt>
      <trkpt lat="43.76516" lon="7.14799">
        <ele>801.96185302734</ele>
        <time>2012-07-12T17:14:54Z</time>
      </trkpt>
      <trkpt lat="43.76504" lon="7.14808">
        <ele>801.99792480469</ele>
        <time>2012-07-12T17:15:01Z</time>
      </trkpt>
      <trkpt lat="43.76492" lon="7.1482">
        <ele>806.15002441406</ele>
        <time>2012-07-12T17:15:07Z</time>
      </trkpt>
      <trkpt lat="43.76482" lon="7.1483">
        <ele>809.28509521484</ele>
        <time>2012-07-12T17:15:13Z</time>
      </trkpt>
      <trkpt lat="43.76469" lon="7.14835">
        <ele>810.23675537109</ele>
        <time>2012-07-12T17:15:19Z</time>
      </trkpt>
      <trkpt lat="43.76461" lon="7.14845">
        <ele>813.23742675781</ele>
        <time>2012-07-12T17:15:24Z</time>
      </trkpt>
      <trkpt lat="43.76453" lon="7.14853">
        <ele>815.16009521484</ele>
        <time>2012-07-12T17:15:29Z</time>
      </trkpt>
      <trkpt lat="43.76452" lon="7.14856">
        <ele>815.98736572266</ele>
        <time>2012-07-12T17:15:30Z</time>
      </trkpt>
      <trkpt lat="43.76443" lon="7.14863">
        <ele>817.18646240234</ele>
        <time>2012-07-12T17:15:35Z</time>
      </trkpt>
      <trkpt lat="43.76431" lon="7.14877">
        <ele>818.64019775391</ele>
        <time>2012-07-12T17:15:42Z</time>
      </trkpt>
      <trkpt lat="43.76421" lon="7.14883">
        <ele>819</ele>
        <time>2012-07-12T17:15:46Z</time>
      </trkpt>
      <trkpt lat="43.76413" lon="7.14889">
        <ele>819.91949462891</ele>
        <time>2012-07-12T17:15:50Z</time>
      </trkpt>
      <trkpt lat="43.76411" lon="7.14889">
        <ele>819.98260498047</ele>
        <time>2012-07-12T17:15:51Z</time>
      </trkpt>
      <trkpt lat="43.76398" lon="7.14895">
        <ele>821.37365722656</ele>
        <time>2012-07-12T17:15:57Z</time>
      </trkpt>
      <trkpt lat="43.76395" lon="7.14896">
        <ele>821.5693359375</ele>
        <time>2012-07-12T17:16:02Z</time>
      </trkpt>
      <trkpt lat="43.76397" lon="7.14896">
        <ele>821.52813720703</ele>
        <time>2012-07-12T17:16:21Z</time>
      </trkpt>
      <trkpt lat="43.76395" lon="7.14894">
        <ele>821.11614990234</ele>
        <time>2012-07-12T17:17:35Z</time>
      </trkpt>
      <trkpt lat="43.76396" lon="7.14895">
        <ele>821.23974609375</ele>
        <time>2012-07-12T17:17:43Z</time>
      </trkpt>
      <trkpt lat="43.76398" lon="7.14896">
        <ele>821.44573974609</ele>
        <time>2012-07-12T17:17:49Z</time>
      </trkpt>
      <trkpt lat="43.76398" lon="7.1489">
        <ele>820.24072265625</ele>
        <time>2012-07-12T17:18:06Z</time>
      </trkpt>
      <trkpt lat="43.76399" lon="7.14889">
        <ele>820.03466796875</ele>
        <time>2012-07-12T17:18:11Z</time>
      </trkpt>
      <trkpt lat="43.76399" lon="7.14893">
        <ele>820.82775878906</ele>
        <time>2012-07-12T17:18:35Z</time>
      </trkpt>
      <trkpt lat="43.76398" lon="7.14894">
        <ele>821.10583496094</ele>
        <time>2012-07-12T17:18:40Z</time>
      </trkpt>
      <trkpt lat="43.76398" lon="7.14895">
        <ele>821.26037597656</ele>
        <time>2012-07-12T17:18:52Z</time>
      </trkpt>
      <trkpt lat="43.76396" lon="7.14895">
        <ele>821.30157470703</ele>
        <time>2012-07-12T17:19:06Z</time>
      </trkpt>
      <trkpt lat="43.76395" lon="7.14895">
        <ele>821.40454101562</ele>
        <time>2012-07-12T17:19:37Z</time>
      </trkpt>
      <trkpt lat="43.76387" lon="7.14896">
        <ele>821.38757324219</ele>
        <time>2012-07-12T17:20:18Z</time>
      </trkpt>
      <trkpt lat="43.7638" lon="7.149">
        <ele>821.95758056641</ele>
        <time>2012-07-12T17:20:22Z</time>
      </trkpt>
      <trkpt lat="43.76368" lon="7.14908">
        <ele>823.28887939453</ele>
        <time>2012-07-12T17:20:28Z</time>
      </trkpt>
      <trkpt lat="43.76351" lon="7.14911">
        <ele>823.92492675781</ele>
        <time>2012-07-12T17:20:34Z</time>
      </trkpt>
      <trkpt lat="43.76328" lon="7.14918">
        <ele>825.95220947266</ele>
        <time>2012-07-12T17:20:41Z</time>
      </trkpt>
      <trkpt lat="43.76315" lon="7.14925">
        <ele>825.69128417969</ele>
        <time>2012-07-12T17:20:46Z</time>
      </trkpt>
      <trkpt lat="43.76313" lon="7.14924">
        <ele>825.73425292969</ele>
        <time>2012-07-12T17:20:47Z</time>
      </trkpt>
      <trkpt lat="43.76306" lon="7.14917">
        <ele>825.97113037109</ele>
        <time>2012-07-12T17:20:51Z</time>
      </trkpt>
      <trkpt lat="43.763" lon="7.1492">
        <ele>825.4951171875</ele>
        <time>2012-07-12T17:20:54Z</time>
      </trkpt>
      <trkpt lat="43.76289" lon="7.1492">
        <ele>824.79016113281</ele>
        <time>2012-07-12T17:20:58Z</time>
      </trkpt>
      <trkpt lat="43.76287" lon="7.1492">
        <ele>824.60424804688</ele>
        <time>2012-07-12T17:20:59Z</time>
      </trkpt>
      <trkpt lat="43.76276" lon="7.14921">
        <ele>824.22802734375</ele>
        <time>2012-07-12T17:21:04Z</time>
      </trkpt>
      <trkpt lat="43.76265" lon="7.14925">
        <ele>826.419921875</ele>
        <time>2012-07-12T17:21:11Z</time>
      </trkpt>
      <trkpt lat="43.76255" lon="7.14927">
        <ele>828.59777832031</ele>
        <time>2012-07-12T17:21:18Z</time>
      </trkpt>
      <trkpt lat="43.76252" lon="7.14928">
        <ele>829.21801757812</ele>
        <time>2012-07-12T17:21:21Z</time>
      </trkpt>
      <trkpt lat="43.76252" lon="7.14928">
        <ele>829.1669921875</ele>
        <time>2012-07-12T17:21:23Z</time>
      </trkpt>
      <trkpt lat="43.76247" lon="7.1493">
        <ele>829.88916015625</ele>
        <time>2012-07-12T17:21:30Z</time>
      </trkpt>
      <trkpt lat="43.76243" lon="7.1493">
        <ele>829.95330810547</ele>
        <time>2012-07-12T17:21:36Z</time>
      </trkpt>
      <trkpt lat="43.76233" lon="7.14927">
        <ele>829.66094970703</ele>
        <time>2012-07-12T17:21:47Z</time>
      </trkpt>
      <trkpt lat="43.76231" lon="7.14927">
        <ele>829.58935546875</ele>
        <time>2012-07-12T17:21:50Z</time>
      </trkpt>
      <trkpt lat="43.76228" lon="7.14928">
        <ele>829.90270996094</ele>
        <time>2012-07-12T17:21:54Z</time>
      </trkpt>
      <trkpt lat="43.76228" lon="7.14928">
        <ele>829.82556152344</ele>
        <time>2012-07-12T17:22:01Z</time>
      </trkpt>
      <trkpt lat="43.76222" lon="7.14928">
        <ele>829.85894775391</ele>
        <time>2012-07-12T17:22:05Z</time>
      </trkpt>
      <trkpt lat="43.76215" lon="7.14925">
        <ele>831.02862548828</ele>
        <time>2012-07-12T17:22:11Z</time>
      </trkpt>
      <trkpt lat="43.76216" lon="7.14925">
        <ele>830.76995849609</ele>
        <time>2012-07-12T17:22:18Z</time>
      </trkpt>
      <trkpt lat="43.76215" lon="7.14925">
        <ele>830.9951171875</ele>
        <time>2012-07-12T17:22:26Z</time>
      </trkpt>
      <trkpt lat="43.7621" lon="7.14921">
        <ele>831.44696044922</ele>
        <time>2012-07-12T17:22:31Z</time>
      </trkpt>
      <trkpt lat="43.76202" lon="7.14914">
        <ele>831.66961669922</ele>
        <time>2012-07-12T17:22:37Z</time>
      </trkpt>
      <trkpt lat="43.76194" lon="7.14904">
        <ele>828.46502685547</ele>
        <time>2012-07-12T17:22:44Z</time>
      </trkpt>
      <trkpt lat="43.76192" lon="7.14894">
        <ele>823.56707763672</ele>
        <time>2012-07-12T17:22:49Z</time>
      </trkpt>
      <trkpt lat="43.76187" lon="7.14887">
        <ele>821.29998779297</ele>
        <time>2012-07-12T17:22:54Z</time>
      </trkpt>
      <trkpt lat="43.76178" lon="7.14881">
        <ele>821.25775146484</ele>
        <time>2012-07-12T17:22:59Z</time>
      </trkpt>
      <trkpt lat="43.76175" lon="7.14882">
        <ele>821.92248535156</ele>
        <time>2012-07-12T17:23:00Z</time>
      </trkpt>
      <trkpt lat="43.76168" lon="7.14884">
        <ele>823.95574951172</ele>
        <time>2012-07-12T17:23:02Z</time>
      </trkpt>
      <trkpt lat="43.76146" lon="7.14887">
        <ele>824.57269287109</ele>
        <time>2012-07-12T17:23:07Z</time>
      </trkpt>
      <trkpt lat="43.76124" lon="7.14889">
        <ele>825.20904541016</ele>
        <time>2012-07-12T17:23:13Z</time>
      </trkpt>
      <trkpt lat="43.76111" lon="7.14888">
        <ele>824.88391113281</ele>
        <time>2012-07-12T17:23:18Z</time>
      </trkpt>
      <trkpt lat="43.76099" lon="7.14886">
        <ele>824.78851318359</ele>
        <time>2012-07-12T17:23:23Z</time>
      </trkpt>
      <trkpt lat="43.76093" lon="7.14883">
        <ele>824.56317138672</ele>
        <time>2012-07-12T17:23:27Z</time>
      </trkpt>
      <trkpt lat="43.76091" lon="7.14884">
        <ele>824.71392822266</ele>
        <time>2012-07-12T17:23:28Z</time>
      </trkpt>
      <trkpt lat="43.76089" lon="7.14886">
        <ele>825.11224365234</ele>
        <time>2012-07-12T17:23:33Z</time>
      </trkpt>
      <trkpt lat="43.7609" lon="7.14885">
        <ele>825.05621337891</ele>
        <time>2012-07-12T17:23:40Z</time>
      </trkpt>
      <trkpt lat="43.76087" lon="7.14885">
        <ele>824.93927001953</ele>
        <time>2012-07-12T17:23:49Z</time>
      </trkpt>
      <trkpt lat="43.76079" lon="7.14876">
        <ele>823.46179199219</ele>
        <time>2012-07-12T17:23:54Z</time>
      </trkpt>
      <trkpt lat="43.76068" lon="7.14874">
        <ele>823.54962158203</ele>
        <time>2012-07-12T17:23:59Z</time>
      </trkpt>
      <trkpt lat="43.76059" lon="7.14866">
        <ele>822.57189941406</ele>
        <time>2012-07-12T17:24:03Z</time>
      </trkpt>
      <trkpt lat="43.76048" lon="7.14862">
        <ele>822.19909667969</ele>
        <time>2012-07-12T17:24:05Z</time>
      </trkpt>
      <trkpt lat="43.76042" lon="7.14861">
        <ele>821.97308349609</ele>
        <time>2012-07-12T17:24:06Z</time>
      </trkpt>
      <trkpt lat="43.76021" lon="7.14859">
        <ele>821.50628662109</ele>
        <time>2012-07-12T17:24:10Z</time>
      </trkpt>
      <trkpt lat="43.76011" lon="7.14855">
        <ele>820.41278076172</ele>
        <time>2012-07-12T17:24:12Z</time>
      </trkpt>
      <trkpt lat="43.76005" lon="7.14845">
        <ele>817.92541503906</ele>
        <time>2012-07-12T17:24:14Z</time>
      </trkpt>
      <trkpt lat="43.75998" lon="7.14843">
        <ele>817.32354736328</ele>
        <time>2012-07-12T17:24:17Z</time>
      </trkpt>
      <trkpt lat="43.75996" lon="7.14843">
        <ele>817.26519775391</ele>
        <time>2012-07-12T17:24:18Z</time>
      </trkpt>
      <trkpt lat="43.75994" lon="7.14843">
        <ele>817.30541992188</ele>
        <time>2012-07-12T17:24:19Z</time>
      </trkpt>
      <trkpt lat="43.75989" lon="7.14845">
        <ele>817.72247314453</ele>
        <time>2012-07-12T17:24:22Z</time>
      </trkpt>
      <trkpt lat="43.75978" lon="7.14854">
        <ele>819.56768798828</ele>
        <time>2012-07-12T17:24:27Z</time>
      </trkpt>
      <trkpt lat="43.75964" lon="7.14865">
        <ele>821.05969238281</ele>
        <time>2012-07-12T17:24:32Z</time>
      </trkpt>
      <trkpt lat="43.75944" lon="7.14866">
        <ele>820.49725341797</ele>
        <time>2012-07-12T17:24:37Z</time>
      </trkpt>
      <trkpt lat="43.75924" lon="7.14855">
        <ele>818.7734375</ele>
        <time>2012-07-12T17:24:41Z</time>
      </trkpt>
      <trkpt lat="43.75921" lon="7.14852">
        <ele>818.05242919922</ele>
        <time>2012-07-12T17:24:42Z</time>
      </trkpt>
      <trkpt lat="43.75917" lon="7.14849">
        <ele>817.43444824219</ele>
        <time>2012-07-12T17:24:44Z</time>
      </trkpt>
      <trkpt lat="43.75917" lon="7.14848">
        <ele>817.06365966797</ele>
        <time>2012-07-12T17:24:48Z</time>
      </trkpt>
      <trkpt lat="43.75917" lon="7.14848">
        <ele>817.12548828125</ele>
        <time>2012-07-12T17:24:56Z</time>
      </trkpt>
      <trkpt lat="43.75916" lon="7.14844">
        <ele>816.26501464844</ele>
        <time>2012-07-12T17:25:51Z</time>
      </trkpt>
      <trkpt lat="43.75913" lon="7.14844">
        <ele>815.787109375</ele>
        <time>2012-07-12T17:25:55Z</time>
      </trkpt>
      <trkpt lat="43.75912" lon="7.14844">
        <ele>815.75085449219</ele>
        <time>2012-07-12T17:25:56Z</time>
      </trkpt>
      <trkpt lat="43.75911" lon="7.14845">
        <ele>815.73724365234</ele>
        <time>2012-07-12T17:26:03Z</time>
      </trkpt>
      <trkpt lat="43.75912" lon="7.14844">
        <ele>815.77459716797</ele>
        <time>2012-07-12T17:26:10Z</time>
      </trkpt>
      <trkpt lat="43.75913" lon="7.14845">
        <ele>815.99847412109</ele>
        <time>2012-07-12T17:26:19Z</time>
      </trkpt>
      <trkpt lat="43.75914" lon="7.14845">
        <ele>816.27075195312</ele>
        <time>2012-07-12T17:27:00Z</time>
      </trkpt>
      <trkpt lat="43.75922" lon="7.1484">
        <ele>815.42602539062</ele>
        <time>2012-07-12T17:27:10Z</time>
      </trkpt>
      <trkpt lat="43.75936" lon="7.14825">
        <ele>812.17132568359</ele>
        <time>2012-07-12T17:27:14Z</time>
      </trkpt>
      <trkpt lat="43.75941" lon="7.14812">
        <ele>809.39038085938</ele>
        <time>2012-07-12T17:27:18Z</time>
      </trkpt>
      <trkpt lat="43.75951" lon="7.14801">
        <ele>807.27209472656</ele>
        <time>2012-07-12T17:27:22Z</time>
      </trkpt>
      <trkpt lat="43.75953" lon="7.14797">
        <ele>806.83953857422</ele>
        <time>2012-07-12T17:27:23Z</time>
      </trkpt>
      <trkpt lat="43.75964" lon="7.14787">
        <ele>805.36328125</ele>
        <time>2012-07-12T17:27:26Z</time>
      </trkpt>
      <trkpt lat="43.75977" lon="7.1477">
        <ele>801.45642089844</ele>
        <time>2012-07-12T17:27:30Z</time>
      </trkpt>
      <trkpt lat="43.75985" lon="7.14763">
        <ele>798.81970214844</ele>
        <time>2012-07-12T17:27:32Z</time>
      </trkpt>
      <trkpt lat="43.75991" lon="7.14755">
        <ele>795.94952392578</ele>
        <time>2012-07-12T17:27:34Z</time>
      </trkpt>
      <trkpt lat="43.76004" lon="7.14739">
        <ele>790.57141113281</ele>
        <time>2012-07-12T17:27:39Z</time>
      </trkpt>
      <trkpt lat="43.76005" lon="7.14733">
        <ele>788.36218261719</ele>
        <time>2012-07-12T17:27:42Z</time>
      </trkpt>
      <trkpt lat="43.76005" lon="7.14729">
        <ele>787.34246826172</ele>
        <time>2012-07-12T17:27:43Z</time>
      </trkpt>
      <trkpt lat="43.76007" lon="7.14725">
        <ele>785.78210449219</ele>
        <time>2012-07-12T17:27:45Z</time>
      </trkpt>
      <trkpt lat="43.76012" lon="7.14721">
        <ele>784.85943603516</ele>
        <time>2012-07-12T17:27:47Z</time>
      </trkpt>
      <trkpt lat="43.76017" lon="7.14715">
        <ele>783.63208007812</ele>
        <time>2012-07-12T17:27:50Z</time>
      </trkpt>
      <trkpt lat="43.76017" lon="7.14712">
        <ele>783.11706542969</ele>
        <time>2012-07-12T17:27:51Z</time>
      </trkpt>
      <trkpt lat="43.76018" lon="7.14709">
        <ele>782.62780761719</ele>
        <time>2012-07-12T17:27:52Z</time>
      </trkpt>
      <trkpt lat="43.76025" lon="7.14696">
        <ele>780.23315429688</ele>
        <time>2012-07-12T17:27:57Z</time>
      </trkpt>
      <trkpt lat="43.76031" lon="7.1469">
        <ele>776.1083984375</ele>
        <time>2012-07-12T17:27:59Z</time>
      </trkpt>
      <trkpt lat="43.7604" lon="7.14685">
        <ele>770.81134033203</ele>
        <time>2012-07-12T17:28:02Z</time>
      </trkpt>
      <trkpt lat="43.76049" lon="7.14677">
        <ele>763.86810302734</ele>
        <time>2012-07-12T17:28:07Z</time>
      </trkpt>
      <trkpt lat="43.76053" lon="7.14671">
        <ele>758.75323486328</ele>
        <time>2012-07-12T17:28:12Z</time>
      </trkpt>
      <trkpt lat="43.76049" lon="7.14667">
        <ele>757.20770263672</ele>
        <time>2012-07-12T17:28:14Z</time>
      </trkpt>
      <trkpt lat="43.76046" lon="7.14663">
        <ele>755.72009277344</ele>
        <time>2012-07-12T17:28:15Z</time>
      </trkpt>
      <trkpt lat="43.76035" lon="7.14653">
        <ele>751.78271484375</ele>
        <time>2012-07-12T17:28:19Z</time>
      </trkpt>
      <trkpt lat="43.76024" lon="7.14644">
        <ele>747.83880615234</ele>
        <time>2012-07-12T17:28:24Z</time>
      </trkpt>
      <trkpt lat="43.76016" lon="7.14641">
        <ele>746.03637695312</ele>
        <time>2012-07-12T17:28:29Z</time>
      </trkpt>
      <trkpt lat="43.76017" lon="7.14641">
        <ele>746.21661376953</ele>
        <time>2012-07-12T17:28:31Z</time>
      </trkpt>
      <trkpt lat="43.7602" lon="7.14641">
        <ele>746.01062011719</ele>
        <time>2012-07-12T17:28:33Z</time>
      </trkpt>
      <trkpt lat="43.7603" lon="7.14634">
        <ele>743.27514648438</ele>
        <time>2012-07-12T17:28:38Z</time>
      </trkpt>
      <trkpt lat="43.76041" lon="7.14625">
        <ele>740.22515869141</ele>
        <time>2012-07-12T17:28:43Z</time>
      </trkpt>
      <trkpt lat="43.76042" lon="7.14623">
        <ele>739.62237548828</ele>
        <time>2012-07-12T17:28:45Z</time>
      </trkpt>
      <trkpt lat="43.76041" lon="7.14623">
        <ele>739.63116455078</ele>
        <time>2012-07-12T17:28:47Z</time>
      </trkpt>
      <trkpt lat="43.76032" lon="7.14615">
        <ele>737.13653564453</ele>
        <time>2012-07-12T17:28:51Z</time>
      </trkpt>
      <trkpt lat="43.7603" lon="7.14612">
        <ele>736.42626953125</ele>
        <time>2012-07-12T17:28:52Z</time>
      </trkpt>
      <trkpt lat="43.76016" lon="7.146">
        <ele>731.01062011719</ele>
        <time>2012-07-12T17:28:58Z</time>
      </trkpt>
      <trkpt lat="43.76001" lon="7.14593">
        <ele>728.29150390625</ele>
        <time>2012-07-12T17:29:03Z</time>
      </trkpt>
      <trkpt lat="43.75988" lon="7.14588">
        <ele>726.86157226562</ele>
        <time>2012-07-12T17:29:08Z</time>
      </trkpt>
      <trkpt lat="43.75979" lon="7.14584">
        <ele>725.86187744141</ele>
        <time>2012-07-12T17:29:13Z</time>
      </trkpt>
      <trkpt lat="43.75979" lon="7.14582">
        <ele>725.19464111328</ele>
        <time>2012-07-12T17:29:14Z</time>
      </trkpt>
      <trkpt lat="43.7598" lon="7.14581">
        <ele>724.67657470703</ele>
        <time>2012-07-12T17:29:18Z</time>
      </trkpt>
      <trkpt lat="43.7598" lon="7.14581">
        <ele>724.68060302734</ele>
        <time>2012-07-12T17:29:23Z</time>
      </trkpt>
      <trkpt lat="43.75974" lon="7.14577">
        <ele>723.50622558594</ele>
        <time>2012-07-12T17:29:31Z</time>
      </trkpt>
      <trkpt lat="43.75969" lon="7.14571">
        <ele>721.50817871094</ele>
        <time>2012-07-12T17:29:36Z</time>
      </trkpt>
      <trkpt lat="43.75961" lon="7.1456">
        <ele>717.73162841797</ele>
        <time>2012-07-12T17:29:41Z</time>
      </trkpt>
      <trkpt lat="43.75961" lon="7.14558">
        <ele>716.87335205078</ele>
        <time>2012-07-12T17:29:42Z</time>
      </trkpt>
      <trkpt lat="43.75961" lon="7.14553">
        <ele>715.41162109375</ele>
        <time>2012-07-12T17:29:44Z</time>
      </trkpt>
      <trkpt lat="43.75962" lon="7.14551">
        <ele>715.00994873047</ele>
        <time>2012-07-12T17:29:45Z</time>
      </trkpt>
      <trkpt lat="43.75968" lon="7.14547">
        <ele>714.13446044922</ele>
        <time>2012-07-12T17:29:48Z</time>
      </trkpt>
      <trkpt lat="43.7597" lon="7.14544">
        <ele>713.49591064453</ele>
        <time>2012-07-12T17:29:50Z</time>
      </trkpt>
      <trkpt lat="43.7597" lon="7.14542">
        <ele>713.12512207031</ele>
        <time>2012-07-12T17:29:51Z</time>
      </trkpt>
      <trkpt lat="43.75969" lon="7.14539">
        <ele>712.42474365234</ele>
        <time>2012-07-12T17:29:54Z</time>
      </trkpt>
      <trkpt lat="43.75965" lon="7.14537">
        <ele>711.8994140625</ele>
        <time>2012-07-12T17:29:59Z</time>
      </trkpt>
      <trkpt lat="43.75958" lon="7.14535">
        <ele>711.54925537109</ele>
        <time>2012-07-12T17:30:02Z</time>
      </trkpt>
      <trkpt lat="43.75945" lon="7.14532">
        <ele>710.80767822266</ele>
        <time>2012-07-12T17:30:07Z</time>
      </trkpt>
      <trkpt lat="43.7594" lon="7.14531">
        <ele>710.71496582031</ele>
        <time>2012-07-12T17:30:11Z</time>
      </trkpt>
      <trkpt lat="43.75939" lon="7.14528">
        <ele>710.04553222656</ele>
        <time>2012-07-12T17:30:23Z</time>
      </trkpt>
      <trkpt lat="43.75937" lon="7.14527">
        <ele>709.54370117188</ele>
        <time>2012-07-12T17:30:28Z</time>
      </trkpt>
      <trkpt lat="43.7593" lon="7.14525">
        <ele>708.92572021484</ele>
        <time>2012-07-12T17:30:34Z</time>
      </trkpt>
      <trkpt lat="43.75926" lon="7.14522">
        <ele>707.98156738281</ele>
        <time>2012-07-12T17:30:36Z</time>
      </trkpt>
      <trkpt lat="43.75923" lon="7.1452">
        <ele>707.17474365234</ele>
        <time>2012-07-12T17:30:38Z</time>
      </trkpt>
      <trkpt lat="43.75925" lon="7.14513">
        <ele>704.85729980469</ele>
        <time>2012-07-12T17:30:41Z</time>
      </trkpt>
      <trkpt lat="43.75932" lon="7.145">
        <ele>699.91345214844</ele>
        <time>2012-07-12T17:30:46Z</time>
      </trkpt>
      <trkpt lat="43.75934" lon="7.14497">
        <ele>698.74621582031</ele>
        <time>2012-07-12T17:30:48Z</time>
      </trkpt>
      <trkpt lat="43.75934" lon="7.14495">
        <ele>698.26550292969</ele>
        <time>2012-07-12T17:30:49Z</time>
      </trkpt>
      <trkpt lat="43.75934" lon="7.14493">
        <ele>697.47589111328</ele>
        <time>2012-07-12T17:30:51Z</time>
      </trkpt>
      <trkpt lat="43.75933" lon="7.14494">
        <ele>697.66473388672</ele>
        <time>2012-07-12T17:30:52Z</time>
      </trkpt>
      <trkpt lat="43.75932" lon="7.14492">
        <ele>697.16687011719</ele>
        <time>2012-07-12T17:30:55Z</time>
      </trkpt>
      <trkpt lat="43.75925" lon="7.14491">
        <ele>696.85791015625</ele>
        <time>2012-07-12T17:31:00Z</time>
      </trkpt>
      <trkpt lat="43.75924" lon="7.14489">
        <ele>695.87945556641</ele>
        <time>2012-07-12T17:31:01Z</time>
      </trkpt>
      <trkpt lat="43.75927" lon="7.14487">
        <ele>695.33013916016</ele>
        <time>2012-07-12T17:31:03Z</time>
      </trkpt>
      <trkpt lat="43.75934" lon="7.14478">
        <ele>692.18872070312</ele>
        <time>2012-07-12T17:31:07Z</time>
      </trkpt>
      <trkpt lat="43.7594" lon="7.14469">
        <ele>689.16491699219</ele>
        <time>2012-07-12T17:31:12Z</time>
      </trkpt>
      <trkpt lat="43.75943" lon="7.14461">
        <ele>687.13415527344</ele>
        <time>2012-07-12T17:31:16Z</time>
      </trkpt>
      <trkpt lat="43.75948" lon="7.14456">
        <ele>685.98059082031</ele>
        <time>2012-07-12T17:31:21Z</time>
      </trkpt>
      <trkpt lat="43.75943" lon="7.14454">
        <ele>685.41583251953</ele>
        <time>2012-07-12T17:31:24Z</time>
      </trkpt>
      <trkpt lat="43.75937" lon="7.14451">
        <ele>684.55065917969</ele>
        <time>2012-07-12T17:31:27Z</time>
      </trkpt>
      <trkpt lat="43.75933" lon="7.14448">
        <ele>683.91375732422</ele>
        <time>2012-07-12T17:31:29Z</time>
      </trkpt>
      <trkpt lat="43.75922" lon="7.14447">
        <ele>683.72149658203</ele>
        <time>2012-07-12T17:31:33Z</time>
      </trkpt>
      <trkpt lat="43.75912" lon="7.14445">
        <ele>683.0966796875</ele>
        <time>2012-07-12T17:31:38Z</time>
      </trkpt>
      <trkpt lat="43.759" lon="7.14438">
        <ele>677.958984375</ele>
        <time>2012-07-12T17:31:43Z</time>
      </trkpt>
      <trkpt lat="43.75893" lon="7.14436">
        <ele>675.93145751953</ele>
        <time>2012-07-12T17:31:47Z</time>
      </trkpt>
      <trkpt lat="43.75893" lon="7.14435">
        <ele>675.17529296875</ele>
        <time>2012-07-12T17:31:51Z</time>
      </trkpt>
      <trkpt lat="43.75894" lon="7.14431">
        <ele>672.49444580078</ele>
        <time>2012-07-12T17:31:55Z</time>
      </trkpt>
      <trkpt lat="43.75895" lon="7.14425">
        <ele>667.60455322266</ele>
        <time>2012-07-12T17:31:59Z</time>
      </trkpt>
      <trkpt lat="43.75896" lon="7.14423">
        <ele>666.60693359375</ele>
        <time>2012-07-12T17:32:01Z</time>
      </trkpt>
      <trkpt lat="43.75896" lon="7.14422">
        <ele>665.69000244141</ele>
        <time>2012-07-12T17:32:03Z</time>
      </trkpt>
      <trkpt lat="43.75896" lon="7.14422">
        <ele>665.61669921875</ele>
        <time>2012-07-12T17:32:07Z</time>
      </trkpt>
      <trkpt lat="43.75893" lon="7.1442">
        <ele>663.41943359375</ele>
        <time>2012-07-12T17:33:09Z</time>
      </trkpt>
      <trkpt lat="43.75891" lon="7.14419">
        <ele>662.62927246094</ele>
        <time>2012-07-12T17:33:17Z</time>
      </trkpt>
      <trkpt lat="43.75885" lon="7.14415">
        <ele>659.63403320312</ele>
        <time>2012-07-12T17:33:22Z</time>
      </trkpt>
      <trkpt lat="43.75884" lon="7.1441">
        <ele>658.60345458984</ele>
        <time>2012-07-12T17:33:24Z</time>
      </trkpt>
      <trkpt lat="43.75887" lon="7.14403">
        <ele>657.42236328125</ele>
        <time>2012-07-12T17:33:26Z</time>
      </trkpt>
      <trkpt lat="43.75897" lon="7.14385">
        <ele>655.07543945312</ele>
        <time>2012-07-12T17:33:31Z</time>
      </trkpt>
      <trkpt lat="43.75904" lon="7.14378">
        <ele>654.82476806641</ele>
        <time>2012-07-12T17:33:35Z</time>
      </trkpt>
      <trkpt lat="43.75908" lon="7.14364">
        <ele>653.25244140625</ele>
        <time>2012-07-12T17:33:39Z</time>
      </trkpt>
      <trkpt lat="43.75919" lon="7.14345">
        <ele>656.30480957031</ele>
        <time>2012-07-12T17:33:43Z</time>
      </trkpt>
      <trkpt lat="43.7593" lon="7.14334">
        <ele>657.45336914062</ele>
        <time>2012-07-12T17:33:47Z</time>
      </trkpt>
      <trkpt lat="43.7593" lon="7.14332">
        <ele>657.51306152344</ele>
        <time>2012-07-12T17:33:49Z</time>
      </trkpt>
      <trkpt lat="43.75928" lon="7.1433">
        <ele>657.52508544922</ele>
        <time>2012-07-12T17:33:50Z</time>
      </trkpt>
      <trkpt lat="43.75918" lon="7.14324">
        <ele>657.40667724609</ele>
        <time>2012-07-12T17:33:54Z</time>
      </trkpt>
      <trkpt lat="43.7592" lon="7.14315">
        <ele>657.78430175781</ele>
        <time>2012-07-12T17:33:57Z</time>
      </trkpt>
      <trkpt lat="43.75928" lon="7.14314">
        <ele>658.12762451172</ele>
        <time>2012-07-12T17:34:00Z</time>
      </trkpt>
      <trkpt lat="43.75928" lon="7.14315">
        <ele>658.0830078125</ele>
        <time>2012-07-12T17:34:01Z</time>
      </trkpt>
      <trkpt lat="43.75928" lon="7.14315">
        <ele>658.05725097656</ele>
        <time>2012-07-12T17:34:04Z</time>
      </trkpt>
      <trkpt lat="43.75931" lon="7.14318">
        <ele>658.07611083984</ele>
        <time>2012-07-12T17:34:26Z</time>
      </trkpt>
      <trkpt lat="43.75931" lon="7.14315">
        <ele>658.17572021484</ele>
        <time>2012-07-12T17:35:35Z</time>
      </trkpt>
      <trkpt lat="43.75933" lon="7.14314">
        <ele>658.27697753906</ele>
        <time>2012-07-12T17:35:46Z</time>
      </trkpt>
      <trkpt lat="43.7593" lon="7.14318">
        <ele>658.03491210938</ele>
        <time>2012-07-12T17:35:50Z</time>
      </trkpt>
      <trkpt lat="43.75929" lon="7.14319">
        <ele>657.98687744141</ele>
        <time>2012-07-12T17:35:56Z</time>
      </trkpt>
      <trkpt lat="43.75925" lon="7.14321">
        <ele>657.75512695312</ele>
        <time>2012-07-12T17:36:16Z</time>
      </trkpt>
      <trkpt lat="43.75927" lon="7.14318">
        <ele>657.91131591797</ele>
        <time>2012-07-12T17:36:21Z</time>
      </trkpt>
      <trkpt lat="43.75927" lon="7.14314">
        <ele>658.09155273438</ele>
        <time>2012-07-12T17:36:35Z</time>
      </trkpt>
      <trkpt lat="43.75927" lon="7.14311">
        <ele>658.17053222656</ele>
        <time>2012-07-12T17:36:42Z</time>
      </trkpt>
      <trkpt lat="43.75927" lon="7.14309">
        <ele>658.25122070312</ele>
        <time>2012-07-12T17:37:02Z</time>
      </trkpt>
      <trkpt lat="43.75929" lon="7.14309">
        <ele>658.31646728516</ele>
        <time>2012-07-12T17:37:32Z</time>
      </trkpt>
      <trkpt lat="43.7593" lon="7.14313">
        <ele>658.21862792969</ele>
        <time>2012-07-12T17:37:48Z</time>
      </trkpt>
      <trkpt lat="43.7593" lon="7.14313">
        <ele>658.21002197266</ele>
        <time>2012-07-12T17:37:56Z</time>
      </trkpt>
      <trkpt lat="43.75929" lon="7.14312">
        <ele>658.19116210938</ele>
        <time>2012-07-12T17:38:07Z</time>
      </trkpt>
      <trkpt lat="43.75929" lon="7.14311">
        <ele>658.23919677734</ele>
        <time>2012-07-12T17:38:29Z</time>
      </trkpt>
      <trkpt lat="43.75928" lon="7.14312">
        <ele>658.18084716797</ele>
        <time>2012-07-12T17:39:19Z</time>
      </trkpt>
      <trkpt lat="43.75929" lon="7.14312">
        <ele>658.20141601562</ele>
        <time>2012-07-12T17:39:37Z</time>
      </trkpt>
      <trkpt lat="43.75932" lon="7.14318">
        <ele>658.10876464844</ele>
        <time>2012-07-12T17:40:37Z</time>
      </trkpt>
      <trkpt lat="43.75932" lon="7.14318">
        <ele>658.13104248047</ele>
        <time>2012-07-12T17:40:49Z</time>
      </trkpt>
      <trkpt lat="43.75931" lon="7.14313">
        <ele>658.25811767578</ele>
        <time>2012-07-12T17:41:11Z</time>
      </trkpt>
      <trkpt lat="43.75933" lon="7.14311">
        <ele>658.37652587891</ele>
        <time>2012-07-12T17:41:17Z</time>
      </trkpt>
      <trkpt lat="43.75936" lon="7.14312">
        <ele>658.45037841797</ele>
        <time>2012-07-12T17:41:19Z</time>
      </trkpt>
      <trkpt lat="43.75938" lon="7.14314">
        <ele>658.46752929688</ele>
        <time>2012-07-12T17:41:21Z</time>
      </trkpt>
      <trkpt lat="43.75938" lon="7.14314">
        <ele>658.45037841797</ele>
        <time>2012-07-12T17:41:23Z</time>
      </trkpt>
      <trkpt lat="43.75947" lon="7.14318">
        <ele>658.64434814453</ele>
        <time>2012-07-12T17:41:35Z</time>
      </trkpt>
      <trkpt lat="43.75961" lon="7.14317">
        <ele>659.181640625</ele>
        <time>2012-07-12T17:41:42Z</time>
      </trkpt>
      <trkpt lat="43.75972" lon="7.14318">
        <ele>659.57177734375</ele>
        <time>2012-07-12T17:41:49Z</time>
      </trkpt>
      <trkpt lat="43.75983" lon="7.14319">
        <ele>659.70532226562</ele>
        <time>2012-07-12T17:41:56Z</time>
      </trkpt>
      <trkpt lat="43.75995" lon="7.14319">
        <ele>659.91827392578</ele>
        <time>2012-07-12T17:42:03Z</time>
      </trkpt>
      <trkpt lat="43.76007" lon="7.14322">
        <ele>660</ele>
        <time>2012-07-12T17:42:10Z</time>
      </trkpt>
      <trkpt lat="43.76019" lon="7.14322">
        <ele>660</ele>
        <time>2012-07-12T17:42:17Z</time>
      </trkpt>
      <trkpt lat="43.76029" lon="7.14325">
        <ele>660</ele>
        <time>2012-07-12T17:42:23Z</time>
      </trkpt>
      <trkpt lat="43.76043" lon="7.14332">
        <ele>660</ele>
        <time>2012-07-12T17:42:31Z</time>
      </trkpt>
      <trkpt lat="43.76056" lon="7.14341">
        <ele>660</ele>
        <time>2012-07-12T17:42:39Z</time>
      </trkpt>
      <trkpt lat="43.76072" lon="7.14351">
        <ele>660</ele>
        <time>2012-07-12T17:42:48Z</time>
      </trkpt>
      <trkpt lat="43.76084" lon="7.1436">
        <ele>660.00183105469</ele>
        <time>2012-07-12T17:42:56Z</time>
      </trkpt>
      <trkpt lat="43.76096" lon="7.14368">
        <ele>660</ele>
        <time>2012-07-12T17:43:03Z</time>
      </trkpt>
      <trkpt lat="43.76107" lon="7.14379">
        <ele>660</ele>
        <time>2012-07-12T17:43:10Z</time>
      </trkpt>
      <trkpt lat="43.76122" lon="7.14388">
        <ele>662.22039794922</ele>
        <time>2012-07-12T17:43:18Z</time>
      </trkpt>
      <trkpt lat="43.76137" lon="7.14396">
        <ele>666.52038574219</ele>
        <time>2012-07-12T17:43:26Z</time>
      </trkpt>
      <trkpt lat="43.76152" lon="7.14408">
        <ele>669.85614013672</ele>
        <time>2012-07-12T17:43:35Z</time>
      </trkpt>
      <trkpt lat="43.76156" lon="7.1441">
        <ele>670.41033935547</ele>
        <time>2012-07-12T17:43:37Z</time>
      </trkpt>
      <trkpt lat="43.76163" lon="7.14412">
        <ele>671.18255615234</ele>
        <time>2012-07-12T17:43:41Z</time>
      </trkpt>
      <trkpt lat="43.76175" lon="7.14416">
        <ele>672.81591796875</ele>
        <time>2012-07-12T17:43:47Z</time>
      </trkpt>
      <trkpt lat="43.76189" lon="7.14421">
        <ele>674.80847167969</ele>
        <time>2012-07-12T17:43:54Z</time>
      </trkpt>
      <trkpt lat="43.76199" lon="7.14421">
        <ele>675.65179443359</ele>
        <time>2012-07-12T17:44:00Z</time>
      </trkpt>
      <trkpt lat="43.76211" lon="7.14425">
        <ele>676.60375976562</ele>
        <time>2012-07-12T17:44:06Z</time>
      </trkpt>
      <trkpt lat="43.76225" lon="7.14431">
        <ele>677.62097167969</ele>
        <time>2012-07-12T17:44:13Z</time>
      </trkpt>
      <trkpt lat="43.76236" lon="7.14436">
        <ele>678.22003173828</ele>
        <time>2012-07-12T17:44:19Z</time>
      </trkpt>
      <trkpt lat="43.7625" lon="7.14441">
        <ele>678.88269042969</ele>
        <time>2012-07-12T17:44:26Z</time>
      </trkpt>
      <trkpt lat="43.76264" lon="7.14443">
        <ele>679.45599365234</ele>
        <time>2012-07-12T17:44:33Z</time>
      </trkpt>
      <trkpt lat="43.76275" lon="7.14445">
        <ele>679.91180419922</ele>
        <time>2012-07-12T17:44:39Z</time>
      </trkpt>
      <trkpt lat="43.76287" lon="7.14448">
        <ele>680</ele>
        <time>2012-07-12T17:44:46Z</time>
      </trkpt>
      <trkpt lat="43.76299" lon="7.14452">
        <ele>680</ele>
        <time>2012-07-12T17:44:53Z</time>
      </trkpt>
      <trkpt lat="43.76314" lon="7.14459">
        <ele>680</ele>
        <time>2012-07-12T17:45:01Z</time>
      </trkpt>
      <trkpt lat="43.76329" lon="7.14459">
        <ele>680</ele>
        <time>2012-07-12T17:45:08Z</time>
      </trkpt>
      <trkpt lat="43.76348" lon="7.1446">
        <ele>680</ele>
        <time>2012-07-12T17:45:17Z</time>
      </trkpt>
      <trkpt lat="43.7636" lon="7.14456">
        <ele>680</ele>
        <time>2012-07-12T17:45:23Z</time>
      </trkpt>
      <trkpt lat="43.76373" lon="7.14452">
        <ele>680</ele>
        <time>2012-07-12T17:45:30Z</time>
      </trkpt>
      <trkpt lat="43.76385" lon="7.14455">
        <ele>680</ele>
        <time>2012-07-12T17:45:36Z</time>
      </trkpt>
      <trkpt lat="43.76397" lon="7.14456">
        <ele>680</ele>
        <time>2012-07-12T17:45:42Z</time>
      </trkpt>
      <trkpt lat="43.7641" lon="7.14454">
        <ele>680</ele>
        <time>2012-07-12T17:45:49Z</time>
      </trkpt>
      <trkpt lat="43.76425" lon="7.14454">
        <ele>680</ele>
        <time>2012-07-12T17:45:57Z</time>
      </trkpt>
      <trkpt lat="43.76435" lon="7.1446">
        <ele>680</ele>
        <time>2012-07-12T17:46:03Z</time>
      </trkpt>
      <trkpt lat="43.76446" lon="7.14463">
        <ele>680.20660400391</ele>
        <time>2012-07-12T17:46:09Z</time>
      </trkpt>
      <trkpt lat="43.76462" lon="7.14467">
        <ele>682.89636230469</ele>
        <time>2012-07-12T17:46:18Z</time>
      </trkpt>
      <trkpt lat="43.76474" lon="7.14468">
        <ele>685.00402832031</ele>
        <time>2012-07-12T17:46:25Z</time>
      </trkpt>
      <trkpt lat="43.76489" lon="7.14465">
        <ele>688.03149414062</ele>
        <time>2012-07-12T17:46:34Z</time>
      </trkpt>
      <trkpt lat="43.76499" lon="7.14465">
        <ele>689.92504882812</ele>
        <time>2012-07-12T17:46:40Z</time>
      </trkpt>
      <trkpt lat="43.76511" lon="7.1446">
        <ele>691.00140380859</ele>
        <time>2012-07-12T17:46:49Z</time>
      </trkpt>
      <trkpt lat="43.76519" lon="7.14456">
        <ele>691.69195556641</ele>
        <time>2012-07-12T17:46:55Z</time>
      </trkpt>
      <trkpt lat="43.76527" lon="7.1445">
        <ele>692.30908203125</ele>
        <time>2012-07-12T17:47:02Z</time>
      </trkpt>
      <trkpt lat="43.7654" lon="7.14445">
        <ele>693.35034179688</ele>
        <time>2012-07-12T17:47:12Z</time>
      </trkpt>
      <trkpt lat="43.76548" lon="7.14443">
        <ele>694.29681396484</ele>
        <time>2012-07-12T17:47:18Z</time>
      </trkpt>
      <trkpt lat="43.76559" lon="7.14445">
        <ele>695.36218261719</ele>
        <time>2012-07-12T17:47:24Z</time>
      </trkpt>
      <trkpt lat="43.76569" lon="7.14444">
        <ele>696.45056152344</ele>
        <time>2012-07-12T17:47:30Z</time>
      </trkpt>
      <trkpt lat="43.76584" lon="7.14445">
        <ele>698.20660400391</ele>
        <time>2012-07-12T17:47:39Z</time>
      </trkpt>
      <trkpt lat="43.76596" lon="7.14442">
        <ele>700.45355224609</ele>
        <time>2012-07-12T17:47:46Z</time>
      </trkpt>
      <trkpt lat="43.76611" lon="7.14439">
        <ele>703.45037841797</ele>
        <time>2012-07-12T17:47:54Z</time>
      </trkpt>
      <trkpt lat="43.7662" lon="7.14441">
        <ele>704.96142578125</ele>
        <time>2012-07-12T17:48:00Z</time>
      </trkpt>
      <trkpt lat="43.76628" lon="7.14441">
        <ele>706.47375488281</ele>
        <time>2012-07-12T17:48:06Z</time>
      </trkpt>
      <trkpt lat="43.7663" lon="7.14441">
        <ele>706.75360107422</ele>
        <time>2012-07-12T17:48:07Z</time>
      </trkpt>
      <trkpt lat="43.76641" lon="7.1444">
        <ele>708.8564453125</ele>
        <time>2012-07-12T17:48:14Z</time>
      </trkpt>
      <trkpt lat="43.76649" lon="7.14441">
        <ele>710.22973632812</ele>
        <time>2012-07-12T17:48:21Z</time>
      </trkpt>
      <trkpt lat="43.76656" lon="7.14442">
        <ele>711.30944824219</ele>
        <time>2012-07-12T17:49:00Z</time>
      </trkpt>
      <trkpt lat="43.76657" lon="7.14443">
        <ele>711.41589355469</ele>
        <time>2012-07-12T17:49:09Z</time>
      </trkpt>
      <trkpt lat="43.76663" lon="7.14442">
        <ele>712.68621826172</ele>
        <time>2012-07-12T17:49:14Z</time>
      </trkpt>
      <trkpt lat="43.76673" lon="7.14442">
        <ele>714.32299804688</ele>
        <time>2012-07-12T17:49:21Z</time>
      </trkpt>
      <trkpt lat="43.76683" lon="7.14445">
        <ele>716.06231689453</ele>
        <time>2012-07-12T17:49:29Z</time>
      </trkpt>
      <trkpt lat="43.76694" lon="7.14448">
        <ele>718.08184814453</ele>
        <time>2012-07-12T17:49:37Z</time>
      </trkpt>
      <trkpt lat="43.76696" lon="7.14448">
        <ele>718.29754638672</ele>
        <time>2012-07-12T17:49:41Z</time>
      </trkpt>
      <trkpt lat="43.76696" lon="7.14449">
        <ele>718.35284423828</ele>
        <time>2012-07-12T17:49:42Z</time>
      </trkpt>
      <trkpt lat="43.76696" lon="7.14449">
        <ele>718.34967041016</ele>
        <time>2012-07-12T17:49:51Z</time>
      </trkpt>
      <trkpt lat="43.76699" lon="7.14449">
        <ele>718.60638427734</ele>
        <time>2012-07-12T17:50:01Z</time>
      </trkpt>
      <trkpt lat="43.76703" lon="7.14452">
        <ele>719.126953125</ele>
        <time>2012-07-12T17:50:05Z</time>
      </trkpt>
      <trkpt lat="43.76708" lon="7.14453">
        <ele>719.64801025391</ele>
        <time>2012-07-12T17:50:09Z</time>
      </trkpt>
      <trkpt lat="43.7671" lon="7.14453">
        <ele>719.79614257812</ele>
        <time>2012-07-12T17:50:10Z</time>
      </trkpt>
      <trkpt lat="43.76711" lon="7.14453">
        <ele>719.90100097656</ele>
        <time>2012-07-12T17:50:14Z</time>
      </trkpt>
      <trkpt lat="43.76713" lon="7.14453">
        <ele>720.12579345703</ele>
        <time>2012-07-12T17:50:19Z</time>
      </trkpt>
      <trkpt lat="43.76714" lon="7.14453">
        <ele>720.23889160156</ele>
        <time>2012-07-12T17:50:27Z</time>
      </trkpt>
      <trkpt lat="43.7672" lon="7.14457">
        <ele>720.79992675781</ele>
        <time>2012-07-12T17:50:35Z</time>
      </trkpt>
      <trkpt lat="43.7673" lon="7.14461">
        <ele>722.27520751953</ele>
        <time>2012-07-12T17:50:43Z</time>
      </trkpt>
      <trkpt lat="43.76732" lon="7.14462">
        <ele>722.64428710938</ele>
        <time>2012-07-12T17:50:49Z</time>
      </trkpt>
      <trkpt lat="43.76739" lon="7.14466">
        <ele>723.62646484375</ele>
        <time>2012-07-12T17:50:54Z</time>
      </trkpt>
      <trkpt lat="43.76751" lon="7.14473">
        <ele>725.38012695312</ele>
        <time>2012-07-12T17:51:02Z</time>
      </trkpt>
      <trkpt lat="43.76752" lon="7.14474">
        <ele>725.66424560547</ele>
        <time>2012-07-12T17:51:03Z</time>
      </trkpt>
      <trkpt lat="43.76758" lon="7.14469">
        <ele>726.97924804688</ele>
        <time>2012-07-12T17:51:07Z</time>
      </trkpt>
      <trkpt lat="43.76759" lon="7.14467">
        <ele>727.49230957031</ele>
        <time>2012-07-12T17:51:08Z</time>
      </trkpt>
      <trkpt lat="43.76764" lon="7.14464">
        <ele>728.68988037109</ele>
        <time>2012-07-12T17:51:11Z</time>
      </trkpt>
      <trkpt lat="43.76766" lon="7.14465">
        <ele>729.18981933594</ele>
        <time>2012-07-12T17:51:13Z</time>
      </trkpt>
      <trkpt lat="43.76774" lon="7.1447">
        <ele>730.47955322266</ele>
        <time>2012-07-12T17:51:19Z</time>
      </trkpt>
      <trkpt lat="43.76784" lon="7.14475">
        <ele>731.68646240234</ele>
        <time>2012-07-12T17:51:26Z</time>
      </trkpt>
      <trkpt lat="43.76795" lon="7.14478">
        <ele>732.84002685547</ele>
        <time>2012-07-12T17:51:33Z</time>
      </trkpt>
      <trkpt lat="43.76806" lon="7.14481">
        <ele>734.02679443359</ele>
        <time>2012-07-12T17:51:41Z</time>
      </trkpt>
      <trkpt lat="43.76817" lon="7.14482">
        <ele>734.93060302734</ele>
        <time>2012-07-12T17:51:49Z</time>
      </trkpt>
      <trkpt lat="43.76825" lon="7.14482">
        <ele>735.68609619141</ele>
        <time>2012-07-12T17:51:56Z</time>
      </trkpt>
      <trkpt lat="43.76833" lon="7.14485">
        <ele>736.45861816406</ele>
        <time>2012-07-12T17:52:02Z</time>
      </trkpt>
      <trkpt lat="43.76843" lon="7.14486">
        <ele>737.56750488281</ele>
        <time>2012-07-12T17:52:09Z</time>
      </trkpt>
      <trkpt lat="43.76857" lon="7.14486">
        <ele>739.00579833984</ele>
        <time>2012-07-12T17:52:18Z</time>
      </trkpt>
      <trkpt lat="43.76864" lon="7.14488">
        <ele>739.92016601562</ele>
        <time>2012-07-12T17:52:23Z</time>
      </trkpt>
      <trkpt lat="43.76875" lon="7.14491">
        <ele>741.90270996094</ele>
        <time>2012-07-12T17:52:30Z</time>
      </trkpt>
      <trkpt lat="43.76885" lon="7.14492">
        <ele>743.98590087891</ele>
        <time>2012-07-12T17:52:37Z</time>
      </trkpt>
      <trkpt lat="43.76897" lon="7.14491">
        <ele>747.70385742188</ele>
        <time>2012-07-12T17:52:44Z</time>
      </trkpt>
      <trkpt lat="43.76912" lon="7.14489">
        <ele>752.64617919922</ele>
        <time>2012-07-12T17:52:52Z</time>
      </trkpt>
      <trkpt lat="43.76924" lon="7.14488">
        <ele>754.62078857422</ele>
        <time>2012-07-12T17:52:58Z</time>
      </trkpt>
      <trkpt lat="43.7694" lon="7.14484">
        <ele>755.55120849609</ele>
        <time>2012-07-12T17:53:07Z</time>
      </trkpt>
      <trkpt lat="43.76953" lon="7.14479">
        <ele>755.80517578125</ele>
        <time>2012-07-12T17:53:15Z</time>
      </trkpt>
      <trkpt lat="43.76962" lon="7.14479">
        <ele>756.11071777344</ele>
        <time>2012-07-12T17:53:21Z</time>
      </trkpt>
      <trkpt lat="43.7697" lon="7.14478">
        <ele>756.33044433594</ele>
        <time>2012-07-12T17:53:30Z</time>
      </trkpt>
      <trkpt lat="43.7697" lon="7.14476">
        <ele>756.20001220703</ele>
        <time>2012-07-12T17:53:54Z</time>
      </trkpt>
      <trkpt lat="43.76979" lon="7.14477">
        <ele>756.60168457031</ele>
        <time>2012-07-12T17:55:05Z</time>
      </trkpt>
      <trkpt lat="43.76989" lon="7.14475">
        <ele>756.80767822266</ele>
        <time>2012-07-12T17:55:11Z</time>
      </trkpt>
      <trkpt lat="43.77" lon="7.1447">
        <ele>757.14654541016</ele>
        <time>2012-07-12T17:55:18Z</time>
      </trkpt>
      <trkpt lat="43.7701" lon="7.14467">
        <ele>757.68676757812</ele>
        <time>2012-07-12T17:55:24Z</time>
      </trkpt>
      <trkpt lat="43.77021" lon="7.14461">
        <ele>758.26763916016</ele>
        <time>2012-07-12T17:55:31Z</time>
      </trkpt>
      <trkpt lat="43.77031" lon="7.14453">
        <ele>758.82556152344</ele>
        <time>2012-07-12T17:55:38Z</time>
      </trkpt>
      <trkpt lat="43.7704" lon="7.14445">
        <ele>759.44354248047</ele>
        <time>2012-07-12T17:55:44Z</time>
      </trkpt>
      <trkpt lat="43.77054" lon="7.14434">
        <ele>760.04040527344</ele>
        <time>2012-07-12T17:55:52Z</time>
      </trkpt>
      <trkpt lat="43.77067" lon="7.14423">
        <ele>760</ele>
        <time>2012-07-12T17:56:01Z</time>
      </trkpt>
      <trkpt lat="43.77079" lon="7.14412">
        <ele>760.70953369141</ele>
        <time>2012-07-12T17:56:08Z</time>
      </trkpt>
      <trkpt lat="43.77095" lon="7.14403">
        <ele>761.0986328125</ele>
        <time>2012-07-12T17:56:17Z</time>
      </trkpt>
      <trkpt lat="43.77099" lon="7.14396">
        <ele>761.24963378906</ele>
        <time>2012-07-12T17:56:21Z</time>
      </trkpt>
      <trkpt lat="43.77108" lon="7.14388">
        <ele>760.73675537109</ele>
        <time>2012-07-12T17:56:27Z</time>
      </trkpt>
      <trkpt lat="43.77123" lon="7.14369">
        <ele>763.27581787109</ele>
        <time>2012-07-12T17:56:36Z</time>
      </trkpt>
      <trkpt lat="43.77145" lon="7.14341">
        <ele>765.50640869141</ele>
        <time>2012-07-12T17:56:48Z</time>
      </trkpt>
      <trkpt lat="43.77161" lon="7.14323">
        <ele>765.24853515625</ele>
        <time>2012-07-12T17:56:57Z</time>
      </trkpt>
      <trkpt lat="43.77174" lon="7.14304">
        <ele>766.73876953125</ele>
        <time>2012-07-12T17:57:05Z</time>
      </trkpt>
      <trkpt lat="43.77195" lon="7.14275">
        <ele>773.09741210938</ele>
        <time>2012-07-12T17:57:17Z</time>
      </trkpt>
      <trkpt lat="43.77206" lon="7.14266">
        <ele>774.69909667969</ele>
        <time>2012-07-12T17:57:23Z</time>
      </trkpt>
      <trkpt lat="43.7722" lon="7.14251">
        <ele>776.26916503906</ele>
        <time>2012-07-12T17:57:30Z</time>
      </trkpt>
      <trkpt lat="43.77232" lon="7.14241">
        <ele>777.10821533203</ele>
        <time>2012-07-12T17:57:36Z</time>
      </trkpt>
      <trkpt lat="43.77248" lon="7.14222">
        <ele>778.16998291016</ele>
        <time>2012-07-12T17:57:45Z</time>
      </trkpt>
      <trkpt lat="43.77253" lon="7.14205">
        <ele>779.28515625</ele>
        <time>2012-07-12T17:57:51Z</time>
      </trkpt>
      <trkpt lat="43.7725" lon="7.1419">
        <ele>780.49768066406</ele>
        <time>2012-07-12T17:57:56Z</time>
      </trkpt>
      <trkpt lat="43.77251" lon="7.14172">
        <ele>782.35223388672</ele>
        <time>2012-07-12T17:58:02Z</time>
      </trkpt>
      <trkpt lat="43.77262" lon="7.14161">
        <ele>782.21649169922</ele>
        <time>2012-07-12T17:58:08Z</time>
      </trkpt>
      <trkpt lat="43.77275" lon="7.14142">
        <ele>782.84991455078</ele>
        <time>2012-07-12T17:58:16Z</time>
      </trkpt>
      <trkpt lat="43.77285" lon="7.14121">
        <ele>784.81506347656</ele>
        <time>2012-07-12T17:58:25Z</time>
      </trkpt>
      <trkpt lat="43.77293" lon="7.14106">
        <ele>786.263671875</ele>
        <time>2012-07-12T17:58:32Z</time>
      </trkpt>
      <trkpt lat="43.77299" lon="7.14087">
        <ele>788.75396728516</ele>
        <time>2012-07-12T17:58:40Z</time>
      </trkpt>
      <trkpt lat="43.7731" lon="7.14077">
        <ele>789.66900634766</ele>
        <time>2012-07-12T17:58:47Z</time>
      </trkpt>
      <trkpt lat="43.77317" lon="7.14068">
        <ele>790.70928955078</ele>
        <time>2012-07-12T17:58:53Z</time>
      </trkpt>
      <trkpt lat="43.77332" lon="7.14056">
        <ele>791.95550537109</ele>
        <time>2012-07-12T17:59:02Z</time>
      </trkpt>
      <trkpt lat="43.77346" lon="7.1405">
        <ele>795.09674072266</ele>
        <time>2012-07-12T17:59:10Z</time>
      </trkpt>
      <trkpt lat="43.77356" lon="7.14048">
        <ele>796.72320556641</ele>
        <time>2012-07-12T17:59:16Z</time>
      </trkpt>
      <trkpt lat="43.77365" lon="7.14043">
        <ele>798.11676025391</ele>
        <time>2012-07-12T17:59:24Z</time>
      </trkpt>
      <trkpt lat="43.77372" lon="7.14038">
        <ele>798.76983642578</ele>
        <time>2012-07-12T17:59:30Z</time>
      </trkpt>
      <trkpt lat="43.77375" lon="7.14026">
        <ele>799.55297851562</ele>
        <time>2012-07-12T17:59:36Z</time>
      </trkpt>
      <trkpt lat="43.77383" lon="7.14014">
        <ele>799.89495849609</ele>
        <time>2012-07-12T17:59:42Z</time>
      </trkpt>
      <trkpt lat="43.77395" lon="7.14013">
        <ele>800</ele>
        <time>2012-07-12T17:59:49Z</time>
      </trkpt>
      <trkpt lat="43.7741" lon="7.14014">
        <ele>800</ele>
        <time>2012-07-12T17:59:58Z</time>
      </trkpt>
      <trkpt lat="43.7742" lon="7.14007">
        <ele>800</ele>
        <time>2012-07-12T18:00:04Z</time>
      </trkpt>
      <trkpt lat="43.77434" lon="7.13998">
        <ele>800</ele>
        <time>2012-07-12T18:00:12Z</time>
      </trkpt>
      <trkpt lat="43.77444" lon="7.13987">
        <ele>800.00360107422</ele>
        <time>2012-07-12T18:00:19Z</time>
      </trkpt>
      <trkpt lat="43.77447" lon="7.13972">
        <ele>801.00988769531</ele>
        <time>2012-07-12T18:00:26Z</time>
      </trkpt>
      <trkpt lat="43.77449" lon="7.1397">
        <ele>801.99523925781</ele>
        <time>2012-07-12T18:00:30Z</time>
      </trkpt>
      <trkpt lat="43.77452" lon="7.13963">
        <ele>804.77301025391</ele>
        <time>2012-07-12T18:00:48Z</time>
      </trkpt>
      <trkpt lat="43.77456" lon="7.1395">
        <ele>808.78643798828</ele>
        <time>2012-07-12T18:00:55Z</time>
      </trkpt>
      <trkpt lat="43.77456" lon="7.13948">
        <ele>809.43072509766</ele>
        <time>2012-07-12T18:00:56Z</time>
      </trkpt>
      <trkpt lat="43.77459" lon="7.13946">
        <ele>810.32043457031</ele>
        <time>2012-07-12T18:00:59Z</time>
      </trkpt>
      <trkpt lat="43.7746" lon="7.13947">
        <ele>810.32165527344</ele>
        <time>2012-07-12T18:01:00Z</time>
      </trkpt>
      <trkpt lat="43.77468" lon="7.13955">
        <ele>810.49334716797</ele>
        <time>2012-07-12T18:01:06Z</time>
      </trkpt>
      <trkpt lat="43.77468" lon="7.13962">
        <ele>809.38385009766</ele>
        <time>2012-07-12T18:01:10Z</time>
      </trkpt>
      <trkpt lat="43.77467" lon="7.13964">
        <ele>808.74798583984</ele>
        <time>2012-07-12T18:01:11Z</time>
      </trkpt>
      <trkpt lat="43.77469" lon="7.13972">
        <ele>807.95098876953</ele>
        <time>2012-07-12T18:01:15Z</time>
      </trkpt>
      <trkpt lat="43.77472" lon="7.13974">
        <ele>808.58245849609</ele>
        <time>2012-07-12T18:01:17Z</time>
      </trkpt>
      <trkpt lat="43.77473" lon="7.13974">
        <ele>808.88610839844</ele>
        <time>2012-07-12T18:01:18Z</time>
      </trkpt>
      <trkpt lat="43.77476" lon="7.13974">
        <ele>809.27239990234</ele>
        <time>2012-07-12T18:01:20Z</time>
      </trkpt>
      <trkpt lat="43.77483" lon="7.13965">
        <ele>811.05792236328</ele>
        <time>2012-07-12T18:01:26Z</time>
      </trkpt>
      <trkpt lat="43.7749" lon="7.13948">
        <ele>813.23718261719</ele>
        <time>2012-07-12T18:01:34Z</time>
      </trkpt>
      <trkpt lat="43.77499" lon="7.13933">
        <ele>814.77178955078</ele>
        <time>2012-07-12T18:01:43Z</time>
      </trkpt>
      <trkpt lat="43.77506" lon="7.1392">
        <ele>816.02008056641</ele>
        <time>2012-07-12T18:01:51Z</time>
      </trkpt>
      <trkpt lat="43.77509" lon="7.13909">
        <ele>816.87292480469</ele>
        <time>2012-07-12T18:01:57Z</time>
      </trkpt>
      <trkpt lat="43.77512" lon="7.13897">
        <ele>817.79986572266</ele>
        <time>2012-07-12T18:02:04Z</time>
      </trkpt>
      <trkpt lat="43.77514" lon="7.13892">
        <ele>818.23931884766</ele>
        <time>2012-07-12T18:02:08Z</time>
      </trkpt>
      <trkpt lat="43.77514" lon="7.13892">
        <ele>818.32171630859</ele>
        <time>2012-07-12T18:02:10Z</time>
      </trkpt>
      <trkpt lat="43.77518" lon="7.13884">
        <ele>818.89202880859</ele>
        <time>2012-07-12T18:02:17Z</time>
      </trkpt>
      <trkpt lat="43.77519" lon="7.13879">
        <ele>819.13690185547</ele>
        <time>2012-07-12T18:02:22Z</time>
      </trkpt>
      <trkpt lat="43.7752" lon="7.13879">
        <ele>819.18151855469</ele>
        <time>2012-07-12T18:02:23Z</time>
      </trkpt>
      <trkpt lat="43.77522" lon="7.13872">
        <ele>819.54052734375</ele>
        <time>2012-07-12T18:02:30Z</time>
      </trkpt>
      <trkpt lat="43.77522" lon="7.1387">
        <ele>819.59606933594</ele>
        <time>2012-07-12T18:02:31Z</time>
      </trkpt>
      <trkpt lat="43.77524" lon="7.13868">
        <ele>819.71807861328</ele>
        <time>2012-07-12T18:02:35Z</time>
      </trkpt>
      <trkpt lat="43.77527" lon="7.13864">
        <ele>819.87683105469</ele>
        <time>2012-07-12T18:02:45Z</time>
      </trkpt>
      <trkpt lat="43.77526" lon="7.1386">
        <ele>820.05596923828</ele>
        <time>2012-07-12T18:02:47Z</time>
      </trkpt>
      <trkpt lat="43.77526" lon="7.13856">
        <ele>820.36260986328</ele>
        <time>2012-07-12T18:02:49Z</time>
      </trkpt>
      <trkpt lat="43.77525" lon="7.13845">
        <ele>821.23919677734</ele>
        <time>2012-07-12T18:02:54Z</time>
      </trkpt>
      <trkpt lat="43.77521" lon="7.13835">
        <ele>822.38983154297</ele>
        <time>2012-07-12T18:02:59Z</time>
      </trkpt>
      <trkpt lat="43.77518" lon="7.13833">
        <ele>822.73474121094</ele>
        <time>2012-07-12T18:03:01Z</time>
      </trkpt>
      <trkpt lat="43.77512" lon="7.13829">
        <ele>823.84729003906</ele>
        <time>2012-07-12T18:03:05Z</time>
      </trkpt>
      <trkpt lat="43.77509" lon="7.13827">
        <ele>824.31610107422</ele>
        <time>2012-07-12T18:03:07Z</time>
      </trkpt>
      <trkpt lat="43.77508" lon="7.13828">
        <ele>824.33386230469</ele>
        <time>2012-07-12T18:03:08Z</time>
      </trkpt>
      <trkpt lat="43.77502" lon="7.13828">
        <ele>824.65655517578</ele>
        <time>2012-07-12T18:03:12Z</time>
      </trkpt>
      <trkpt lat="43.77489" lon="7.13827">
        <ele>824.90655517578</ele>
        <time>2012-07-12T18:03:21Z</time>
      </trkpt>
      <trkpt lat="43.77477" lon="7.13826">
        <ele>825.05078125</ele>
        <time>2012-07-12T18:03:28Z</time>
      </trkpt>
      <trkpt lat="43.77465" lon="7.13825">
        <ele>825.89971923828</ele>
        <time>2012-07-12T18:03:36Z</time>
      </trkpt>
      <trkpt lat="43.77452" lon="7.13825">
        <ele>827.1396484375</ele>
        <time>2012-07-12T18:03:45Z</time>
      </trkpt>
      <trkpt lat="43.77441" lon="7.13823">
        <ele>828.38446044922</ele>
        <time>2012-07-12T18:03:53Z</time>
      </trkpt>
      <trkpt lat="43.7743" lon="7.1382">
        <ele>829.48651123047</ele>
        <time>2012-07-12T18:04:01Z</time>
      </trkpt>
      <trkpt lat="43.77419" lon="7.1382">
        <ele>830.33972167969</ele>
        <time>2012-07-12T18:04:09Z</time>
      </trkpt>
      <trkpt lat="43.77406" lon="7.13817">
        <ele>830.73046875</ele>
        <time>2012-07-12T18:04:17Z</time>
      </trkpt>
      <trkpt lat="43.77398" lon="7.13814">
        <ele>831.13732910156</ele>
        <time>2012-07-12T18:04:23Z</time>
      </trkpt>
      <trkpt lat="43.77387" lon="7.13813">
        <ele>831.23217773438</ele>
        <time>2012-07-12T18:04:31Z</time>
      </trkpt>
      <trkpt lat="43.77378" lon="7.13814">
        <ele>831.34674072266</ele>
        <time>2012-07-12T18:04:38Z</time>
      </trkpt>
      <trkpt lat="43.77367" lon="7.13812">
        <ele>831.89324951172</ele>
        <time>2012-07-12T18:04:46Z</time>
      </trkpt>
      <trkpt lat="43.77359" lon="7.13809">
        <ele>832.37915039062</ele>
        <time>2012-07-12T18:04:52Z</time>
      </trkpt>
      <trkpt lat="43.77353" lon="7.13812">
        <ele>831.57916259766</ele>
        <time>2012-07-12T18:04:58Z</time>
      </trkpt>
      <trkpt lat="43.77344" lon="7.13814">
        <ele>830.75628662109</ele>
        <time>2012-07-12T18:05:03Z</time>
      </trkpt>
      <trkpt lat="43.77327" lon="7.13809">
        <ele>830.35955810547</ele>
        <time>2012-07-12T18:05:12Z</time>
      </trkpt>
      <trkpt lat="43.77313" lon="7.13806">
        <ele>830.2119140625</ele>
        <time>2012-07-12T18:05:19Z</time>
      </trkpt>
      <trkpt lat="43.77311" lon="7.13804">
        <ele>830.36126708984</ele>
        <time>2012-07-12T18:05:21Z</time>
      </trkpt>
      <trkpt lat="43.77305" lon="7.13799">
        <ele>830.65478515625</ele>
        <time>2012-07-12T18:05:25Z</time>
      </trkpt>
      <trkpt lat="43.77295" lon="7.13791">
        <ele>831.22302246094</ele>
        <time>2012-07-12T18:05:33Z</time>
      </trkpt>
      <trkpt lat="43.7729" lon="7.13788">
        <ele>831.310546875</ele>
        <time>2012-07-12T18:05:37Z</time>
      </trkpt>
      <trkpt lat="43.77288" lon="7.13789">
        <ele>831.21099853516</ele>
        <time>2012-07-12T18:05:40Z</time>
      </trkpt>
      <trkpt lat="43.77291" lon="7.13789">
        <ele>831.22473144531</ele>
        <time>2012-07-12T18:05:43Z</time>
      </trkpt>
      <trkpt lat="43.77292" lon="7.13789">
        <ele>831.32257080078</ele>
        <time>2012-07-12T18:05:44Z</time>
      </trkpt>
      <trkpt lat="43.77293" lon="7.13788">
        <ele>831.44274902344</ele>
        <time>2012-07-12T18:05:45Z</time>
      </trkpt>
      <trkpt lat="43.77294" lon="7.13785">
        <ele>831.76202392578</ele>
        <time>2012-07-12T18:05:50Z</time>
      </trkpt>
      <trkpt lat="43.77292" lon="7.13784">
        <ele>831.86157226562</ele>
        <time>2012-07-12T18:06:10Z</time>
      </trkpt>
      <trkpt lat="43.77285" lon="7.13781">
        <ele>831.91650390625</ele>
        <time>2012-07-12T18:06:15Z</time>
      </trkpt>
      <trkpt lat="43.77283" lon="7.13781">
        <ele>831.88220214844</ele>
        <time>2012-07-12T18:06:17Z</time>
      </trkpt>
      <trkpt lat="43.77284" lon="7.13782">
        <ele>831.79119873047</ele>
        <time>2012-07-12T18:06:19Z</time>
      </trkpt>
      <trkpt lat="43.7729" lon="7.13787">
        <ele>831.46502685547</ele>
        <time>2012-07-12T18:06:24Z</time>
      </trkpt>
      <trkpt lat="43.77294" lon="7.13788">
        <ele>831.46850585938</ele>
        <time>2012-07-12T18:06:29Z</time>
      </trkpt>
      <trkpt lat="43.77301" lon="7.13794">
        <ele>831.10113525391</ele>
        <time>2012-07-12T18:07:36Z</time>
      </trkpt>
      <trkpt lat="43.77315" lon="7.13806">
        <ele>830.23596191406</ele>
        <time>2012-07-12T18:07:44Z</time>
      </trkpt>
      <trkpt lat="43.77331" lon="7.13809">
        <ele>830.55865478516</ele>
        <time>2012-07-12T18:07:51Z</time>
      </trkpt>
      <trkpt lat="43.77343" lon="7.13812">
        <ele>830.95654296875</ele>
        <time>2012-07-12T18:07:57Z</time>
      </trkpt>
      <trkpt lat="43.77344" lon="7.13812">
        <ele>830.98223876953</ele>
        <time>2012-07-12T18:08:01Z</time>
      </trkpt>
      <trkpt lat="43.77351" lon="7.13811">
        <ele>831.49505615234</ele>
        <time>2012-07-12T18:08:07Z</time>
      </trkpt>
      <trkpt lat="43.7736" lon="7.13808">
        <ele>832.58032226562</ele>
        <time>2012-07-12T18:08:12Z</time>
      </trkpt>
      <trkpt lat="43.77374" lon="7.13812">
        <ele>831.65582275391</ele>
        <time>2012-07-12T18:08:16Z</time>
      </trkpt>
      <trkpt lat="43.77398" lon="7.13813">
        <ele>831.18365478516</ele>
        <time>2012-07-12T18:08:21Z</time>
      </trkpt>
      <trkpt lat="43.77424" lon="7.13819">
        <ele>829.98089599609</ele>
        <time>2012-07-12T18:08:26Z</time>
      </trkpt>
      <trkpt lat="43.77459" lon="7.13824">
        <ele>826.59405517578</ele>
        <time>2012-07-12T18:08:32Z</time>
      </trkpt>
      <trkpt lat="43.77493" lon="7.13826">
        <ele>825.07135009766</ele>
        <time>2012-07-12T18:08:37Z</time>
      </trkpt>
      <trkpt lat="43.77511" lon="7.13828">
        <ele>824.18304443359</ele>
        <time>2012-07-12T18:08:40Z</time>
      </trkpt>
      <trkpt lat="43.77524" lon="7.13835">
        <ele>822.16851806641</ele>
        <time>2012-07-12T18:08:43Z</time>
      </trkpt>
      <trkpt lat="43.77525" lon="7.1384">
        <ele>821.71203613281</ele>
        <time>2012-07-12T18:08:44Z</time>
      </trkpt>
      <trkpt lat="43.77524" lon="7.13858">
        <ele>820.26971435547</ele>
        <time>2012-07-12T18:08:48Z</time>
      </trkpt>
      <trkpt lat="43.77524" lon="7.1387">
        <ele>819.63220214844</ele>
        <time>2012-07-12T18:08:52Z</time>
      </trkpt>
      <trkpt lat="43.77525" lon="7.13879">
        <ele>819.31182861328</ele>
        <time>2012-07-12T18:08:56Z</time>
      </trkpt>
      <trkpt lat="43.77526" lon="7.1388">
        <ele>819.26910400391</ele>
        <time>2012-07-12T18:08:57Z</time>
      </trkpt>
      <trkpt lat="43.77527" lon="7.13881">
        <ele>819.25964355469</ele>
        <time>2012-07-12T18:08:58Z</time>
      </trkpt>
      <trkpt lat="43.77529" lon="7.13881">
        <ele>819.30224609375</ele>
        <time>2012-07-12T18:09:03Z</time>
      </trkpt>
      <trkpt lat="43.77531" lon="7.13876">
        <ele>819.53491210938</ele>
        <time>2012-07-12T18:09:08Z</time>
      </trkpt>
      <trkpt lat="43.77533" lon="7.13869">
        <ele>819.77593994141</ele>
        <time>2012-07-12T18:09:13Z</time>
      </trkpt>
      <trkpt lat="43.77538" lon="7.13861">
        <ele>819.99285888672</ele>
        <time>2012-07-12T18:09:20Z</time>
      </trkpt>
      <trkpt lat="43.77538" lon="7.1386">
        <ele>820.05950927734</ele>
        <time>2012-07-12T18:09:21Z</time>
      </trkpt>
      <trkpt lat="43.77541" lon="7.13857">
        <ele>820.384765625</ele>
        <time>2012-07-12T18:09:25Z</time>
      </trkpt>
      <trkpt lat="43.77542" lon="7.13856">
        <ele>820.45776367188</ele>
        <time>2012-07-12T18:09:26Z</time>
      </trkpt>
      <trkpt lat="43.7755" lon="7.13851">
        <ele>821.03753662109</ele>
        <time>2012-07-12T18:09:35Z</time>
      </trkpt>
      <trkpt lat="43.77555" lon="7.13846">
        <ele>821.56262207031</ele>
        <time>2012-07-12T18:09:41Z</time>
      </trkpt>
      <trkpt lat="43.7756" lon="7.13843">
        <ele>822.94982910156</ele>
        <time>2012-07-12T18:09:47Z</time>
      </trkpt>
      <trkpt lat="43.77561" lon="7.13841">
        <ele>823.37725830078</ele>
        <time>2012-07-12T18:09:49Z</time>
      </trkpt>
      <trkpt lat="43.77567" lon="7.13837">
        <ele>825.01489257812</ele>
        <time>2012-07-12T18:09:56Z</time>
      </trkpt>
      <trkpt lat="43.77572" lon="7.13836">
        <ele>826.20965576172</ele>
        <time>2012-07-12T18:10:02Z</time>
      </trkpt>
      <trkpt lat="43.77575" lon="7.13835">
        <ele>826.92034912109</ele>
        <time>2012-07-12T18:10:05Z</time>
      </trkpt>
      <trkpt lat="43.77576" lon="7.13833">
        <ele>827.35693359375</ele>
        <time>2012-07-12T18:10:12Z</time>
      </trkpt>
      <trkpt lat="43.77579" lon="7.13827">
        <ele>829.16870117188</ele>
        <time>2012-07-12T18:11:15Z</time>
      </trkpt>
      <trkpt lat="43.77581" lon="7.13817">
        <ele>831.46380615234</ele>
        <time>2012-07-12T18:11:21Z</time>
      </trkpt>
      <trkpt lat="43.77578" lon="7.13804">
        <ele>833.47607421875</ele>
        <time>2012-07-12T18:11:27Z</time>
      </trkpt>
      <trkpt lat="43.77575" lon="7.138">
        <ele>833.56280517578</ele>
        <time>2012-07-12T18:11:30Z</time>
      </trkpt>
      <trkpt lat="43.77572" lon="7.13797">
        <ele>833.72180175781</ele>
        <time>2012-07-12T18:11:32Z</time>
      </trkpt>
      <trkpt lat="43.77572" lon="7.13788">
        <ele>835.61285400391</ele>
        <time>2012-07-12T18:11:37Z</time>
      </trkpt>
      <trkpt lat="43.77572" lon="7.13788">
        <ele>835.66259765625</ele>
        <time>2012-07-12T18:11:38Z</time>
      </trkpt>
      <trkpt lat="43.77573" lon="7.13787">
        <ele>835.91204833984</ele>
        <time>2012-07-12T18:11:39Z</time>
      </trkpt>
      <trkpt lat="43.77571" lon="7.13785">
        <ele>836.23309326172</ele>
        <time>2012-07-12T18:11:41Z</time>
      </trkpt>
      <trkpt lat="43.77571" lon="7.13774">
        <ele>838.05493164062</ele>
        <time>2012-07-12T18:11:51Z</time>
      </trkpt>
      <trkpt lat="43.77575" lon="7.13762">
        <ele>839.56195068359</ele>
        <time>2012-07-12T18:11:57Z</time>
      </trkpt>
      <trkpt lat="43.77577" lon="7.13757">
        <ele>840.18621826172</ele>
        <time>2012-07-12T18:12:02Z</time>
      </trkpt>
      <trkpt lat="43.77575" lon="7.13752">
        <ele>840.46826171875</ele>
        <time>2012-07-12T18:12:08Z</time>
      </trkpt>
      <trkpt lat="43.77572" lon="7.13748">
        <ele>840.61663818359</ele>
        <time>2012-07-12T18:12:13Z</time>
      </trkpt>
      <trkpt lat="43.77573" lon="7.13748">
        <ele>840.66125488281</ele>
        <time>2012-07-12T18:12:14Z</time>
      </trkpt>
      <trkpt lat="43.77576" lon="7.13747">
        <ele>840.75457763672</ele>
        <time>2012-07-12T18:12:17Z</time>
      </trkpt>
      <trkpt lat="43.7758" lon="7.13743">
        <ele>840.90563964844</ele>
        <time>2012-07-12T18:12:22Z</time>
      </trkpt>
      <trkpt lat="43.77583" lon="7.1374">
        <ele>840.982421875</ele>
        <time>2012-07-12T18:12:27Z</time>
      </trkpt>
      <trkpt lat="43.77582" lon="7.13739">
        <ele>840.96661376953</ele>
        <time>2012-07-12T18:12:28Z</time>
      </trkpt>
      <trkpt lat="43.77577" lon="7.13733">
        <ele>840.9140625</ele>
        <time>2012-07-12T18:12:36Z</time>
      </trkpt>
      <trkpt lat="43.77576" lon="7.13731">
        <ele>840.91772460938</ele>
        <time>2012-07-12T18:12:38Z</time>
      </trkpt>
      <trkpt lat="43.77576" lon="7.13727">
        <ele>840.95233154297</ele>
        <time>2012-07-12T18:12:42Z</time>
      </trkpt>
      <trkpt lat="43.77573" lon="7.13721">
        <ele>841</ele>
        <time>2012-07-12T18:12:51Z</time>
      </trkpt>
      <trkpt lat="43.77573" lon="7.1372">
        <ele>841</ele>
        <time>2012-07-12T18:12:52Z</time>
      </trkpt>
      <trkpt lat="43.77574" lon="7.13717">
        <ele>841</ele>
        <time>2012-07-12T18:12:57Z</time>
      </trkpt>
      <trkpt lat="43.77576" lon="7.13711">
        <ele>841</ele>
        <time>2012-07-12T18:13:02Z</time>
      </trkpt>
      <trkpt lat="43.77576" lon="7.1371">
        <ele>841</ele>
        <time>2012-07-12T18:13:03Z</time>
      </trkpt>
      <trkpt lat="43.77576" lon="7.13701">
        <ele>841</ele>
        <time>2012-07-12T18:13:08Z</time>
      </trkpt>
      <trkpt lat="43.77576" lon="7.13699">
        <ele>841</ele>
        <time>2012-07-12T18:13:09Z</time>
      </trkpt>
      <trkpt lat="43.77579" lon="7.13692">
        <ele>841</ele>
        <time>2012-07-12T18:13:12Z</time>
      </trkpt>
      <trkpt lat="43.77581" lon="7.13679">
        <ele>841</ele>
        <time>2012-07-12T18:13:17Z</time>
      </trkpt>
      <trkpt lat="43.77582" lon="7.13677">
        <ele>841</ele>
        <time>2012-07-12T18:13:18Z</time>
      </trkpt>
      <trkpt lat="43.77583" lon="7.1367">
        <ele>841</ele>
        <time>2012-07-12T18:13:22Z</time>
      </trkpt>
      <trkpt lat="43.7758" lon="7.13666">
        <ele>841.03564453125</ele>
        <time>2012-07-12T18:13:28Z</time>
      </trkpt>
      <trkpt lat="43.77578" lon="7.13663">
        <ele>841.138671875</ele>
        <time>2012-07-12T18:13:31Z</time>
      </trkpt>
      <trkpt lat="43.77578" lon="7.13661">
        <ele>841.2021484375</ele>
        <time>2012-07-12T18:13:32Z</time>
      </trkpt>
      <trkpt lat="43.77581" lon="7.1366">
        <ele>841.23309326172</ele>
        <time>2012-07-12T18:13:38Z</time>
      </trkpt>
      <trkpt lat="43.77574" lon="7.13658">
        <ele>841.32232666016</ele>
        <time>2012-07-12T18:15:24Z</time>
      </trkpt>
      <trkpt lat="43.77576" lon="7.13644">
        <ele>841.79956054688</ele>
        <time>2012-07-12T18:17:52Z</time>
      </trkpt>
      <trkpt lat="43.77575" lon="7.1363">
        <ele>842</ele>
        <time>2012-07-12T18:17:56Z</time>
      </trkpt>
      <trkpt lat="43.77569" lon="7.13622">
        <ele>842</ele>
        <time>2012-07-12T18:18:00Z</time>
      </trkpt>
      <trkpt lat="43.77568" lon="7.13615">
        <ele>842</ele>
        <time>2012-07-12T18:18:03Z</time>
      </trkpt>
      <trkpt lat="43.7757" lon="7.13613">
        <ele>842</ele>
        <time>2012-07-12T18:18:04Z</time>
      </trkpt>
      <trkpt lat="43.77571" lon="7.13612">
        <ele>842</ele>
        <time>2012-07-12T18:18:08Z</time>
      </trkpt>
      <trkpt lat="43.77571" lon="7.13608">
        <ele>842</ele>
        <time>2012-07-12T18:18:14Z</time>
      </trkpt>
      <trkpt lat="43.77571" lon="7.13591">
        <ele>842</ele>
        <time>2012-07-12T18:18:19Z</time>
      </trkpt>
      <trkpt lat="43.77571" lon="7.13587">
        <ele>842</ele>
        <time>2012-07-12T18:18:20Z</time>
      </trkpt>
      <trkpt lat="43.77566" lon="7.13573">
        <ele>842</ele>
        <time>2012-07-12T18:18:23Z</time>
      </trkpt>
      <trkpt lat="43.77565" lon="7.13558">
        <ele>842</ele>
        <time>2012-07-12T18:18:27Z</time>
      </trkpt>
      <trkpt lat="43.77566" lon="7.13556">
        <ele>842</ele>
        <time>2012-07-12T18:18:28Z</time>
      </trkpt>
      <trkpt lat="43.77569" lon="7.13551">
        <ele>842.16070556641</ele>
        <time>2012-07-12T18:18:31Z</time>
      </trkpt>
      <trkpt lat="43.77576" lon="7.13541">
        <ele>842.52630615234</ele>
        <time>2012-07-12T18:18:37Z</time>
      </trkpt>
      <trkpt lat="43.77578" lon="7.13537">
        <ele>842.67907714844</ele>
        <time>2012-07-12T18:18:40Z</time>
      </trkpt>
      <trkpt lat="43.77581" lon="7.13532">
        <ele>842.83703613281</ele>
        <time>2012-07-12T18:18:43Z</time>
      </trkpt>
      <trkpt lat="43.77588" lon="7.13528">
        <ele>842.99847412109</ele>
        <time>2012-07-12T18:18:49Z</time>
      </trkpt>
      <trkpt lat="43.77595" lon="7.13523">
        <ele>842.89532470703</ele>
        <time>2012-07-12T18:18:53Z</time>
      </trkpt>
      <trkpt lat="43.77599" lon="7.13517">
        <ele>842.82092285156</ele>
        <time>2012-07-12T18:18:57Z</time>
      </trkpt>
      <trkpt lat="43.77598" lon="7.13514">
        <ele>842.77239990234</ele>
        <time>2012-07-12T18:19:00Z</time>
      </trkpt>
      <trkpt lat="43.77598" lon="7.13506">
        <ele>842.62866210938</ele>
        <time>2012-07-12T18:19:05Z</time>
      </trkpt>
      <trkpt lat="43.776" lon="7.13491">
        <ele>842.21246337891</ele>
        <time>2012-07-12T18:19:10Z</time>
      </trkpt>
      <trkpt lat="43.77607" lon="7.13477">
        <ele>842.42767333984</ele>
        <time>2012-07-12T18:19:15Z</time>
      </trkpt>
      <trkpt lat="43.7761" lon="7.13467">
        <ele>842.89721679688</ele>
        <time>2012-07-12T18:19:20Z</time>
      </trkpt>
      <trkpt lat="43.77615" lon="7.13457">
        <ele>843.77069091797</ele>
        <time>2012-07-12T18:19:26Z</time>
      </trkpt>
      <trkpt lat="43.7761" lon="7.1345">
        <ele>842.84228515625</ele>
        <time>2012-07-12T18:19:31Z</time>
      </trkpt>
      <trkpt lat="43.77608" lon="7.13443">
        <ele>842.56762695312</ele>
        <time>2012-07-12T18:19:34Z</time>
      </trkpt>
      <trkpt lat="43.77607" lon="7.13442">
        <ele>842.34790039062</ele>
        <time>2012-07-12T18:19:35Z</time>
      </trkpt>
      <trkpt lat="43.77605" lon="7.13441">
        <ele>842.12817382812</ele>
        <time>2012-07-12T18:19:36Z</time>
      </trkpt>
      <trkpt lat="43.77605" lon="7.13441">
        <ele>842.0732421875</ele>
        <time>2012-07-12T18:19:40Z</time>
      </trkpt>
      <trkpt lat="43.77595" lon="7.13444">
        <ele>840.69995117188</ele>
        <time>2012-07-12T18:20:04Z</time>
      </trkpt>
      <trkpt lat="43.77592" lon="7.13441">
        <ele>840.20556640625</ele>
        <time>2012-07-12T18:20:06Z</time>
      </trkpt>
      <trkpt lat="43.77588" lon="7.13433">
        <ele>839.60131835938</ele>
        <time>2012-07-12T18:20:09Z</time>
      </trkpt>
      <trkpt lat="43.77578" lon="7.13415">
        <ele>838.28967285156</ele>
        <time>2012-07-12T18:20:15Z</time>
      </trkpt>
      <trkpt lat="43.77566" lon="7.13404">
        <ele>836.99700927734</ele>
        <time>2012-07-12T18:20:19Z</time>
      </trkpt>
      <trkpt lat="43.77548" lon="7.134">
        <ele>833.75518798828</ele>
        <time>2012-07-12T18:20:23Z</time>
      </trkpt>
      <trkpt lat="43.77538" lon="7.13392">
        <ele>831.51861572266</ele>
        <time>2012-07-12T18:20:26Z</time>
      </trkpt>
      <trkpt lat="43.77531" lon="7.13392">
        <ele>829.81048583984</ele>
        <time>2012-07-12T18:20:29Z</time>
      </trkpt>
      <trkpt lat="43.77529" lon="7.13392">
        <ele>829.24420166016</ele>
        <time>2012-07-12T18:20:30Z</time>
      </trkpt>
      <trkpt lat="43.7752" lon="7.13389">
        <ele>826.60504150391</ele>
        <time>2012-07-12T18:20:33Z</time>
      </trkpt>
      <trkpt lat="43.77507" lon="7.1339">
        <ele>822.35748291016</ele>
        <time>2012-07-12T18:20:37Z</time>
      </trkpt>
      <trkpt lat="43.77491" lon="7.13388">
        <ele>819.42742919922</ele>
        <time>2012-07-12T18:20:41Z</time>
      </trkpt>
      <trkpt lat="43.77483" lon="7.13378">
        <ele>819.06555175781</ele>
        <time>2012-07-12T18:20:44Z</time>
      </trkpt>
      <trkpt lat="43.77473" lon="7.1337">
        <ele>818.05560302734</ele>
        <time>2012-07-12T18:20:47Z</time>
      </trkpt>
      <trkpt lat="43.77468" lon="7.13367">
        <ele>817.38604736328</ele>
        <time>2012-07-12T18:20:48Z</time>
      </trkpt>
      <trkpt lat="43.7745" lon="7.13351">
        <ele>813.62567138672</ele>
        <time>2012-07-12T18:20:52Z</time>
      </trkpt>
      <trkpt lat="43.77446" lon="7.13349">
        <ele>812.59490966797</ele>
        <time>2012-07-12T18:20:53Z</time>
      </trkpt>
      <trkpt lat="43.77439" lon="7.13346">
        <ele>810.11474609375</ele>
        <time>2012-07-12T18:20:55Z</time>
      </trkpt>
      <trkpt lat="43.77426" lon="7.13343">
        <ele>805.19519042969</ele>
        <time>2012-07-12T18:20:58Z</time>
      </trkpt>
      <trkpt lat="43.77422" lon="7.13338">
        <ele>802.76617431641</ele>
        <time>2012-07-12T18:21:00Z</time>
      </trkpt>
      <trkpt lat="43.77423" lon="7.13332">
        <ele>802.57458496094</ele>
        <time>2012-07-12T18:21:01Z</time>
      </trkpt>
      <trkpt lat="43.77419" lon="7.13322">
        <ele>803.13952636719</ele>
        <time>2012-07-12T18:21:05Z</time>
      </trkpt>
      <trkpt lat="43.77407" lon="7.13322">
        <ele>801.32171630859</ele>
        <time>2012-07-12T18:21:09Z</time>
      </trkpt>
      <trkpt lat="43.77401" lon="7.13325">
        <ele>800.6865234375</ele>
        <time>2012-07-12T18:21:11Z</time>
      </trkpt>
      <trkpt lat="43.77394" lon="7.13326">
        <ele>800.22143554688</ele>
        <time>2012-07-12T18:21:14Z</time>
      </trkpt>
      <trkpt lat="43.7739" lon="7.13324">
        <ele>800.08447265625</ele>
        <time>2012-07-12T18:21:16Z</time>
      </trkpt>
      <trkpt lat="43.77391" lon="7.13319">
        <ele>800.16314697266</ele>
        <time>2012-07-12T18:21:18Z</time>
      </trkpt>
      <trkpt lat="43.77393" lon="7.13308">
        <ele>800.66949462891</ele>
        <time>2012-07-12T18:21:21Z</time>
      </trkpt>
      <trkpt lat="43.77394" lon="7.13304">
        <ele>801.02612304688</ele>
        <time>2012-07-12T18:21:22Z</time>
      </trkpt>
      <trkpt lat="43.77393" lon="7.13301">
        <ele>801.18273925781</ele>
        <time>2012-07-12T18:21:23Z</time>
      </trkpt>
      <trkpt lat="43.77389" lon="7.13298">
        <ele>800.57177734375</ele>
        <time>2012-07-12T18:21:25Z</time>
      </trkpt>
      <trkpt lat="43.77382" lon="7.13295">
        <ele>800.05590820312</ele>
        <time>2012-07-12T18:21:28Z</time>
      </trkpt>
      <trkpt lat="43.7738" lon="7.13295">
        <ele>799.89312744141</ele>
        <time>2012-07-12T18:21:29Z</time>
      </trkpt>
      <trkpt lat="43.77369" lon="7.13299">
        <ele>798.69964599609</ele>
        <time>2012-07-12T18:21:34Z</time>
      </trkpt>
      <trkpt lat="43.77364" lon="7.13301">
        <ele>798.27069091797</ele>
        <time>2012-07-12T18:21:36Z</time>
      </trkpt>
      <trkpt lat="43.77359" lon="7.13304">
        <ele>797.72564697266</ele>
        <time>2012-07-12T18:21:39Z</time>
      </trkpt>
      <trkpt lat="43.77357" lon="7.13302">
        <ele>797.59136962891</ele>
        <time>2012-07-12T18:21:40Z</time>
      </trkpt>
      <trkpt lat="43.77354" lon="7.13296">
        <ele>797.1484375</ele>
        <time>2012-07-12T18:21:43Z</time>
      </trkpt>
      <trkpt lat="43.77346" lon="7.13295">
        <ele>796.21484375</ele>
        <time>2012-07-12T18:21:47Z</time>
      </trkpt>
      <trkpt lat="43.77343" lon="7.13287">
        <ele>795.60272216797</ele>
        <time>2012-07-12T18:21:50Z</time>
      </trkpt>
      <trkpt lat="43.77335" lon="7.13288">
        <ele>794.62701416016</ele>
        <time>2012-07-12T18:21:54Z</time>
      </trkpt>
      <trkpt lat="43.77329" lon="7.13293">
        <ele>794.16741943359</ele>
        <time>2012-07-12T18:21:58Z</time>
      </trkpt>
      <trkpt lat="43.77325" lon="7.13288">
        <ele>793.60998535156</ele>
        <time>2012-07-12T18:22:01Z</time>
      </trkpt>
      <trkpt lat="43.77318" lon="7.13277">
        <ele>792.37097167969</ele>
        <time>2012-07-12T18:22:05Z</time>
      </trkpt>
      <trkpt lat="43.77312" lon="7.13269">
        <ele>792.05676269531</ele>
        <time>2012-07-12T18:22:08Z</time>
      </trkpt>
      <trkpt lat="43.7731" lon="7.13268">
        <ele>791.87817382812</ele>
        <time>2012-07-12T18:22:09Z</time>
      </trkpt>
      <trkpt lat="43.77308" lon="7.13267">
        <ele>791.68255615234</ele>
        <time>2012-07-12T18:22:10Z</time>
      </trkpt>
      <trkpt lat="43.77306" lon="7.13263">
        <ele>791.59222412109</ele>
        <time>2012-07-12T18:22:14Z</time>
      </trkpt>
      <trkpt lat="43.77303" lon="7.13258">
        <ele>791.2041015625</ele>
        <time>2012-07-12T18:22:21Z</time>
      </trkpt>
      <trkpt lat="43.77296" lon="7.13247">
        <ele>790.63012695312</ele>
        <time>2012-07-12T18:22:26Z</time>
      </trkpt>
      <trkpt lat="43.77292" lon="7.13243">
        <ele>790.44580078125</ele>
        <time>2012-07-12T18:22:28Z</time>
      </trkpt>
      <trkpt lat="43.77288" lon="7.13239">
        <ele>790.33178710938</ele>
        <time>2012-07-12T18:22:30Z</time>
      </trkpt>
      <trkpt lat="43.77287" lon="7.13234">
        <ele>790.63519287109</ele>
        <time>2012-07-12T18:22:32Z</time>
      </trkpt>
      <trkpt lat="43.77283" lon="7.1323">
        <ele>790.74664306641</ele>
        <time>2012-07-12T18:22:35Z</time>
      </trkpt>
      <trkpt lat="43.7728" lon="7.13227">
        <ele>790.62414550781</ele>
        <time>2012-07-12T18:22:37Z</time>
      </trkpt>
      <trkpt lat="43.77275" lon="7.13227">
        <ele>789.78173828125</ele>
        <time>2012-07-12T18:22:39Z</time>
      </trkpt>
      <trkpt lat="43.77271" lon="7.13225">
        <ele>789.32861328125</ele>
        <time>2012-07-12T18:22:41Z</time>
      </trkpt>
      <trkpt lat="43.77266" lon="7.13221">
        <ele>789.10656738281</ele>
        <time>2012-07-12T18:22:43Z</time>
      </trkpt>
      <trkpt lat="43.77264" lon="7.1322">
        <ele>788.67889404297</ele>
        <time>2012-07-12T18:22:44Z</time>
      </trkpt>
      <trkpt lat="43.77255" lon="7.13218">
        <ele>787.54077148438</ele>
        <time>2012-07-12T18:22:47Z</time>
      </trkpt>
      <trkpt lat="43.77248" lon="7.13213">
        <ele>786.80511474609</ele>
        <time>2012-07-12T18:22:51Z</time>
      </trkpt>
      <trkpt lat="43.77237" lon="7.13209">
        <ele>784.18310546875</ele>
        <time>2012-07-12T18:22:56Z</time>
      </trkpt>
      <trkpt lat="43.77234" lon="7.13209">
        <ele>783.4091796875</ele>
        <time>2012-07-12T18:22:57Z</time>
      </trkpt>
      <trkpt lat="43.77222" lon="7.13211">
        <ele>779.93347167969</ele>
        <time>2012-07-12T18:23:01Z</time>
      </trkpt>
      <trkpt lat="43.77205" lon="7.13206">
        <ele>777.82000732422</ele>
        <time>2012-07-12T18:23:06Z</time>
      </trkpt>
      <trkpt lat="43.77189" lon="7.13199">
        <ele>775.25012207031</ele>
        <time>2012-07-12T18:23:11Z</time>
      </trkpt>
      <trkpt lat="43.77171" lon="7.13192">
        <ele>772.09649658203</ele>
        <time>2012-07-12T18:23:15Z</time>
      </trkpt>
      <trkpt lat="43.77155" lon="7.13187">
        <ele>769.08111572266</ele>
        <time>2012-07-12T18:23:18Z</time>
      </trkpt>
      <trkpt lat="43.7715" lon="7.13185">
        <ele>768.10607910156</ele>
        <time>2012-07-12T18:23:19Z</time>
      </trkpt>
      <trkpt lat="43.77133" lon="7.13181">
        <ele>764.59460449219</ele>
        <time>2012-07-12T18:23:23Z</time>
      </trkpt>
      <trkpt lat="43.77116" lon="7.13171">
        <ele>761.4052734375</ele>
        <time>2012-07-12T18:23:27Z</time>
      </trkpt>
      <trkpt lat="43.77113" lon="7.13168">
        <ele>760.52264404297</ele>
        <time>2012-07-12T18:23:28Z</time>
      </trkpt>
      <trkpt lat="43.77104" lon="7.13161">
        <ele>760.44030761719</ele>
        <time>2012-07-12T18:23:31Z</time>
      </trkpt>
      <trkpt lat="43.7709" lon="7.13149">
        <ele>760.50036621094</ele>
        <time>2012-07-12T18:23:35Z</time>
      </trkpt>
      <trkpt lat="43.77087" lon="7.13146">
        <ele>760.30218505859</ele>
        <time>2012-07-12T18:23:36Z</time>
      </trkpt>
      <trkpt lat="43.77065" lon="7.13129">
        <ele>760.26354980469</ele>
        <time>2012-07-12T18:23:41Z</time>
      </trkpt>
      <trkpt lat="43.77044" lon="7.13113">
        <ele>758.77032470703</ele>
        <time>2012-07-12T18:23:45Z</time>
      </trkpt>
      <trkpt lat="43.77039" lon="7.13109">
        <ele>758.3017578125</ele>
        <time>2012-07-12T18:23:46Z</time>
      </trkpt>
      <trkpt lat="43.77024" lon="7.13098">
        <ele>755.55792236328</ele>
        <time>2012-07-12T18:23:49Z</time>
      </trkpt>
      <trkpt lat="43.77007" lon="7.13082">
        <ele>749.30267333984</ele>
        <time>2012-07-12T18:23:52Z</time>
      </trkpt>
      <trkpt lat="43.77" lon="7.13078">
        <ele>747.36291503906</ele>
        <time>2012-07-12T18:23:53Z</time>
      </trkpt>
      <trkpt lat="43.7698" lon="7.13068">
        <ele>742.337890625</ele>
        <time>2012-07-12T18:23:56Z</time>
      </trkpt>
      <trkpt lat="43.76974" lon="7.13064">
        <ele>740.68566894531</ele>
        <time>2012-07-12T18:23:57Z</time>
      </trkpt>
      <trkpt lat="43.7696" lon="7.13054">
        <ele>739.51959228516</ele>
        <time>2012-07-12T18:24:00Z</time>
      </trkpt>
      <trkpt lat="43.76959" lon="7.13054">
        <ele>739.48474121094</ele>
        <time>2012-07-12T18:24:01Z</time>
      </trkpt>
      <trkpt lat="43.76961" lon="7.13055">
        <ele>739.58233642578</ele>
        <time>2012-07-12T18:24:05Z</time>
      </trkpt>
      <trkpt lat="43.76954" lon="7.13061">
        <ele>739.33996582031</ele>
        <time>2012-07-12T18:24:10Z</time>
      </trkpt>
      <trkpt lat="43.76936" lon="7.13058">
        <ele>738.72393798828</ele>
        <time>2012-07-12T18:24:14Z</time>
      </trkpt>
      <trkpt lat="43.7692" lon="7.13051">
        <ele>737.96008300781</ele>
        <time>2012-07-12T18:24:18Z</time>
      </trkpt>
      <trkpt lat="43.76908" lon="7.13046">
        <ele>736.94305419922</ele>
        <time>2012-07-12T18:24:21Z</time>
      </trkpt>
      <trkpt lat="43.76905" lon="7.13043">
        <ele>736.54888916016</ele>
        <time>2012-07-12T18:24:22Z</time>
      </trkpt>
      <trkpt lat="43.76889" lon="7.13032">
        <ele>734.29925537109</ele>
        <time>2012-07-12T18:24:26Z</time>
      </trkpt>
      <trkpt lat="43.7688" lon="7.13029">
        <ele>732.458984375</ele>
        <time>2012-07-12T18:24:28Z</time>
      </trkpt>
      <trkpt lat="43.76869" lon="7.13036">
        <ele>731.72204589844</ele>
        <time>2012-07-12T18:24:31Z</time>
      </trkpt>
      <trkpt lat="43.76866" lon="7.13039">
        <ele>731.67327880859</ele>
        <time>2012-07-12T18:24:32Z</time>
      </trkpt>
      <trkpt lat="43.76857" lon="7.13041">
        <ele>730.41204833984</ele>
        <time>2012-07-12T18:24:35Z</time>
      </trkpt>
      <trkpt lat="43.76844" lon="7.13033">
        <ele>724.74359130859</ele>
        <time>2012-07-12T18:24:39Z</time>
      </trkpt>
      <trkpt lat="43.7683" lon="7.13026">
        <ele>719.77770996094</ele>
        <time>2012-07-12T18:24:43Z</time>
      </trkpt>
      <trkpt lat="43.76826" lon="7.13022">
        <ele>719.40057373047</ele>
        <time>2012-07-12T18:24:44Z</time>
      </trkpt>
      <trkpt lat="43.76814" lon="7.13016">
        <ele>718.28210449219</ele>
        <time>2012-07-12T18:24:47Z</time>
      </trkpt>
      <trkpt lat="43.76792" lon="7.13011">
        <ele>716.75439453125</ele>
        <time>2012-07-12T18:24:53Z</time>
      </trkpt>
      <trkpt lat="43.76773" lon="7.13003">
        <ele>714.12396240234</ele>
        <time>2012-07-12T18:24:58Z</time>
      </trkpt>
      <trkpt lat="43.76771" lon="7.12999">
        <ele>713.14154052734</ele>
        <time>2012-07-12T18:24:59Z</time>
      </trkpt>
      <trkpt lat="43.76756" lon="7.12983">
        <ele>708.36737060547</ele>
        <time>2012-07-12T18:25:03Z</time>
      </trkpt>
      <trkpt lat="43.76744" lon="7.12975">
        <ele>706.25512695312</ele>
        <time>2012-07-12T18:25:07Z</time>
      </trkpt>
      <trkpt lat="43.76744" lon="7.12975">
        <ele>706.35815429688</ele>
        <time>2012-07-12T18:25:12Z</time>
      </trkpt>
      <trkpt lat="43.7674" lon="7.12977">
        <ele>707.05853271484</ele>
        <time>2012-07-12T18:25:17Z</time>
      </trkpt>
      <trkpt lat="43.76739" lon="7.12976">
        <ele>707.08941650391</ele>
        <time>2012-07-12T18:25:18Z</time>
      </trkpt>
      <trkpt lat="43.76736" lon="7.12976">
        <ele>707.3984375</ele>
        <time>2012-07-12T18:25:22Z</time>
      </trkpt>
      <trkpt lat="43.76731" lon="7.12975">
        <ele>707.59411621094</ele>
        <time>2012-07-12T18:25:27Z</time>
      </trkpt>
      <trkpt lat="43.76731" lon="7.12974">
        <ele>707.43957519531</ele>
        <time>2012-07-12T18:25:29Z</time>
      </trkpt>
      <trkpt lat="43.76731" lon="7.12975">
        <ele>707.57348632812</ele>
        <time>2012-07-12T18:25:37Z</time>
      </trkpt>
      <trkpt lat="43.76733" lon="7.12977">
        <ele>707.96490478516</ele>
        <time>2012-07-12T18:25:45Z</time>
      </trkpt>
      <trkpt lat="43.76731" lon="7.12976">
        <ele>707.70739746094</ele>
        <time>2012-07-12T18:25:56Z</time>
      </trkpt>
      <trkpt lat="43.7673" lon="7.12975">
        <ele>707.72802734375</ele>
        <time>2012-07-12T18:25:57Z</time>
      </trkpt>
      <trkpt lat="43.76726" lon="7.12973">
        <ele>707.76916503906</ele>
        <time>2012-07-12T18:26:02Z</time>
      </trkpt>
      <trkpt lat="43.76726" lon="7.12973">
        <ele>707.74859619141</ele>
        <time>2012-07-12T18:26:03Z</time>
      </trkpt>
      <trkpt lat="43.76725" lon="7.12972">
        <ele>707.6552734375</ele>
        <time>2012-07-12T18:26:04Z</time>
      </trkpt>
      <trkpt lat="43.76724" lon="7.1297">
        <ele>707.32312011719</ele>
        <time>2012-07-12T18:26:06Z</time>
      </trkpt>
      <trkpt lat="43.76723" lon="7.12969">
        <ele>706.98370361328</ele>
        <time>2012-07-12T18:26:07Z</time>
      </trkpt>
      <trkpt lat="43.76723" lon="7.12967">
        <ele>706.50463867188</ele>
        <time>2012-07-12T18:26:11Z</time>
      </trkpt>
      <trkpt lat="43.76726" lon="7.12972">
        <ele>707.49487304688</ele>
        <time>2012-07-12T18:26:16Z</time>
      </trkpt>
      <trkpt lat="43.76727" lon="7.12973">
        <ele>707.57348632812</ele>
        <time>2012-07-12T18:26:17Z</time>
      </trkpt>
      <trkpt lat="43.76731" lon="7.12976">
        <ele>707.83099365234</ele>
        <time>2012-07-12T18:26:22Z</time>
      </trkpt>
      <trkpt lat="43.76732" lon="7.12973">
        <ele>707.13061523438</ele>
        <time>2012-07-12T18:26:29Z</time>
      </trkpt>
      <trkpt lat="43.7673" lon="7.12972">
        <ele>707.18212890625</ele>
        <time>2012-07-12T18:27:14Z</time>
      </trkpt>
      <trkpt lat="43.76726" lon="7.1297">
        <ele>707.07800292969</ele>
        <time>2012-07-12T18:27:21Z</time>
      </trkpt>
      <trkpt lat="43.76724" lon="7.1297">
        <ele>707.20227050781</ele>
        <time>2012-07-12T18:27:26Z</time>
      </trkpt>
      <trkpt lat="43.76722" lon="7.12967">
        <ele>706.44476318359</ele>
        <time>2012-07-12T18:27:33Z</time>
      </trkpt>
      <trkpt lat="43.76719" lon="7.12959">
        <ele>704.515625</ele>
        <time>2012-07-12T18:27:37Z</time>
      </trkpt>
      <trkpt lat="43.76717" lon="7.12958">
        <ele>704.45086669922</ele>
        <time>2012-07-12T18:27:38Z</time>
      </trkpt>
      <trkpt lat="43.76704" lon="7.12952">
        <ele>703.72027587891</ele>
        <time>2012-07-12T18:27:44Z</time>
      </trkpt>
      <trkpt lat="43.76696" lon="7.12941">
        <ele>701.64025878906</ele>
        <time>2012-07-12T18:27:49Z</time>
      </trkpt>
      <trkpt lat="43.76686" lon="7.12933">
        <ele>701.64916992188</ele>
        <time>2012-07-12T18:27:54Z</time>
      </trkpt>
      <trkpt lat="43.76685" lon="7.12931">
        <ele>701.52069091797</ele>
        <time>2012-07-12T18:27:58Z</time>
      </trkpt>
      <trkpt lat="43.76683" lon="7.12921">
        <ele>700.55395507812</ele>
        <time>2012-07-12T18:28:13Z</time>
      </trkpt>
      <trkpt lat="43.76681" lon="7.12917">
        <ele>700.00512695312</ele>
        <time>2012-07-12T18:28:15Z</time>
      </trkpt>
      <trkpt lat="43.76675" lon="7.12912">
        <ele>700</ele>
        <time>2012-07-12T18:28:18Z</time>
      </trkpt>
      <trkpt lat="43.76665" lon="7.12902">
        <ele>699.96368408203</ele>
        <time>2012-07-12T18:28:23Z</time>
      </trkpt>
      <trkpt lat="43.76649" lon="7.12889">
        <ele>699.36743164062</ele>
        <time>2012-07-12T18:28:29Z</time>
      </trkpt>
      <trkpt lat="43.76627" lon="7.12871">
        <ele>697.35040283203</ele>
        <time>2012-07-12T18:28:34Z</time>
      </trkpt>
      <trkpt lat="43.76619" lon="7.12867">
        <ele>696.37390136719</ele>
        <time>2012-07-12T18:28:36Z</time>
      </trkpt>
      <trkpt lat="43.76606" lon="7.12861">
        <ele>694.01849365234</ele>
        <time>2012-07-12T18:28:39Z</time>
      </trkpt>
      <trkpt lat="43.76598" lon="7.12857">
        <ele>691.86126708984</ele>
        <time>2012-07-12T18:28:41Z</time>
      </trkpt>
      <trkpt lat="43.76591" lon="7.12853">
        <ele>689.17706298828</ele>
        <time>2012-07-12T18:28:43Z</time>
      </trkpt>
      <trkpt lat="43.76579" lon="7.12849">
        <ele>685.97814941406</ele>
        <time>2012-07-12T18:28:46Z</time>
      </trkpt>
      <trkpt lat="43.76574" lon="7.12848">
        <ele>685.95477294922</ele>
        <time>2012-07-12T18:28:47Z</time>
      </trkpt>
      <trkpt lat="43.76552" lon="7.12842">
        <ele>684.81744384766</ele>
        <time>2012-07-12T18:28:53Z</time>
      </trkpt>
      <trkpt lat="43.76541" lon="7.12836">
        <ele>683.56878662109</ele>
        <time>2012-07-12T18:28:57Z</time>
      </trkpt>
      <trkpt lat="43.76534" lon="7.12832">
        <ele>682.94580078125</ele>
        <time>2012-07-12T18:29:00Z</time>
      </trkpt>
      <trkpt lat="43.76532" lon="7.1283">
        <ele>682.90100097656</ele>
        <time>2012-07-12T18:29:01Z</time>
      </trkpt>
      <trkpt lat="43.76524" lon="7.12823">
        <ele>682.75451660156</ele>
        <time>2012-07-12T18:29:05Z</time>
      </trkpt>
      <trkpt lat="43.76515" lon="7.12818">
        <ele>682.13928222656</ele>
        <time>2012-07-12T18:29:10Z</time>
      </trkpt>
      <trkpt lat="43.76506" lon="7.12811">
        <ele>681.14105224609</ele>
        <time>2012-07-12T18:29:15Z</time>
      </trkpt>
      <trkpt lat="43.76492" lon="7.12802">
        <ele>679.77484130859</ele>
        <time>2012-07-12T18:29:20Z</time>
      </trkpt>
      <trkpt lat="43.76484" lon="7.12792">
        <ele>678.91967773438</ele>
        <time>2012-07-12T18:29:24Z</time>
      </trkpt>
      <trkpt lat="43.76479" lon="7.12789">
        <ele>678.47998046875</ele>
        <time>2012-07-12T18:29:26Z</time>
      </trkpt>
      <trkpt lat="43.76477" lon="7.12784">
        <ele>677.94848632812</ele>
        <time>2012-07-12T18:29:28Z</time>
      </trkpt>
      <trkpt lat="43.76471" lon="7.1278">
        <ele>677.13958740234</ele>
        <time>2012-07-12T18:29:31Z</time>
      </trkpt>
      <trkpt lat="43.76468" lon="7.12776">
        <ele>676.64147949219</ele>
        <time>2012-07-12T18:29:33Z</time>
      </trkpt>
      <trkpt lat="43.76462" lon="7.12772">
        <ele>675.84539794922</ele>
        <time>2012-07-12T18:29:36Z</time>
      </trkpt>
      <trkpt lat="43.76461" lon="7.12767">
        <ele>675.26116943359</ele>
        <time>2012-07-12T18:29:38Z</time>
      </trkpt>
      <trkpt lat="43.76456" lon="7.12765">
        <ele>674.47821044922</ele>
        <time>2012-07-12T18:29:40Z</time>
      </trkpt>
      <trkpt lat="43.76453" lon="7.12763">
        <ele>673.88702392578</ele>
        <time>2012-07-12T18:29:41Z</time>
      </trkpt>
      <trkpt lat="43.76443" lon="7.12756">
        <ele>671.52862548828</ele>
        <time>2012-07-12T18:29:46Z</time>
      </trkpt>
      <trkpt lat="43.76437" lon="7.12752">
        <ele>669.60784912109</ele>
        <time>2012-07-12T18:29:50Z</time>
      </trkpt>
      <trkpt lat="43.76437" lon="7.12754">
        <ele>669.89910888672</ele>
        <time>2012-07-12T18:30:05Z</time>
      </trkpt>
      <trkpt lat="43.76436" lon="7.12755">
        <ele>669.8037109375</ele>
        <time>2012-07-12T18:30:16Z</time>
      </trkpt>
      <trkpt lat="43.7643" lon="7.12752">
        <ele>667.65484619141</ele>
        <time>2012-07-12T18:30:53Z</time>
      </trkpt>
      <trkpt lat="43.76417" lon="7.12742">
        <ele>662.94195556641</ele>
        <time>2012-07-12T18:30:57Z</time>
      </trkpt>
      <trkpt lat="43.76402" lon="7.12726">
        <ele>660.24060058594</ele>
        <time>2012-07-12T18:31:02Z</time>
      </trkpt>
      <trkpt lat="43.76392" lon="7.12712">
        <ele>660.34161376953</ele>
        <time>2012-07-12T18:31:06Z</time>
      </trkpt>
      <trkpt lat="43.76379" lon="7.12706">
        <ele>659.658203125</ele>
        <time>2012-07-12T18:31:10Z</time>
      </trkpt>
      <trkpt lat="43.76378" lon="7.12705">
        <ele>659.60327148438</ele>
        <time>2012-07-12T18:31:13Z</time>
      </trkpt>
      <trkpt lat="43.76372" lon="7.12702">
        <ele>659.38354492188</ele>
        <time>2012-07-12T18:31:21Z</time>
      </trkpt>
      <trkpt lat="43.76371" lon="7.12701">
        <ele>659.35607910156</ele>
        <time>2012-07-12T18:31:28Z</time>
      </trkpt>
      <trkpt lat="43.7637" lon="7.12701">
        <ele>659.32861328125</ele>
        <time>2012-07-12T18:31:34Z</time>
      </trkpt>
      <trkpt lat="43.76367" lon="7.127">
        <ele>659.21875</ele>
        <time>2012-07-12T18:31:39Z</time>
      </trkpt>
      <trkpt lat="43.76357" lon="7.12692">
        <ele>658.78771972656</ele>
        <time>2012-07-12T18:32:00Z</time>
      </trkpt>
      <trkpt lat="43.76347" lon="7.12685">
        <ele>657.97583007812</ele>
        <time>2012-07-12T18:32:04Z</time>
      </trkpt>
      <trkpt lat="43.76338" lon="7.1268">
        <ele>657.01672363281</ele>
        <time>2012-07-12T18:32:08Z</time>
      </trkpt>
      <trkpt lat="43.76337" lon="7.12679">
        <ele>656.82574462891</ele>
        <time>2012-07-12T18:32:12Z</time>
      </trkpt>
      <trkpt lat="43.76331" lon="7.1268">
        <ele>655.81823730469</ele>
        <time>2012-07-12T18:32:17Z</time>
      </trkpt>
      <trkpt lat="43.76324" lon="7.12678">
        <ele>653.46136474609</ele>
        <time>2012-07-12T18:32:22Z</time>
      </trkpt>
      <trkpt lat="43.76317" lon="7.12673">
        <ele>650.57745361328</ele>
        <time>2012-07-12T18:32:26Z</time>
      </trkpt>
      <trkpt lat="43.76312" lon="7.12673">
        <ele>648.81976318359</ele>
        <time>2012-07-12T18:32:28Z</time>
      </trkpt>
      <trkpt lat="43.76307" lon="7.12672">
        <ele>646.91918945312</ele>
        <time>2012-07-12T18:32:30Z</time>
      </trkpt>
      <trkpt lat="43.76292" lon="7.12665">
        <ele>641.63824462891</ele>
        <time>2012-07-12T18:32:35Z</time>
      </trkpt>
      <trkpt lat="43.76283" lon="7.12663">
        <ele>638.62060546875</ele>
        <time>2012-07-12T18:32:39Z</time>
      </trkpt>
      <trkpt lat="43.76274" lon="7.12665">
        <ele>636.20111083984</ele>
        <time>2012-07-12T18:32:43Z</time>
      </trkpt>
      <trkpt lat="43.76272" lon="7.12667">
        <ele>635.72735595703</ele>
        <time>2012-07-12T18:32:44Z</time>
      </trkpt>
      <trkpt lat="43.7627" lon="7.12667">
        <ele>635.38647460938</ele>
        <time>2012-07-12T18:32:45Z</time>
      </trkpt>
      <trkpt lat="43.7627" lon="7.12667">
        <ele>635.40594482422</ele>
        <time>2012-07-12T18:32:47Z</time>
      </trkpt>
      <trkpt lat="43.76268" lon="7.12666">
        <ele>634.87451171875</ele>
        <time>2012-07-12T18:32:53Z</time>
      </trkpt>
      <trkpt lat="43.76265" lon="7.12664">
        <ele>634.10656738281</ele>
        <time>2012-07-12T18:32:56Z</time>
      </trkpt>
      <trkpt lat="43.76264" lon="7.12664">
        <ele>634.02380371094</ele>
        <time>2012-07-12T18:32:57Z</time>
      </trkpt>
      <trkpt lat="43.76264" lon="7.12663">
        <ele>634.00030517578</ele>
        <time>2012-07-12T18:33:15Z</time>
      </trkpt>
      <trkpt lat="43.76258" lon="7.12662">
        <ele>632.70007324219</ele>
        <time>2012-07-12T18:33:20Z</time>
      </trkpt>
      <trkpt lat="43.76243" lon="7.12657">
        <ele>628.99291992188</ele>
        <time>2012-07-12T18:33:26Z</time>
      </trkpt>
      <trkpt lat="43.7623" lon="7.12656">
        <ele>625.84625244141</ele>
        <time>2012-07-12T18:33:30Z</time>
      </trkpt>
      <trkpt lat="43.76215" lon="7.12649">
        <ele>619.90307617188</ele>
        <time>2012-07-12T18:33:35Z</time>
      </trkpt>
      <trkpt lat="43.76206" lon="7.12649">
        <ele>616.36346435547</ele>
        <time>2012-07-12T18:33:40Z</time>
      </trkpt>
      <trkpt lat="43.76202" lon="7.12648">
        <ele>614.86657714844</ele>
        <time>2012-07-12T18:33:44Z</time>
      </trkpt>
      <trkpt lat="43.76202" lon="7.12648">
        <ele>614.62109375</ele>
        <time>2012-07-12T18:33:45Z</time>
      </trkpt>
      <trkpt lat="43.76198" lon="7.12648">
        <ele>613.1962890625</ele>
        <time>2012-07-12T18:33:51Z</time>
      </trkpt>
      <trkpt lat="43.76196" lon="7.12647">
        <ele>612.25213623047</ele>
        <time>2012-07-12T18:33:54Z</time>
      </trkpt>
      <trkpt lat="43.76193" lon="7.12644">
        <ele>610.51245117188</ele>
        <time>2012-07-12T18:33:56Z</time>
      </trkpt>
      <trkpt lat="43.76191" lon="7.12644">
        <ele>609.54516601562</ele>
        <time>2012-07-12T18:34:00Z</time>
      </trkpt>
      <trkpt lat="43.76189" lon="7.12642">
        <ele>608.58013916016</ele>
        <time>2012-07-12T18:34:05Z</time>
      </trkpt>
      <trkpt lat="43.76186" lon="7.1264">
        <ele>607.20184326172</ele>
        <time>2012-07-12T18:34:08Z</time>
      </trkpt>
      <trkpt lat="43.76185" lon="7.1264">
        <ele>606.80035400391</ele>
        <time>2012-07-12T18:34:10Z</time>
      </trkpt>
      <trkpt lat="43.76184" lon="7.12639">
        <ele>606.14727783203</ele>
        <time>2012-07-12T18:34:13Z</time>
      </trkpt>
      <trkpt lat="43.76179" lon="7.12639">
        <ele>604.48590087891</ele>
        <time>2012-07-12T18:34:15Z</time>
      </trkpt>
      <trkpt lat="43.76176" lon="7.12639">
        <ele>603.56121826172</ele>
        <time>2012-07-12T18:34:17Z</time>
      </trkpt>
      <trkpt lat="43.76176" lon="7.12639">
        <ele>603.57171630859</ele>
        <time>2012-07-12T18:34:19Z</time>
      </trkpt>
      <trkpt lat="43.76173" lon="7.1264">
        <ele>602.56610107422</ele>
        <time>2012-07-12T18:34:24Z</time>
      </trkpt>
      <trkpt lat="43.7617" lon="7.12638">
        <ele>601.20349121094</ele>
        <time>2012-07-12T18:34:31Z</time>
      </trkpt>
      <trkpt lat="43.76168" lon="7.12636">
        <ele>600.37579345703</ele>
        <time>2012-07-12T18:34:39Z</time>
      </trkpt>
      <trkpt lat="43.76169" lon="7.12634">
        <ele>600.81341552734</ele>
        <time>2012-07-12T18:34:44Z</time>
      </trkpt>
      <trkpt lat="43.76171" lon="7.12631">
        <ele>601.59313964844</ele>
        <time>2012-07-12T18:34:49Z</time>
      </trkpt>
      <trkpt lat="43.76171" lon="7.12625">
        <ele>601.67602539062</ele>
        <time>2012-07-12T18:34:55Z</time>
      </trkpt>
      <trkpt lat="43.76166" lon="7.12622">
        <ele>599.84582519531</ele>
        <time>2012-07-12T18:35:00Z</time>
      </trkpt>
      <trkpt lat="43.76165" lon="7.12621">
        <ele>599.62347412109</ele>
        <time>2012-07-12T18:35:01Z</time>
      </trkpt>
      <trkpt lat="43.76165" lon="7.1262">
        <ele>599.41363525391</ele>
        <time>2012-07-12T18:35:07Z</time>
      </trkpt>
      <trkpt lat="43.7616" lon="7.12625">
        <ele>597.86688232422</ele>
        <time>2012-07-12T18:35:36Z</time>
      </trkpt>
      <trkpt lat="43.76153" lon="7.12626">
        <ele>595.48352050781</ele>
        <time>2012-07-12T18:35:39Z</time>
      </trkpt>
      <trkpt lat="43.76152" lon="7.12625">
        <ele>595.15045166016</ele>
        <time>2012-07-12T18:35:40Z</time>
      </trkpt>
      <trkpt lat="43.76144" lon="7.12622">
        <ele>593.27087402344</ele>
        <time>2012-07-12T18:35:43Z</time>
      </trkpt>
      <trkpt lat="43.7614" lon="7.12621">
        <ele>592.16552734375</ele>
        <time>2012-07-12T18:35:45Z</time>
      </trkpt>
      <trkpt lat="43.76135" lon="7.12622">
        <ele>590.09533691406</ele>
        <time>2012-07-12T18:35:47Z</time>
      </trkpt>
      <trkpt lat="43.76132" lon="7.12626">
        <ele>587.62658691406</ele>
        <time>2012-07-12T18:35:49Z</time>
      </trkpt>
      <trkpt lat="43.76122" lon="7.12629">
        <ele>582.23388671875</ele>
        <time>2012-07-12T18:35:53Z</time>
      </trkpt>
      <trkpt lat="43.76117" lon="7.1263">
        <ele>580.06567382812</ele>
        <time>2012-07-12T18:35:57Z</time>
      </trkpt>
      <trkpt lat="43.76115" lon="7.12631">
        <ele>578.69439697266</ele>
        <time>2012-07-12T18:36:04Z</time>
      </trkpt>
      <trkpt lat="43.76115" lon="7.12638">
        <ele>576.21643066406</ele>
        <time>2012-07-12T18:36:23Z</time>
      </trkpt>
      <trkpt lat="43.76118" lon="7.12644">
        <ele>579.14929199219</ele>
        <time>2012-07-12T18:36:28Z</time>
      </trkpt>
      <trkpt lat="43.7612" lon="7.12648">
        <ele>581.24157714844</ele>
        <time>2012-07-12T18:36:53Z</time>
      </trkpt>
      <trkpt lat="43.76122" lon="7.12663">
        <ele>586.17254638672</ele>
        <time>2012-07-12T18:36:57Z</time>
      </trkpt>
      <trkpt lat="43.76122" lon="7.12675">
        <ele>588.60919189453</ele>
        <time>2012-07-12T18:37:01Z</time>
      </trkpt>
      <trkpt lat="43.76122" lon="7.12677">
        <ele>589.11932373047</ele>
        <time>2012-07-12T18:37:04Z</time>
      </trkpt>
      <trkpt lat="43.76122" lon="7.12678">
        <ele>589.28509521484</ele>
        <time>2012-07-12T18:37:11Z</time>
      </trkpt>
      <trkpt lat="43.76122" lon="7.12676">
        <ele>588.62884521484</ele>
        <time>2012-07-12T18:45:24Z</time>
      </trkpt>
      <trkpt lat="43.76121" lon="7.12686">
        <ele>590.00494384766</ele>
        <time>2012-07-12T18:45:29Z</time>
      </trkpt>
      <trkpt lat="43.76114" lon="7.12703">
        <ele>591.82885742188</ele>
        <time>2012-07-12T18:45:33Z</time>
      </trkpt>
      <trkpt lat="43.76113" lon="7.12714">
        <ele>594.93109130859</ele>
        <time>2012-07-12T18:45:35Z</time>
      </trkpt>
      <trkpt lat="43.76113" lon="7.12722">
        <ele>597.45434570312</ele>
        <time>2012-07-12T18:45:37Z</time>
      </trkpt>
      <trkpt lat="43.76104" lon="7.1273">
        <ele>595.36614990234</ele>
        <time>2012-07-12T18:45:40Z</time>
      </trkpt>
      <trkpt lat="43.76094" lon="7.12735">
        <ele>591.70330810547</ele>
        <time>2012-07-12T18:45:42Z</time>
      </trkpt>
      <trkpt lat="43.76086" lon="7.12741">
        <ele>589.4208984375</ele>
        <time>2012-07-12T18:45:44Z</time>
      </trkpt>
      <trkpt lat="43.76078" lon="7.12749">
        <ele>588.66033935547</ele>
        <time>2012-07-12T18:45:47Z</time>
      </trkpt>
      <trkpt lat="43.76076" lon="7.12747">
        <ele>587.27362060547</ele>
        <time>2012-07-12T18:45:49Z</time>
      </trkpt>
      <trkpt lat="43.76074" lon="7.12748">
        <ele>586.83209228516</ele>
        <time>2012-07-12T18:45:50Z</time>
      </trkpt>
      <trkpt lat="43.76062" lon="7.12755">
        <ele>583.84527587891</ele>
        <time>2012-07-12T18:45:54Z</time>
      </trkpt>
      <trkpt lat="43.7605" lon="7.12757">
        <ele>579.58935546875</ele>
        <time>2012-07-12T18:45:59Z</time>
      </trkpt>
      <trkpt lat="43.76046" lon="7.12754">
        <ele>577.46594238281</ele>
        <time>2012-07-12T18:46:01Z</time>
      </trkpt>
      <trkpt lat="43.76046" lon="7.12752">
        <ele>577.01446533203</ele>
        <time>2012-07-12T18:46:02Z</time>
      </trkpt>
      <trkpt lat="43.76052" lon="7.12742">
        <ele>575.98028564453</ele>
        <time>2012-07-12T18:46:06Z</time>
      </trkpt>
      <trkpt lat="43.76055" lon="7.12736">
        <ele>574.86145019531</ele>
        <time>2012-07-12T18:46:10Z</time>
      </trkpt>
      <trkpt lat="43.76047" lon="7.12736">
        <ele>571.7998046875</ele>
        <time>2012-07-12T18:46:14Z</time>
      </trkpt>
      <trkpt lat="43.76045" lon="7.12731">
        <ele>568.74090576172</ele>
        <time>2012-07-12T18:46:18Z</time>
      </trkpt>
      <trkpt lat="43.76047" lon="7.12726">
        <ele>567.74267578125</ele>
        <time>2012-07-12T18:46:19Z</time>
      </trkpt>
      <trkpt lat="43.76051" lon="7.12715">
        <ele>565.55841064453</ele>
        <time>2012-07-12T18:46:22Z</time>
      </trkpt>
      <trkpt lat="43.76051" lon="7.12712">
        <ele>564.48199462891</ele>
        <time>2012-07-12T18:46:23Z</time>
      </trkpt>
      <trkpt lat="43.76046" lon="7.12707">
        <ele>560.55651855469</ele>
        <time>2012-07-12T18:46:26Z</time>
      </trkpt>
      <trkpt lat="43.76041" lon="7.12712">
        <ele>559.68133544922</ele>
        <time>2012-07-12T18:46:28Z</time>
      </trkpt>
      <trkpt lat="43.76038" lon="7.12714">
        <ele>559.30316162109</ele>
        <time>2012-07-12T18:46:29Z</time>
      </trkpt>
      <trkpt lat="43.76033" lon="7.12718">
        <ele>558.59912109375</ele>
        <time>2012-07-12T18:46:31Z</time>
      </trkpt>
      <trkpt lat="43.76031" lon="7.12716">
        <ele>557.14410400391</ele>
        <time>2012-07-12T18:46:32Z</time>
      </trkpt>
      <trkpt lat="43.76032" lon="7.12707">
        <ele>553.95355224609</ele>
        <time>2012-07-12T18:46:35Z</time>
      </trkpt>
      <trkpt lat="43.76032" lon="7.12704">
        <ele>552.79943847656</ele>
        <time>2012-07-12T18:46:36Z</time>
      </trkpt>
      <trkpt lat="43.76028" lon="7.12706">
        <ele>551.85095214844</ele>
        <time>2012-07-12T18:46:38Z</time>
      </trkpt>
      <trkpt lat="43.76017" lon="7.1271">
        <ele>549.72930908203</ele>
        <time>2012-07-12T18:46:41Z</time>
      </trkpt>
      <trkpt lat="43.76014" lon="7.12712">
        <ele>549.59216308594</ele>
        <time>2012-07-12T18:46:42Z</time>
      </trkpt>
      <trkpt lat="43.76012" lon="7.12715">
        <ele>550.28936767578</ele>
        <time>2012-07-12T18:46:43Z</time>
      </trkpt>
      <trkpt lat="43.76007" lon="7.12717">
        <ele>549.99591064453</ele>
        <time>2012-07-12T18:46:45Z</time>
      </trkpt>
      <trkpt lat="43.76007" lon="7.12712">
        <ele>547.53619384766</ele>
        <time>2012-07-12T18:46:48Z</time>
      </trkpt>
      <trkpt lat="43.76011" lon="7.12705">
        <ele>545.81811523438</ele>
        <time>2012-07-12T18:46:51Z</time>
      </trkpt>
      <trkpt lat="43.76004" lon="7.12707">
        <ele>544.64117431641</ele>
        <time>2012-07-12T18:46:55Z</time>
      </trkpt>
      <trkpt lat="43.76002" lon="7.12709">
        <ele>544.83184814453</ele>
        <time>2012-07-12T18:46:56Z</time>
      </trkpt>
      <trkpt lat="43.75998" lon="7.1271">
        <ele>543.94262695312</ele>
        <time>2012-07-12T18:46:58Z</time>
      </trkpt>
      <trkpt lat="43.75998" lon="7.12708">
        <ele>542.69549560547</ele>
        <time>2012-07-12T18:47:00Z</time>
      </trkpt>
      <trkpt lat="43.75998" lon="7.12707">
        <ele>542.03143310547</ele>
        <time>2012-07-12T18:47:01Z</time>
      </trkpt>
      <trkpt lat="43.75995" lon="7.12703">
        <ele>539.28594970703</ele>
        <time>2012-07-12T18:47:03Z</time>
      </trkpt>
      <trkpt lat="43.75988" lon="7.12707">
        <ele>537.119140625</ele>
        <time>2012-07-12T18:47:07Z</time>
      </trkpt>
      <trkpt lat="43.75985" lon="7.12706">
        <ele>534.96087646484</ele>
        <time>2012-07-12T18:47:09Z</time>
      </trkpt>
      <trkpt lat="43.75981" lon="7.12705">
        <ele>532.69543457031</ele>
        <time>2012-07-12T18:47:11Z</time>
      </trkpt>
      <trkpt lat="43.75979" lon="7.12704">
        <ele>531.341796875</ele>
        <time>2012-07-12T18:47:12Z</time>
      </trkpt>
      <trkpt lat="43.75978" lon="7.12698">
        <ele>527.81872558594</ele>
        <time>2012-07-12T18:47:16Z</time>
      </trkpt>
      <trkpt lat="43.7598" lon="7.12695">
        <ele>527.33319091797</ele>
        <time>2012-07-12T18:47:18Z</time>
      </trkpt>
      <trkpt lat="43.7598" lon="7.12694">
        <ele>526.84484863281</ele>
        <time>2012-07-12T18:47:20Z</time>
      </trkpt>
      <trkpt lat="43.75982" lon="7.12691">
        <ele>527.01324462891</ele>
        <time>2012-07-12T18:47:31Z</time>
      </trkpt>
      <trkpt lat="43.75983" lon="7.12689">
        <ele>526.8662109375</ele>
        <time>2012-07-12T18:47:33Z</time>
      </trkpt>
      <trkpt lat="43.75984" lon="7.12688">
        <ele>527.33056640625</ele>
        <time>2012-07-12T18:47:34Z</time>
      </trkpt>
      <trkpt lat="43.75984" lon="7.12685">
        <ele>526.64233398438</ele>
        <time>2012-07-12T18:47:36Z</time>
      </trkpt>
      <trkpt lat="43.75983" lon="7.12682">
        <ele>525.26208496094</ele>
        <time>2012-07-12T18:47:37Z</time>
      </trkpt>
      <trkpt lat="43.75977" lon="7.12681">
        <ele>521.17224121094</ele>
        <time>2012-07-12T18:47:40Z</time>
      </trkpt>
      <trkpt lat="43.75968" lon="7.12684">
        <ele>517.89361572266</ele>
        <time>2012-07-12T18:47:44Z</time>
      </trkpt>
      <trkpt lat="43.75967" lon="7.12682">
        <ele>516.96655273438</ele>
        <time>2012-07-12T18:47:45Z</time>
      </trkpt>
      <trkpt lat="43.75968" lon="7.12678">
        <ele>515.96630859375</ele>
        <time>2012-07-12T18:47:47Z</time>
      </trkpt>
      <trkpt lat="43.75972" lon="7.12668">
        <ele>514.41998291016</ele>
        <time>2012-07-12T18:47:51Z</time>
      </trkpt>
      <trkpt lat="43.75967" lon="7.12669">
        <ele>513.1416015625</ele>
        <time>2012-07-12T18:47:54Z</time>
      </trkpt>
      <trkpt lat="43.75959" lon="7.12672">
        <ele>510.8805847168</ele>
        <time>2012-07-12T18:47:58Z</time>
      </trkpt>
      <trkpt lat="43.75956" lon="7.12667">
        <ele>508.16436767578</ele>
        <time>2012-07-12T18:48:02Z</time>
      </trkpt>
      <trkpt lat="43.75953" lon="7.12659">
        <ele>504.18453979492</ele>
        <time>2012-07-12T18:48:06Z</time>
      </trkpt>
      <trkpt lat="43.75946" lon="7.12662">
        <ele>503.31759643555</ele>
        <time>2012-07-12T18:48:09Z</time>
      </trkpt>
      <trkpt lat="43.75942" lon="7.12662">
        <ele>501.96612548828</ele>
        <time>2012-07-12T18:48:12Z</time>
      </trkpt>
      <trkpt lat="43.7594" lon="7.12656">
        <ele>499.4914855957</ele>
        <time>2012-07-12T18:48:16Z</time>
      </trkpt>
      <trkpt lat="43.75933" lon="7.12651">
        <ele>496.7463684082</ele>
        <time>2012-07-12T18:48:20Z</time>
      </trkpt>
      <trkpt lat="43.75935" lon="7.12641">
        <ele>493.94271850586</ele>
        <time>2012-07-12T18:48:24Z</time>
      </trkpt>
      <trkpt lat="43.75936" lon="7.12639">
        <ele>493.48141479492</ele>
        <time>2012-07-12T18:48:25Z</time>
      </trkpt>
      <trkpt lat="43.75936" lon="7.12635">
        <ele>493.92654418945</ele>
        <time>2012-07-12T18:48:27Z</time>
      </trkpt>
      <trkpt lat="43.75933" lon="7.12635">
        <ele>493.56948852539</ele>
        <time>2012-07-12T18:48:29Z</time>
      </trkpt>
      <trkpt lat="43.7593" lon="7.12635">
        <ele>492.97210693359</ele>
        <time>2012-07-12T18:48:31Z</time>
      </trkpt>
      <trkpt lat="43.7593" lon="7.12632">
        <ele>493.37036132812</ele>
        <time>2012-07-12T18:48:33Z</time>
      </trkpt>
      <trkpt lat="43.75925" lon="7.12622">
        <ele>494.07073974609</ele>
        <time>2012-07-12T18:48:37Z</time>
      </trkpt>
      <trkpt lat="43.7592" lon="7.12621">
        <ele>493.17810058594</ele>
        <time>2012-07-12T18:48:39Z</time>
      </trkpt>
      <trkpt lat="43.75917" lon="7.12623">
        <ele>492.36785888672</ele>
        <time>2012-07-12T18:48:41Z</time>
      </trkpt>
      <trkpt lat="43.75909" lon="7.12622">
        <ele>489.72750854492</ele>
        <time>2012-07-12T18:48:45Z</time>
      </trkpt>
      <trkpt lat="43.75897" lon="7.12621">
        <ele>485.65280151367</ele>
        <time>2012-07-12T18:48:48Z</time>
      </trkpt>
      <trkpt lat="43.75892" lon="7.12623">
        <ele>483.61349487305</ele>
        <time>2012-07-12T18:48:50Z</time>
      </trkpt>
      <trkpt lat="43.75887" lon="7.12621">
        <ele>482.35388183594</ele>
        <time>2012-07-12T18:48:52Z</time>
      </trkpt>
      <trkpt lat="43.75878" lon="7.12619">
        <ele>480.65121459961</ele>
        <time>2012-07-12T18:48:56Z</time>
      </trkpt>
      <trkpt lat="43.75872" lon="7.12619">
        <ele>479.51586914062</ele>
        <time>2012-07-12T18:48:58Z</time>
      </trkpt>
      <trkpt lat="43.75868" lon="7.12619">
        <ele>478.83624267578</ele>
        <time>2012-07-12T18:49:00Z</time>
      </trkpt>
      <trkpt lat="43.75866" lon="7.12619">
        <ele>478.45053100586</ele>
        <time>2012-07-12T18:49:02Z</time>
      </trkpt>
      <trkpt lat="43.75865" lon="7.12618">
        <ele>478.20446777344</ele>
        <time>2012-07-12T18:49:03Z</time>
      </trkpt>
      <trkpt lat="43.75855" lon="7.1262">
        <ele>476.1188659668</ele>
        <time>2012-07-12T18:49:07Z</time>
      </trkpt>
      <trkpt lat="43.75843" lon="7.12627">
        <ele>474.09094238281</ele>
        <time>2012-07-12T18:49:12Z</time>
      </trkpt>
      <trkpt lat="43.75831" lon="7.1264">
        <ele>473.92495727539</ele>
        <time>2012-07-12T18:49:16Z</time>
      </trkpt>
      <trkpt lat="43.75828" lon="7.12646">
        <ele>473.53860473633</ele>
        <time>2012-07-12T18:49:18Z</time>
      </trkpt>
      <trkpt lat="43.75824" lon="7.12646">
        <ele>471.54568481445</ele>
        <time>2012-07-12T18:49:19Z</time>
      </trkpt>
      <trkpt lat="43.75813" lon="7.12643">
        <ele>463.83807373047</ele>
        <time>2012-07-12T18:49:22Z</time>
      </trkpt>
      <trkpt lat="43.75807" lon="7.12643">
        <ele>460.48086547852</ele>
        <time>2012-07-12T18:49:24Z</time>
      </trkpt>
      <trkpt lat="43.75798" lon="7.12642">
        <ele>455.51470947266</ele>
        <time>2012-07-12T18:49:26Z</time>
      </trkpt>
      <trkpt lat="43.75777" lon="7.12639">
        <ele>442.90676879883</ele>
        <time>2012-07-12T18:49:31Z</time>
      </trkpt>
      <trkpt lat="43.75763" lon="7.12637">
        <ele>439.6296081543</ele>
        <time>2012-07-12T18:49:36Z</time>
      </trkpt>
      <trkpt lat="43.75761" lon="7.12635">
        <ele>438.95098876953</ele>
        <time>2012-07-12T18:49:39Z</time>
      </trkpt>
      <trkpt lat="43.75765" lon="7.12627">
        <ele>438.66293334961</ele>
        <time>2012-07-12T18:49:44Z</time>
      </trkpt>
      <trkpt lat="43.75765" lon="7.12626">
        <ele>438.40829467773</ele>
        <time>2012-07-12T18:49:45Z</time>
      </trkpt>
      <trkpt lat="43.75761" lon="7.12623">
        <ele>436.89010620117</ele>
        <time>2012-07-12T18:49:47Z</time>
      </trkpt>
      <trkpt lat="43.75755" lon="7.12622">
        <ele>435.12899780273</ele>
        <time>2012-07-12T18:49:49Z</time>
      </trkpt>
      <trkpt lat="43.75751" lon="7.12621">
        <ele>434.01840209961</ele>
        <time>2012-07-12T18:49:51Z</time>
      </trkpt>
      <trkpt lat="43.75755" lon="7.12615">
        <ele>433.9338684082</ele>
        <time>2012-07-12T18:49:54Z</time>
      </trkpt>
      <trkpt lat="43.75761" lon="7.12608">
        <ele>435.02905273438</ele>
        <time>2012-07-12T18:49:56Z</time>
      </trkpt>
      <trkpt lat="43.75767" lon="7.12604">
        <ele>436.31304931641</ele>
        <time>2012-07-12T18:49:58Z</time>
      </trkpt>
      <trkpt lat="43.75775" lon="7.12595">
        <ele>437.93698120117</ele>
        <time>2012-07-12T18:50:02Z</time>
      </trkpt>
      <trkpt lat="43.7578" lon="7.12581">
        <ele>438.63259887695</ele>
        <time>2012-07-12T18:50:08Z</time>
      </trkpt>
      <trkpt lat="43.75776" lon="7.12582">
        <ele>437.41909790039</ele>
        <time>2012-07-12T18:50:11Z</time>
      </trkpt>
      <trkpt lat="43.75776" lon="7.12574">
        <ele>436.40390014648</ele>
        <time>2012-07-12T18:50:14Z</time>
      </trkpt>
      <trkpt lat="43.75774" lon="7.1257">
        <ele>435.2190246582</ele>
        <time>2012-07-12T18:50:18Z</time>
      </trkpt>
      <trkpt lat="43.7577" lon="7.12567">
        <ele>433.54067993164</ele>
        <time>2012-07-12T18:50:22Z</time>
      </trkpt>
      <trkpt lat="43.75769" lon="7.12567">
        <ele>433.41421508789</ele>
        <time>2012-07-12T18:50:23Z</time>
      </trkpt>
      <trkpt lat="43.75768" lon="7.12564">
        <ele>432.69958496094</ele>
        <time>2012-07-12T18:50:27Z</time>
      </trkpt>
      <trkpt lat="43.75767" lon="7.12561">
        <ele>431.77334594727</ele>
        <time>2012-07-12T18:50:33Z</time>
      </trkpt>
      <trkpt lat="43.75766" lon="7.12563">
        <ele>431.79351806641</ele>
        <time>2012-07-12T18:50:52Z</time>
      </trkpt>
      <trkpt lat="43.7576" lon="7.12567">
        <ele>430.42965698242</ele>
        <time>2012-07-12T18:52:37Z</time>
      </trkpt>
      <trkpt lat="43.7576" lon="7.12569">
        <ele>430.48849487305</ele>
        <time>2012-07-12T18:52:38Z</time>
      </trkpt>
      <trkpt lat="43.75753" lon="7.12577">
        <ele>429.95455932617</ele>
        <time>2012-07-12T18:52:41Z</time>
      </trkpt>
      <trkpt lat="43.7575" lon="7.12581">
        <ele>429.59732055664</ele>
        <time>2012-07-12T18:52:42Z</time>
      </trkpt>
      <trkpt lat="43.75741" lon="7.12589">
        <ele>427.21563720703</ele>
        <time>2012-07-12T18:52:46Z</time>
      </trkpt>
      <trkpt lat="43.75742" lon="7.12583">
        <ele>427.23675537109</ele>
        <time>2012-07-12T18:52:49Z</time>
      </trkpt>
      <trkpt lat="43.75742" lon="7.12578">
        <ele>426.25866699219</ele>
        <time>2012-07-12T18:52:53Z</time>
      </trkpt>
      <trkpt lat="43.75741" lon="7.12578">
        <ele>425.75399780273</ele>
        <time>2012-07-12T18:52:54Z</time>
      </trkpt>
      <trkpt lat="43.75733" lon="7.12579">
        <ele>422.90609741211</ele>
        <time>2012-07-12T18:52:57Z</time>
      </trkpt>
      <trkpt lat="43.75715" lon="7.12579">
        <ele>417.11087036133</ele>
        <time>2012-07-12T18:53:02Z</time>
      </trkpt>
      <trkpt lat="43.75698" lon="7.12578">
        <ele>412.35516357422</ele>
        <time>2012-07-12T18:53:06Z</time>
      </trkpt>
      <trkpt lat="43.75685" lon="7.12576">
        <ele>408.32119750977</ele>
        <time>2012-07-12T18:53:10Z</time>
      </trkpt>
      <trkpt lat="43.75676" lon="7.1258">
        <ele>408.09140014648</ele>
        <time>2012-07-12T18:53:15Z</time>
      </trkpt>
      <trkpt lat="43.75674" lon="7.12582">
        <ele>408.71890258789</ele>
        <time>2012-07-12T18:53:21Z</time>
      </trkpt>
      <trkpt lat="43.75671" lon="7.12584">
        <ele>409.04180908203</ele>
        <time>2012-07-12T18:53:28Z</time>
      </trkpt>
      <trkpt lat="43.75665" lon="7.12589">
        <ele>408.59518432617</ele>
        <time>2012-07-12T18:53:33Z</time>
      </trkpt>
      <trkpt lat="43.75662" lon="7.12589">
        <ele>407.55435180664</ele>
        <time>2012-07-12T18:53:36Z</time>
      </trkpt>
      <trkpt lat="43.75658" lon="7.12589">
        <ele>405.75378417969</ele>
        <time>2012-07-12T18:53:42Z</time>
      </trkpt>
      <trkpt lat="43.75657" lon="7.12591">
        <ele>405.82739257812</ele>
        <time>2012-07-12T18:53:47Z</time>
      </trkpt>
      <trkpt lat="43.7565" lon="7.12593">
        <ele>403.33157348633</ele>
        <time>2012-07-12T18:53:51Z</time>
      </trkpt>
      <trkpt lat="43.75638" lon="7.12598">
        <ele>399.08190917969</ele>
        <time>2012-07-12T18:53:56Z</time>
      </trkpt>
      <trkpt lat="43.75621" lon="7.12597">
        <ele>390.26419067383</ele>
        <time>2012-07-12T18:54:01Z</time>
      </trkpt>
      <trkpt lat="43.75612" lon="7.12596">
        <ele>384.83685302734</ele>
        <time>2012-07-12T18:54:05Z</time>
      </trkpt>
      <trkpt lat="43.756" lon="7.12589">
        <ele>376.24884033203</ele>
        <time>2012-07-12T18:54:09Z</time>
      </trkpt>
      <trkpt lat="43.75598" lon="7.12588">
        <ele>374.42926025391</ele>
        <time>2012-07-12T18:54:10Z</time>
      </trkpt>
      <trkpt lat="43.75582" lon="7.12587">
        <ele>365.88824462891</ele>
        <time>2012-07-12T18:54:14Z</time>
      </trkpt>
      <trkpt lat="43.75571" lon="7.126">
        <ele>366.28939819336</ele>
        <time>2012-07-12T18:54:17Z</time>
      </trkpt>
      <trkpt lat="43.75566" lon="7.12611">
        <ele>365.43099975586</ele>
        <time>2012-07-12T18:54:19Z</time>
      </trkpt>
      <trkpt lat="43.75558" lon="7.12616">
        <ele>362.66647338867</ele>
        <time>2012-07-12T18:54:21Z</time>
      </trkpt>
      <trkpt lat="43.75552" lon="7.12623">
        <ele>362.18072509766</ele>
        <time>2012-07-12T18:54:23Z</time>
      </trkpt>
      <trkpt lat="43.75549" lon="7.12627">
        <ele>362.61785888672</ele>
        <time>2012-07-12T18:54:25Z</time>
      </trkpt>
      <trkpt lat="43.75546" lon="7.12632">
        <ele>362.88558959961</ele>
        <time>2012-07-12T18:54:27Z</time>
      </trkpt>
      <trkpt lat="43.7554" lon="7.12643">
        <ele>364.72094726562</ele>
        <time>2012-07-12T18:54:31Z</time>
      </trkpt>
      <trkpt lat="43.75529" lon="7.12654">
        <ele>365.00552368164</ele>
        <time>2012-07-12T18:54:36Z</time>
      </trkpt>
      <trkpt lat="43.75518" lon="7.12663">
        <ele>364.28201293945</ele>
        <time>2012-07-12T18:54:40Z</time>
      </trkpt>
      <trkpt lat="43.75509" lon="7.12687">
        <ele>366.3561706543</ele>
        <time>2012-07-12T18:54:45Z</time>
      </trkpt>
      <trkpt lat="43.75504" lon="7.12705">
        <ele>368.82788085938</ele>
        <time>2012-07-12T18:54:50Z</time>
      </trkpt>
      <trkpt lat="43.75497" lon="7.12722">
        <ele>371.10440063477</ele>
        <time>2012-07-12T18:54:55Z</time>
      </trkpt>
      <trkpt lat="43.75496" lon="7.12725">
        <ele>372.92367553711</ele>
        <time>2012-07-12T18:54:56Z</time>
      </trkpt>
      <trkpt lat="43.75494" lon="7.12737">
        <ele>377.77209472656</ele>
        <time>2012-07-12T18:55:01Z</time>
      </trkpt>
      <trkpt lat="43.75491" lon="7.12743">
        <ele>378.38052368164</ele>
        <time>2012-07-12T18:55:04Z</time>
      </trkpt>
      <trkpt lat="43.75489" lon="7.12749">
        <ele>379.79022216797</ele>
        <time>2012-07-12T18:55:06Z</time>
      </trkpt>
      <trkpt lat="43.75487" lon="7.12766">
        <ele>382.29187011719</ele>
        <time>2012-07-12T18:55:12Z</time>
      </trkpt>
      <trkpt lat="43.75489" lon="7.12774">
        <ele>387.22082519531</ele>
        <time>2012-07-12T18:55:16Z</time>
      </trkpt>
      <trkpt lat="43.75491" lon="7.12775">
        <ele>388.81155395508</ele>
        <time>2012-07-12T18:55:17Z</time>
      </trkpt>
      <trkpt lat="43.75499" lon="7.12787">
        <ele>401.3694152832</ele>
        <time>2012-07-12T18:55:24Z</time>
      </trkpt>
      <trkpt lat="43.75499" lon="7.12791">
        <ele>401.71810913086</ele>
        <time>2012-07-12T18:55:29Z</time>
      </trkpt>
      <trkpt lat="43.75497" lon="7.1279">
        <ele>399.37002563477</ele>
        <time>2012-07-12T18:56:03Z</time>
      </trkpt>
      <trkpt lat="43.75493" lon="7.12796">
        <ele>397.01889038086</ele>
        <time>2012-07-12T18:56:22Z</time>
      </trkpt>
      <trkpt lat="43.75491" lon="7.12797">
        <ele>395.19293212891</ele>
        <time>2012-07-12T18:56:23Z</time>
      </trkpt>
      <trkpt lat="43.75488" lon="7.12799">
        <ele>393.37118530273</ele>
        <time>2012-07-12T18:56:27Z</time>
      </trkpt>
      <trkpt lat="43.75481" lon="7.12802">
        <ele>388.38418579102</ele>
        <time>2012-07-12T18:56:37Z</time>
      </trkpt>
      <trkpt lat="43.75471" lon="7.12811">
        <ele>382.87649536133</ele>
        <time>2012-07-12T18:56:42Z</time>
      </trkpt>
      <trkpt lat="43.75459" lon="7.12831">
        <ele>379.82131958008</ele>
        <time>2012-07-12T18:56:47Z</time>
      </trkpt>
      <trkpt lat="43.75455" lon="7.12847">
        <ele>381.31423950195</ele>
        <time>2012-07-12T18:56:51Z</time>
      </trkpt>
      <trkpt lat="43.7545" lon="7.12863">
        <ele>383.09719848633</ele>
        <time>2012-07-12T18:56:54Z</time>
      </trkpt>
      <trkpt lat="43.7545" lon="7.12872">
        <ele>387.52069091797</ele>
        <time>2012-07-12T18:56:57Z</time>
      </trkpt>
      <trkpt lat="43.75452" lon="7.12875">
        <ele>390.39486694336</ele>
        <time>2012-07-12T18:57:02Z</time>
      </trkpt>
      <trkpt lat="43.75452" lon="7.12877">
        <ele>391.10009765625</ele>
        <time>2012-07-12T18:57:08Z</time>
      </trkpt>
      <trkpt lat="43.75451" lon="7.12881">
        <ele>392.79626464844</ele>
        <time>2012-07-12T18:57:40Z</time>
      </trkpt>
      <trkpt lat="43.75451" lon="7.12882">
        <ele>393.04357910156</ele>
        <time>2012-07-12T18:57:41Z</time>
      </trkpt>
      <trkpt lat="43.75451" lon="7.12882">
        <ele>392.99783325195</ele>
        <time>2012-07-12T18:57:47Z</time>
      </trkpt>
      <trkpt lat="43.75448" lon="7.12889">
        <ele>395.47119140625</ele>
        <time>2012-07-12T18:57:53Z</time>
      </trkpt>
      <trkpt lat="43.75441" lon="7.129">
        <ele>391.09649658203</ele>
        <time>2012-07-12T18:57:58Z</time>
      </trkpt>
      <trkpt lat="43.75437" lon="7.12916">
        <ele>389.55111694336</ele>
        <time>2012-07-12T18:58:03Z</time>
      </trkpt>
      <trkpt lat="43.75427" lon="7.12932">
        <ele>382.67620849609</ele>
        <time>2012-07-12T18:58:08Z</time>
      </trkpt>
      <trkpt lat="43.75413" lon="7.12952">
        <ele>377.75350952148</ele>
        <time>2012-07-12T18:58:13Z</time>
      </trkpt>
      <trkpt lat="43.75401" lon="7.12962">
        <ele>369.25848388672</ele>
        <time>2012-07-12T18:58:17Z</time>
      </trkpt>
      <trkpt lat="43.75388" lon="7.12981">
        <ele>363.06521606445</ele>
        <time>2012-07-12T18:58:22Z</time>
      </trkpt>
      <trkpt lat="43.7538" lon="7.12995">
        <ele>365.88345336914</ele>
        <time>2012-07-12T18:58:26Z</time>
      </trkpt>
      <trkpt lat="43.75374" lon="7.13011">
        <ele>372.71273803711</ele>
        <time>2012-07-12T18:58:31Z</time>
      </trkpt>
      <trkpt lat="43.75359" lon="7.13012">
        <ele>368.8581237793</ele>
        <time>2012-07-12T18:58:35Z</time>
      </trkpt>
      <trkpt lat="43.75349" lon="7.1302">
        <ele>370.82498168945</ele>
        <time>2012-07-12T18:58:39Z</time>
      </trkpt>
      <trkpt lat="43.75339" lon="7.13041">
        <ele>378.71438598633</ele>
        <time>2012-07-12T18:58:44Z</time>
      </trkpt>
      <trkpt lat="43.7533" lon="7.13056">
        <ele>381.71545410156</ele>
        <time>2012-07-12T18:58:48Z</time>
      </trkpt>
      <trkpt lat="43.75312" lon="7.13066">
        <ele>377.7428894043</ele>
        <time>2012-07-12T18:58:52Z</time>
      </trkpt>
      <trkpt lat="43.75294" lon="7.13077">
        <ele>374.61810302734</ele>
        <time>2012-07-12T18:58:56Z</time>
      </trkpt>
      <trkpt lat="43.75278" lon="7.13087">
        <ele>372.3346862793</ele>
        <time>2012-07-12T18:59:00Z</time>
      </trkpt>
      <trkpt lat="43.75275" lon="7.13088">
        <ele>371.91799926758</ele>
        <time>2012-07-12T18:59:01Z</time>
      </trkpt>
      <trkpt lat="43.7526" lon="7.13093">
        <ele>371.22735595703</ele>
        <time>2012-07-12T18:59:05Z</time>
      </trkpt>
      <trkpt lat="43.75255" lon="7.13095">
        <ele>371.14501953125</ele>
        <time>2012-07-12T18:59:06Z</time>
      </trkpt>
      <trkpt lat="43.75248" lon="7.131">
        <ele>371.51113891602</ele>
        <time>2012-07-12T18:59:08Z</time>
      </trkpt>
      <trkpt lat="43.7524" lon="7.13105">
        <ele>370.72830200195</ele>
        <time>2012-07-12T18:59:10Z</time>
      </trkpt>
      <trkpt lat="43.75232" lon="7.13108">
        <ele>369.61895751953</ele>
        <time>2012-07-12T18:59:12Z</time>
      </trkpt>
      <trkpt lat="43.75223" lon="7.13112">
        <ele>368.50146484375</ele>
        <time>2012-07-12T18:59:14Z</time>
      </trkpt>
      <trkpt lat="43.75219" lon="7.13115">
        <ele>368.50494384766</ele>
        <time>2012-07-12T18:59:15Z</time>
      </trkpt>
      <trkpt lat="43.75215" lon="7.13117">
        <ele>368.38821411133</ele>
        <time>2012-07-12T18:59:16Z</time>
      </trkpt>
      <trkpt lat="43.75206" lon="7.13117">
        <ele>366.97888183594</ele>
        <time>2012-07-12T18:59:19Z</time>
      </trkpt>
      <trkpt lat="43.75197" lon="7.1312">
        <ele>366.52053833008</ele>
        <time>2012-07-12T18:59:21Z</time>
      </trkpt>
      <trkpt lat="43.75192" lon="7.13122">
        <ele>366.12344360352</ele>
        <time>2012-07-12T18:59:23Z</time>
      </trkpt>
      <trkpt lat="43.75187" lon="7.13125">
        <ele>365.63510131836</ele>
        <time>2012-07-12T18:59:25Z</time>
      </trkpt>
      <trkpt lat="43.7518" lon="7.13126">
        <ele>364.24188232422</ele>
        <time>2012-07-12T18:59:27Z</time>
      </trkpt>
      <trkpt lat="43.75162" lon="7.13129">
        <ele>360.77728271484</ele>
        <time>2012-07-12T18:59:33Z</time>
      </trkpt>
      <trkpt lat="43.75153" lon="7.13137">
        <ele>361.99340820312</ele>
        <time>2012-07-12T18:59:38Z</time>
      </trkpt>
      <trkpt lat="43.75149" lon="7.13149">
        <ele>363.71490478516</ele>
        <time>2012-07-12T18:59:42Z</time>
      </trkpt>
      <trkpt lat="43.75143" lon="7.13158">
        <ele>364.22988891602</ele>
        <time>2012-07-12T18:59:45Z</time>
      </trkpt>
      <trkpt lat="43.75142" lon="7.13161">
        <ele>364.42730712891</ele>
        <time>2012-07-12T18:59:46Z</time>
      </trkpt>
      <trkpt lat="43.75129" lon="7.13169">
        <ele>361.79061889648</ele>
        <time>2012-07-12T18:59:51Z</time>
      </trkpt>
      <trkpt lat="43.75117" lon="7.13176">
        <ele>359.28802490234</ele>
        <time>2012-07-12T18:59:57Z</time>
      </trkpt>
      <trkpt lat="43.75108" lon="7.1318">
        <ele>357.78161621094</ele>
        <time>2012-07-12T19:00:02Z</time>
      </trkpt>
      <trkpt lat="43.75098" lon="7.13188">
        <ele>357.30429077148</ele>
        <time>2012-07-12T19:00:08Z</time>
      </trkpt>
      <trkpt lat="43.75085" lon="7.13198">
        <ele>356.01480102539</ele>
        <time>2012-07-12T19:00:15Z</time>
      </trkpt>
      <trkpt lat="43.75073" lon="7.13212">
        <ele>355.44604492188</ele>
        <time>2012-07-12T19:00:22Z</time>
      </trkpt>
      <trkpt lat="43.75059" lon="7.13214">
        <ele>352.44024658203</ele>
        <time>2012-07-12T19:00:27Z</time>
      </trkpt>
      <trkpt lat="43.75049" lon="7.13222">
        <ele>351.15435791016</ele>
        <time>2012-07-12T19:00:32Z</time>
      </trkpt>
      <trkpt lat="43.75049" lon="7.13223">
        <ele>351.26559448242</ele>
        <time>2012-07-12T19:00:36Z</time>
      </trkpt>
      <trkpt lat="43.75048" lon="7.13226">
        <ele>351.86297607422</ele>
        <time>2012-07-12T19:00:41Z</time>
      </trkpt>
      <trkpt lat="43.75045" lon="7.13238">
        <ele>353.74609375</ele>
        <time>2012-07-12T19:00:48Z</time>
      </trkpt>
      <trkpt lat="43.7504" lon="7.13239">
        <ele>352.95819091797</ele>
        <time>2012-07-12T19:00:51Z</time>
      </trkpt>
      <trkpt lat="43.7504" lon="7.13241">
        <ele>353.06289672852</ele>
        <time>2012-07-12T19:00:55Z</time>
      </trkpt>
      <trkpt lat="43.75039" lon="7.13239">
        <ele>352.35049438477</ele>
        <time>2012-07-12T19:01:50Z</time>
      </trkpt>
      <trkpt lat="43.75038" lon="7.13238">
        <ele>351.96255493164</ele>
        <time>2012-07-12T19:01:55Z</time>
      </trkpt>
      <trkpt lat="43.75038" lon="7.13243">
        <ele>353.10409545898</ele>
        <time>2012-07-12T19:02:01Z</time>
      </trkpt>
      <trkpt lat="43.75034" lon="7.13243">
        <ele>352.19772338867</ele>
        <time>2012-07-12T19:02:04Z</time>
      </trkpt>
      <trkpt lat="43.75031" lon="7.13245">
        <ele>351.67758178711</ele>
        <time>2012-07-12T19:02:06Z</time>
      </trkpt>
      <trkpt lat="43.75022" lon="7.13252">
        <ele>351.41571044922</ele>
        <time>2012-07-12T19:02:09Z</time>
      </trkpt>
      <trkpt lat="43.75008" lon="7.13266">
        <ele>352.44567871094</ele>
        <time>2012-07-12T19:02:14Z</time>
      </trkpt>
      <trkpt lat="43.74999" lon="7.13275">
        <ele>353.06365966797</ele>
        <time>2012-07-12T19:02:19Z</time>
      </trkpt>
      <trkpt lat="43.74998" lon="7.13278">
        <ele>353.63696289062</ele>
        <time>2012-07-12T19:02:20Z</time>
      </trkpt>
      <trkpt lat="43.74987" lon="7.13289">
        <ele>353.86892700195</ele>
        <time>2012-07-12T19:02:26Z</time>
      </trkpt>
      <trkpt lat="43.74973" lon="7.13293">
        <ele>351.86755371094</ele>
        <time>2012-07-12T19:02:33Z</time>
      </trkpt>
      <trkpt lat="43.74957" lon="7.13303">
        <ele>350.10266113281</ele>
        <time>2012-07-12T19:02:41Z</time>
      </trkpt>
      <trkpt lat="43.74948" lon="7.13316">
        <ele>351.6282043457</ele>
        <time>2012-07-12T19:02:47Z</time>
      </trkpt>
      <trkpt lat="43.74944" lon="7.13336">
        <ele>355.73083496094</ele>
        <time>2012-07-12T19:02:55Z</time>
      </trkpt>
      <trkpt lat="43.74942" lon="7.13356">
        <ele>360.78268432617</ele>
        <time>2012-07-12T19:03:03Z</time>
      </trkpt>
      <trkpt lat="43.74939" lon="7.13364">
        <ele>362.51025390625</ele>
        <time>2012-07-12T19:03:07Z</time>
      </trkpt>
      <trkpt lat="43.74939" lon="7.13366">
        <ele>363.00085449219</ele>
        <time>2012-07-12T19:03:08Z</time>
      </trkpt>
      <trkpt lat="43.74938" lon="7.13379">
        <ele>365.88177490234</ele>
        <time>2012-07-12T19:03:14Z</time>
      </trkpt>
      <trkpt lat="43.74936" lon="7.13387">
        <ele>367.04583740234</ele>
        <time>2012-07-12T19:03:19Z</time>
      </trkpt>
      <trkpt lat="43.74935" lon="7.1339">
        <ele>367.75009155273</ele>
        <time>2012-07-12T19:03:25Z</time>
      </trkpt>
      <trkpt lat="43.74931" lon="7.13394">
        <ele>367.96029663086</ele>
        <time>2012-07-12T19:03:31Z</time>
      </trkpt>
      <trkpt lat="43.74929" lon="7.134">
        <ele>369.22320556641</ele>
        <time>2012-07-12T19:03:37Z</time>
      </trkpt>
      <trkpt lat="43.74928" lon="7.13402">
        <ele>369.40408325195</ele>
        <time>2012-07-12T19:03:39Z</time>
      </trkpt>
      <trkpt lat="43.74927" lon="7.13408">
        <ele>370.88650512695</ele>
        <time>2012-07-12T19:03:44Z</time>
      </trkpt>
      <trkpt lat="43.74928" lon="7.13411">
        <ele>372.02478027344</ele>
        <time>2012-07-12T19:03:46Z</time>
      </trkpt>
      <trkpt lat="43.74926" lon="7.1342">
        <ele>374.18167114258</ele>
        <time>2012-07-12T19:03:53Z</time>
      </trkpt>
      <trkpt lat="43.74924" lon="7.13427">
        <ele>375.0485534668</ele>
        <time>2012-07-12T19:04:00Z</time>
      </trkpt>
      <trkpt lat="43.74924" lon="7.13428">
        <ele>375.36123657227</ele>
        <time>2012-07-12T19:04:01Z</time>
      </trkpt>
      <trkpt lat="43.74923" lon="7.13435">
        <ele>376.78472900391</ele>
        <time>2012-07-12T19:04:08Z</time>
      </trkpt>
      <trkpt lat="43.74923" lon="7.13444">
        <ele>378.87734985352</ele>
        <time>2012-07-12T19:04:15Z</time>
      </trkpt>
      <trkpt lat="43.74923" lon="7.13445">
        <ele>379.14999389648</ele>
        <time>2012-07-12T19:04:16Z</time>
      </trkpt>
      <trkpt lat="43.7492" lon="7.13454">
        <ele>379.83834838867</ele>
        <time>2012-07-12T19:04:24Z</time>
      </trkpt>
      <trkpt lat="43.7492" lon="7.13456">
        <ele>380.31042480469</ele>
        <time>2012-07-12T19:04:26Z</time>
      </trkpt>
      <trkpt lat="43.7492" lon="7.13464">
        <ele>381.56011962891</ele>
        <time>2012-07-12T19:04:32Z</time>
      </trkpt>
      <trkpt lat="43.74919" lon="7.13469">
        <ele>382.14547729492</ele>
        <time>2012-07-12T19:04:36Z</time>
      </trkpt>
      <trkpt lat="43.7492" lon="7.13471">
        <ele>382.72399902344</ele>
        <time>2012-07-12T19:04:39Z</time>
      </trkpt>
      <trkpt lat="43.74921" lon="7.13477">
        <ele>384.5500793457</ele>
        <time>2012-07-12T19:04:44Z</time>
      </trkpt>
      <trkpt lat="43.74921" lon="7.13478">
        <ele>384.86785888672</ele>
        <time>2012-07-12T19:04:45Z</time>
      </trkpt>
      <trkpt lat="43.74921" lon="7.1349">
        <ele>388.27053833008</ele>
        <time>2012-07-12T19:04:54Z</time>
      </trkpt>
      <trkpt lat="43.7492" lon="7.13497">
        <ele>389.81295776367</ele>
        <time>2012-07-12T19:04:59Z</time>
      </trkpt>
      <trkpt lat="43.7492" lon="7.13501">
        <ele>391.19613647461</ele>
        <time>2012-07-12T19:05:02Z</time>
      </trkpt>
      <trkpt lat="43.7492" lon="7.1351">
        <ele>393.42364501953</ele>
        <time>2012-07-12T19:05:09Z</time>
      </trkpt>
      <trkpt lat="43.74921" lon="7.13518">
        <ele>395.5234375</ele>
        <time>2012-07-12T19:05:15Z</time>
      </trkpt>
      <trkpt lat="43.7492" lon="7.1352">
        <ele>395.73324584961</ele>
        <time>2012-07-12T19:05:22Z</time>
      </trkpt>
      <trkpt lat="43.74916" lon="7.13526">
        <ele>396.31970214844</ele>
        <time>2012-07-12T19:05:56Z</time>
      </trkpt>
      <trkpt lat="43.7491" lon="7.13535">
        <ele>397.18508911133</ele>
        <time>2012-07-12T19:06:02Z</time>
      </trkpt>
      <trkpt lat="43.74904" lon="7.13546">
        <ele>398.0090637207</ele>
        <time>2012-07-12T19:06:08Z</time>
      </trkpt>
      <trkpt lat="43.74899" lon="7.13558">
        <ele>399.44104003906</ele>
        <time>2012-07-12T19:06:15Z</time>
      </trkpt>
      <trkpt lat="43.74897" lon="7.1357">
        <ele>402.50347900391</ele>
        <time>2012-07-12T19:06:20Z</time>
      </trkpt>
      <trkpt lat="43.74889" lon="7.13583">
        <ele>404.7829284668</ele>
        <time>2012-07-12T19:06:26Z</time>
      </trkpt>
      <trkpt lat="43.74882" lon="7.13601">
        <ele>408.07235717773</ele>
        <time>2012-07-12T19:06:33Z</time>
      </trkpt>
      <trkpt lat="43.74871" lon="7.13619">
        <ele>409.55136108398</ele>
        <time>2012-07-12T19:06:41Z</time>
      </trkpt>
      <trkpt lat="43.7486" lon="7.13638">
        <ele>410.4797668457</ele>
        <time>2012-07-12T19:06:48Z</time>
      </trkpt>
      <trkpt lat="43.74853" lon="7.13656">
        <ele>412.93740844727</ele>
        <time>2012-07-12T19:06:55Z</time>
      </trkpt>
      <trkpt lat="43.74852" lon="7.13676">
        <ele>416.61804199219</ele>
        <time>2012-07-12T19:07:01Z</time>
      </trkpt>
      <trkpt lat="43.74846" lon="7.13694">
        <ele>418.24169921875</ele>
        <time>2012-07-12T19:07:07Z</time>
      </trkpt>
      <trkpt lat="43.74836" lon="7.13719">
        <ele>421.70547485352</ele>
        <time>2012-07-12T19:07:15Z</time>
      </trkpt>
      <trkpt lat="43.74831" lon="7.13741">
        <ele>425.37875366211</ele>
        <time>2012-07-12T19:07:22Z</time>
      </trkpt>
      <trkpt lat="43.74827" lon="7.13759">
        <ele>427.65182495117</ele>
        <time>2012-07-12T19:07:28Z</time>
      </trkpt>
      <trkpt lat="43.74823" lon="7.13773">
        <ele>428.74359130859</ele>
        <time>2012-07-12T19:07:34Z</time>
      </trkpt>
      <trkpt lat="43.74821" lon="7.13785">
        <ele>430.36999511719</ele>
        <time>2012-07-12T19:07:40Z</time>
      </trkpt>
      <trkpt lat="43.7482" lon="7.13798">
        <ele>432.69244384766</ele>
        <time>2012-07-12T19:07:48Z</time>
      </trkpt>
      <trkpt lat="43.7482" lon="7.13799">
        <ele>433.03430175781</ele>
        <time>2012-07-12T19:07:54Z</time>
      </trkpt>
      <trkpt lat="43.7482" lon="7.13802">
        <ele>433.34976196289</ele>
        <time>2012-07-12T19:08:49Z</time>
      </trkpt>
      <trkpt lat="43.74819" lon="7.13801">
        <ele>432.91723632812</ele>
        <time>2012-07-12T19:08:51Z</time>
      </trkpt>
      <trkpt lat="43.74809" lon="7.13797">
        <ele>429.33709716797</ele>
        <time>2012-07-12T19:09:44Z</time>
      </trkpt>
      <trkpt lat="43.74809" lon="7.1381">
        <ele>431.76113891602</ele>
        <time>2012-07-12T19:09:47Z</time>
      </trkpt>
      <trkpt lat="43.74808" lon="7.1383">
        <ele>435.11196899414</ele>
        <time>2012-07-12T19:09:51Z</time>
      </trkpt>
      <trkpt lat="43.74796" lon="7.13855">
        <ele>435.20889282227</ele>
        <time>2012-07-12T19:09:56Z</time>
      </trkpt>
      <trkpt lat="43.74782" lon="7.13888">
        <ele>436.82052612305</ele>
        <time>2012-07-12T19:10:01Z</time>
      </trkpt>
      <trkpt lat="43.74773" lon="7.1392">
        <ele>440.28680419922</ele>
        <time>2012-07-12T19:10:06Z</time>
      </trkpt>
      <trkpt lat="43.74773" lon="7.13927">
        <ele>440.69876098633</ele>
        <time>2012-07-12T19:10:07Z</time>
      </trkpt>
      <trkpt lat="43.74766" lon="7.13965">
        <ele>443.5205078125</ele>
        <time>2012-07-12T19:10:12Z</time>
      </trkpt>
      <trkpt lat="43.74762" lon="7.13985">
        <ele>445.2643737793</ele>
        <time>2012-07-12T19:10:15Z</time>
      </trkpt>
      <trkpt lat="43.74759" lon="7.14004">
        <ele>446.40600585938</ele>
        <time>2012-07-12T19:10:18Z</time>
      </trkpt>
      <trkpt lat="43.74755" lon="7.14016">
        <ele>446.55364990234</ele>
        <time>2012-07-12T19:10:20Z</time>
      </trkpt>
      <trkpt lat="43.74753" lon="7.14029">
        <ele>446.9313659668</ele>
        <time>2012-07-12T19:10:22Z</time>
      </trkpt>
      <trkpt lat="43.74752" lon="7.14042">
        <ele>447.61224365234</ele>
        <time>2012-07-12T19:10:25Z</time>
      </trkpt>
      <trkpt lat="43.74752" lon="7.14048">
        <ele>448.15277099609</ele>
        <time>2012-07-12T19:10:29Z</time>
      </trkpt>
      <trkpt lat="43.74752" lon="7.14055">
        <ele>448.43173217773</ele>
        <time>2012-07-12T19:10:33Z</time>
      </trkpt>
      <trkpt lat="43.74751" lon="7.14056">
        <ele>448.34918212891</ele>
        <time>2012-07-12T19:10:34Z</time>
      </trkpt>
      <trkpt lat="43.74751" lon="7.14057">
        <ele>448.32513427734</ele>
        <time>2012-07-12T19:10:35Z</time>
      </trkpt>
      <trkpt lat="43.74748" lon="7.14059">
        <ele>447.50094604492</ele>
        <time>2012-07-12T19:10:41Z</time>
      </trkpt>
      <trkpt lat="43.74744" lon="7.14071">
        <ele>446.34436035156</ele>
        <time>2012-07-12T19:10:46Z</time>
      </trkpt>
      <trkpt lat="43.74737" lon="7.14097">
        <ele>443.87548828125</ele>
        <time>2012-07-12T19:10:53Z</time>
      </trkpt>
      <trkpt lat="43.74736" lon="7.14125">
        <ele>442.73352050781</ele>
        <time>2012-07-12T19:10:59Z</time>
      </trkpt>
      <trkpt lat="43.74738" lon="7.14157">
        <ele>441.98748779297</ele>
        <time>2012-07-12T19:11:04Z</time>
      </trkpt>
      <trkpt lat="43.74739" lon="7.14187">
        <ele>440.30096435547</ele>
        <time>2012-07-12T19:11:08Z</time>
      </trkpt>
      <trkpt lat="43.74741" lon="7.14202">
        <ele>439.72537231445</ele>
        <time>2012-07-12T19:11:10Z</time>
      </trkpt>
      <trkpt lat="43.74751" lon="7.1424">
        <ele>439.54833984375</ele>
        <time>2012-07-12T19:11:16Z</time>
      </trkpt>
      <trkpt lat="43.74753" lon="7.14246">
        <ele>439.83673095703</ele>
        <time>2012-07-12T19:11:17Z</time>
      </trkpt>
      <trkpt lat="43.74755" lon="7.14252">
        <ele>439.75662231445</ele>
        <time>2012-07-12T19:11:19Z</time>
      </trkpt>
      <trkpt lat="43.74754" lon="7.14251">
        <ele>439.62271118164</ele>
        <time>2012-07-12T19:11:22Z</time>
      </trkpt>
      <trkpt lat="43.74752" lon="7.1425">
        <ele>439.45220947266</ele>
        <time>2012-07-12T19:11:23Z</time>
      </trkpt>
      <trkpt lat="43.74749" lon="7.14248">
        <ele>438.97894287109</ele>
        <time>2012-07-12T19:11:27Z</time>
      </trkpt>
      <trkpt lat="43.74749" lon="7.14244">
        <ele>439.10180664062</ele>
        <time>2012-07-12T19:11:29Z</time>
      </trkpt>
      <trkpt lat="43.74751" lon="7.14236">
        <ele>439.69598388672</ele>
        <time>2012-07-12T19:11:31Z</time>
      </trkpt>
      <trkpt lat="43.7475" lon="7.14233">
        <ele>439.55895996094</ele>
        <time>2012-07-12T19:11:32Z</time>
      </trkpt>
      <trkpt lat="43.74746" lon="7.14242">
        <ele>438.61401367188</ele>
        <time>2012-07-12T19:11:35Z</time>
      </trkpt>
      <trkpt lat="43.74741" lon="7.14258">
        <ele>436.63836669922</ele>
        <time>2012-07-12T19:11:37Z</time>
      </trkpt>
      <trkpt lat="43.7474" lon="7.14267">
        <ele>435.61291503906</ele>
        <time>2012-07-12T19:11:38Z</time>
      </trkpt>
      <trkpt lat="43.7475" lon="7.14292">
        <ele>434.54498291016</ele>
        <time>2012-07-12T19:11:41Z</time>
      </trkpt>
      <trkpt lat="43.74756" lon="7.14301">
        <ele>434.88485717773</ele>
        <time>2012-07-12T19:11:43Z</time>
      </trkpt>
      <trkpt lat="43.74763" lon="7.14302">
        <ele>436.24957275391</ele>
        <time>2012-07-12T19:11:45Z</time>
      </trkpt>
      <trkpt lat="43.74778" lon="7.14319">
        <ele>438.00183105469</ele>
        <time>2012-07-12T19:11:50Z</time>
      </trkpt>
      <trkpt lat="43.74791" lon="7.14337">
        <ele>438.49502563477</ele>
        <time>2012-07-12T19:11:54Z</time>
      </trkpt>
      <trkpt lat="43.74797" lon="7.14341">
        <ele>438.8395690918</ele>
        <time>2012-07-12T19:11:56Z</time>
      </trkpt>
      <trkpt lat="43.74801" lon="7.14344">
        <ele>439.08642578125</ele>
        <time>2012-07-12T19:11:58Z</time>
      </trkpt>
      <trkpt lat="43.74821" lon="7.14353">
        <ele>438.79733276367</ele>
        <time>2012-07-12T19:12:02Z</time>
      </trkpt>
      <trkpt lat="43.7484" lon="7.14358">
        <ele>439.66680908203</ele>
        <time>2012-07-12T19:12:05Z</time>
      </trkpt>
      <trkpt lat="43.74845" lon="7.14359">
        <ele>440.01699829102</ele>
        <time>2012-07-12T19:12:06Z</time>
      </trkpt>
      <trkpt lat="43.74853" lon="7.14362">
        <ele>440.57855224609</ele>
        <time>2012-07-12T19:12:08Z</time>
      </trkpt>
      <trkpt lat="43.74865" lon="7.14365">
        <ele>441.55444335938</ele>
        <time>2012-07-12T19:12:11Z</time>
      </trkpt>
      <trkpt lat="43.74875" lon="7.14365">
        <ele>442.62561035156</ele>
        <time>2012-07-12T19:12:15Z</time>
      </trkpt>
      <trkpt lat="43.74876" lon="7.14365">
        <ele>442.64791870117</ele>
        <time>2012-07-12T19:12:16Z</time>
      </trkpt>
      <trkpt lat="43.74879" lon="7.14366">
        <ele>442.80755615234</ele>
        <time>2012-07-12T19:12:19Z</time>
      </trkpt>
      <trkpt lat="43.74882" lon="7.14364">
        <ele>443.44442749023</ele>
        <time>2012-07-12T19:12:22Z</time>
      </trkpt>
      <trkpt lat="43.74881" lon="7.14365">
        <ele>443.24359130859</ele>
        <time>2012-07-12T19:12:23Z</time>
      </trkpt>
      <trkpt lat="43.74873" lon="7.14363">
        <ele>442.96548461914</ele>
        <time>2012-07-12T19:12:26Z</time>
      </trkpt>
      <trkpt lat="43.74871" lon="7.14361">
        <ele>443.10797119141</ele>
        <time>2012-07-12T19:12:27Z</time>
      </trkpt>
      <trkpt lat="43.74865" lon="7.14363">
        <ele>441.95095825195</ele>
        <time>2012-07-12T19:12:31Z</time>
      </trkpt>
      <trkpt lat="43.74861" lon="7.14366">
        <ele>440.76641845703</ele>
        <time>2012-07-12T19:12:34Z</time>
      </trkpt>
      <trkpt lat="43.74862" lon="7.14368">
        <ele>440.39056396484</ele>
        <time>2012-07-12T19:12:35Z</time>
      </trkpt>
      <trkpt lat="43.74863" lon="7.14366">
        <ele>440.96905517578</ele>
        <time>2012-07-12T19:12:39Z</time>
      </trkpt>
      <trkpt lat="43.74864" lon="7.14368">
        <ele>440.62573242188</ele>
        <time>2012-07-12T19:13:07Z</time>
      </trkpt>
    </trkseg>
  </trk>
</gpx>